[[{"header":{"parameterUnit":"m.s-1","parameterCategory":1,"la1":31.0,"la2":29.5877,"lo1":-88.7671,"lo2":-86.6584,"dy":0.0162,"dx":0.0185,"nx":115,"ny":88,"refTime":"2024-07-02T06:00:00:Z","depth":0,"parameterNumber":2,"parameterNumberName":"U-component_of_WINDS"},"data":[0.0,0.0,0.0,0.0,0.0,0.0,0.0,0.0,0.0,0.0,0.0,0.0,0.0,0.0,0.0,0.0,0.0,0.0,0.0,0.0,0.0,0.0,0.0,0.0,0.0,0.0,0.0,0.0,0.0,0.0,0.0,0.0,0.0,0.0,0.0,0.0,0.0,0.0,0.0,0.0,0.0,0.0,0.0,0.0,0.0,0.0,0.0,0.0,0.0,0.0,0.0,0.0,0.0,0.0,0.0,0.0,0.0,0.0,0.0,0.0,0.0,0.0,0.0,0.0,0.0,0.0,0.0,0.0,0.0,0.0,0.0,0.0,0.0,0.0,0.0,0.0,0.0,0.0,0.0,0.0,0.0,0.0,0.0,0.0,0.0,0.0,0.0,0.0,0.0,0.0,0.0,0.0,0.0,0.0,0.0,0.0,0.0,0.0,0.0,0.0,0.0,0.0,0.0,0.0,0.0,0.0,0.0,0.0,0.0,0.0,0.0,0.0,0.0,0.0,0.0,0.0,0.0,0.0,0.0,0.0,0.0,0.0,0.0,0.0,0.0,0.0,0.0,0.0,0.0,0.0,0.0,0.0,0.0,0.0,0.0,0.0,0.0,0.0,0.0,0.0,0.0,0.0,0.0,0.0,0.0,0.0,0.0,0.0,0.0,0.0,0.0,0.0,0.0,0.0,0.0,0.0,0.0,0.0,0.0,0.0,0.0,0.0,0.0,0.0,0.0,0.0,0.0,0.0,0.0,0.0,0.0,0.0,0.0,0.0,0.0,0.0,0.0,0.0,0.0,0.0,0.0,0.0,0.0,0.0,0.0,0.0,0.0,0.0,0.0,0.0,0.0,0.0,0.0,0.0,0.0,0.0,0.0,0.0,0.0,0.0,0.0,0.0,0.0,0.0,0.0,0.0,0.0,0.0,0.0,0.0,0.0,0.0,0.0,0.0,0.0,0.0,0.0,0.0,0.0,0.0,0.0,0.0,0.0,0.0,0.0,0.0,0.0,0.0,0.0,0.0,0.0,0.0,0.0,0.0,0.0,0.0,0.0,0.0,0.0,0.0,0.0,0.0,0.0,0.0,0.0,0.0,0.0,0.0,0.0,0.0,0.0,0.0,0.0,0.0,0.0,0.0,0.0,0.0,0.0,0.0,0.0,0.0,0.0,0.0,0.0,0.0,0.0,0.0,0.0,0.0,0.0,0.0,0.0,0.0,0.0,0.0,0.0,0.0,0.0,0.0,0.0,0.0,0.0,0.0,0.0,0.0,0.0,0.0,0.0,0.0,0.0,0.0,0.0,0.0,0.0,0.0,0.0,0.0,0.0,0.0,0.0,0.0,0.0,0.0,0.0,0.0,0.0,0.0,0.0,0.0,0.0,0.0,0.0,0.0,0.0,0.0,0.0,0.0,0.0,0.0,0.0,0.0,0.0,0.0,0.0,0.0,0.0,0.0,0.0,0.0,0.0,0.0,0.0,0.0,0.0,0.0,0.0,0.0,0.0,0.0,0.0,0.0,0.0,0.0,0.0,0.0,0.0,0.0,0.0,0.0,0.0,0.0,0.0,0.0,0.0,0.0,0.0,0.0,0.0,0.0,0.0,0.0,0.0,0.0,0.0,0.0,0.0,0.0,0.0,0.0,0.0,0.0,0.0,0.0,0.0,0.0,0.0,0.0,0.0,0.0,0.0,0.0,0.0,0.0,0.0,0.0,0.0,0.0,0.0,0.0,0.0,0.0,0.0,0.0,0.0,0.0,0.0,0.0,0.0,0.0,0.0,0.0,0.0,0.0,0.0,0.0,0.0,0.0,0.0,0.0,0.0,0.0,0.0,0.0,0.0,0.0,0.0,0.0,0.0,0.0,0.0,0.0,0.0,0.0,0.0,0.0,0.0,0.0,0.0,0.0,0.0,0.0,0.0,0.0,0.0,0.0,0.0,0.0,0.0,0.0,0.0,0.0,0.0,0.0,0.0,0.0,0.0,0.0,0.0,0.0,0.0,0.0,0.0,0.0,0.0,0.0,0.0,0.0,0.0,0.0,0.0,0.0,0.0,0.0,0.0,0.0,0.0,0.0,0.0,0.0,0.0,0.0,0.0,0.0,0.0,0.0,0.0,0.0,0.0,0.0,0.0,0.0,0.0,0.0,0.0,0.0,0.0,0.0,0.0,0.0,0.0,0.0,0.0,0.0,0.0,0.0,0.0,0.0,0.0,0.0,0.0,0.0,0.0,0.0,0.0,0.0,0.0,0.0,0.0,0.0,0.0,0.0,0.0,0.0,0.0,0.0,0.0,0.0,0.0,0.0,0.0,0.0,0.0,0.0,0.0,0.0,0.0,0.0,0.0,0.0,0.0,0.0,0.0,0.0,0.0,0.0,0.0,0.0,0.0,0.0,0.0,0.0,0.0,0.0,0.0,0.0,0.0,0.0,0.0,0.0,0.0,0.0,0.0,0.0,0.0,0.0,0.0,0.0,0.0,0.0,0.0,0.0,0.0,0.0,0.0,0.0,0.0,0.0,0.0,0.0,0.0,0.0,0.0,0.0,0.0,0.0,0.0,0.0,0.0,0.0,0.0,0.0,0.0,0.0,0.0,0.0,0.0,0.0,0.0,0.0,0.0,0.0,0.0,0.0,0.0,0.0,0.0,0.0,0.0,0.0,0.0,0.0,0.0,0.0,0.0,0.0,0.0,0.0,0.0,0.0,0.0,0.0,0.0,0.0,0.0,0.0,0.0,0.0,0.0,0.0,0.0,0.0,0.0,0.0,0.0,0.0,0.0,0.0,0.0,0.0,0.0,0.0,0.0,0.0,0.0,0.0,0.0,0.0,0.0,0.0,0.0,0.0,0.0,0.0,0.0,0.0,0.0,0.0,0.0,0.0,0.0,0.0,0.0,0.0,0.0,0.0,0.0,0.0,0.0,0.0,0.0,0.0,0.0,0.0,0.0,0.0,0.0,0.0,0.0,0.0,0.0,0.0,0.0,0.0,0.0,0.0,0.0,0.0,0.0,0.0,0.0,0.0,0.0,0.0,0.0,0.0,0.0,0.0,0.0,0.0,0.0,0.0,0.0,0.0,0.0,0.0,0.0,0.0,0.0,0.0,0.0,0.0,0.0,0.0,0.0,0.0,0.0,0.0,0.0,0.0,0.0,0.0,0.0,0.0,0.0,0.0,0.0,0.0,0.0,0.0,0.0,0.0,0.0,0.0,0.0,0.0,0.0,0.0,0.0,0.0,0.0,0.0,0.0,0.0,0.0,0.0,0.0,0.0,0.0,0.0,0.0,0.0,0.0,0.0,0.0,0.0,0.0,0.0,0.0,0.0,0.0,0.0,0.0,0.0,0.0,0.0,0.0,0.0,0.0,0.0,0.0,0.0,0.0,0.0,0.0,0.0,0.0,0.0,0.0,0.0,0.0,0.0,0.0,0.0,0.0,0.0,0.0,0.0,0.0,0.0,0.0,0.0,0.0,0.0,0.0,0.0,0.0,0.0,0.0,0.0,0.0,0.0,0.0,0.0,0.0,0.0,0.0,0.0,0.0,0.0,0.0,0.0,0.0,0.0,0.0,0.0,0.0,0.0,0.0,0.0,0.0,0.0,0.0,0.0,0.0,0.0,0.0,0.0,0.0,0.0,0.0,0.0,0.0,0.0,0.0,0.0,0.0,0.0,0.0,0.0,0.0,0.0,0.0,0.0,0.0,0.0,0.0,0.0,0.0,0.0,0.0,0.0,0.0,0.0,0.0,0.0,0.0,0.0,0.0,0.0,0.0,0.0,0.0,0.0,0.0,0.0,0.0,0.0,0.0,0.0,0.0,0.0,0.0,0.0,0.0,0.0,0.0,0.0,0.0,0.0,0.0,0.0,0.0,0.0,0.0,0.0,0.0,0.0,0.0,0.0,0.0,0.0,0.0,0.0,0.0,0.0,0.0,0.0,0.0,0.0,0.0,0.0,0.0,0.0,0.0,0.0,0.0,0.0,0.0,0.0,0.0,0.0,0.0,0.0,0.0,0.0,0.0,0.0,0.0,0.0,0.0,0.0,0.0,0.0,0.0,0.0,0.0,0.0,0.0,0.0,0.0,0.0,0.0,0.0,0.0,0.0,0.0,0.0,0.0,0.0,0.0,0.0,0.0,0.0,0.0,0.0,0.0,0.0,0.0,0.0,0.0,0.0,0.0,0.0,0.0,0.0,0.0,0.0,0.0,0.0,0.0,0.0,0.0,0.0,0.0,0.0,0.0,0.0,0.0,0.0,0.0,0.0,0.0,0.0,0.0,0.0,-0.5921,0.0,0.0,0.0,0.0,0.0,0.0,0.0,0.0,0.0,0.0,0.0,0.0,0.0,0.0,0.0,0.0,0.0,0.0,0.0,0.0,0.0,0.0,0.0,0.0,0.0,0.0,0.0,0.0,0.0,0.0,0.0,0.0,0.0,0.0,0.0,0.0,0.0,0.0,0.0,0.0,0.0,0.0,0.0,0.0,0.0,0.0,0.0,0.0,0.0,0.0,0.0,0.0,0.0,0.0,0.0,0.0,0.0,0.0,0.0,0.0,0.0,0.0,0.0,0.0,0.0,0.0,0.0,0.0,0.0,0.0,0.0,0.0,0.0,0.0,0.0,0.0,0.0,0.0,0.0,0.0,0.0,0.0,0.0,0.0,0.0,0.0,0.0,0.0,0.0,0.0,0.0,0.0,0.0,0.0,0.0,0.0,0.0,0.0,0.0,0.0,0.0,0.0,0.0,0.0,0.0,0.0,0.0,0.0,0.0,0.0,-0.5498,-0.5609,-0.5959,-0.6145,-0.6183,0.0,0.0,0.0,0.0,0.0,0.0,0.0,0.0,0.0,0.0,0.0,0.0,0.0,0.0,0.0,0.0,0.0,0.0,0.0,0.0,0.0,0.0,0.0,0.0,0.0,0.0,0.0,0.0,0.0,0.0,0.0,0.0,0.0,0.0,0.0,0.0,0.0,0.0,0.0,0.0,0.0,0.0,0.0,0.0,0.0,0.0,0.0,0.0,0.0,0.0,0.0,0.0,0.0,0.0,0.0,0.0,0.0,0.0,0.0,0.0,0.0,0.0,0.0,0.0,0.0,0.0,0.0,0.0,0.0,0.0,0.0,0.0,0.0,0.0,0.0,0.0,0.0,0.0,0.0,0.0,0.0,0.0,0.0,0.0,0.0,0.0,0.0,0.0,0.0,0.0,0.0,0.0,0.0,0.0,0.0,0.0,0.0,0.0,0.0,0.0,0.0,0.0,0.0,0.0,0.0,0.0,0.0,0.0,0.0,0.0,0.0,0.0,-0.6465,-0.6651,-0.6666,0.0,0.0,0.0,0.0,0.0,0.0,0.0,0.0,0.0,0.0,0.0,0.0,0.0,0.0,0.0,0.0,0.0,0.0,0.0,0.0,0.0,0.0,0.0,0.0,0.0,0.0,0.0,0.0,0.0,0.0,0.0,0.0,0.0,0.0,0.0,0.0,0.0,0.0,0.0,0.0,0.0,0.0,0.0,0.0,0.0,0.0,0.0,0.0,0.0,0.0,0.0,0.0,0.0,0.0,0.0,0.0,0.0,0.0,0.0,0.0,0.0,0.0,0.0,0.0,0.0,0.0,0.0,0.0,0.0,0.0,0.0,0.0,0.0,0.0,0.0,0.0,0.0,0.0,0.0,0.0,0.0,0.0,0.0,0.0,0.0,0.0,0.0,0.0,0.0,0.0,0.0,0.0,0.0,0.0,0.0,0.0,0.0,0.0,0.0,0.0,0.0,0.0,0.0,0.0,0.0,0.0,0.0,0.0,0.0,0.0,-0.6062,-0.6778,-0.7186,0.0,-0.7452,0.0,0.0,0.0,0.0,0.0,0.0,0.0,0.0,0.0,0.0,0.0,0.0,0.0,0.0,0.0,0.0,0.0,0.0,0.0,0.0,0.0,0.0,0.0,0.0,0.0,0.0,0.0,0.0,0.0,0.0,0.0,0.0,0.0,0.0,0.0,0.0,0.0,0.0,0.0,0.0,0.0,0.0,0.0,0.0,0.0,0.0,0.0,0.0,0.0,0.0,0.0,0.0,0.0,0.0,0.0,0.0,0.0,0.0,0.0,0.0,0.0,0.0,0.0,0.0,0.0,0.0,0.0,0.0,0.0,0.0,0.0,0.0,0.0,0.0,0.0,0.0,0.0,0.0,0.0,0.0,0.0,0.0,0.0,0.0,0.0,0.0,0.0,0.0,0.0,0.0,0.0,0.0,0.0,0.0,0.0,0.0,0.0,0.0,0.0,0.0,0.0,0.0,0.0,0.0,0.0,0.0,0.0,0.0,0.0,0.0,-0.6551,-0.7368,-0.7643,-0.7626,0.0,0.0,0.0,0.0,0.0,0.0,0.0,0.0,0.0,0.0,0.0,0.0,0.0,0.0,0.0,0.0,0.0,0.0,0.0,0.0,0.0,0.0,0.0,0.0,0.0,0.0,0.0,0.0,0.0,0.0,0.0,0.0,0.0,0.0,0.0,0.0,0.0,0.0,0.0,0.0,0.0,0.0,0.0,0.0,0.0,0.0,0.0,0.0,0.0,0.0,0.0,0.0,0.0,0.0,0.0,0.0,0.0,0.0,0.0,0.0,0.0,0.0,0.0,0.0,0.0,0.0,0.0,0.0,0.0,0.0,0.0,0.0,0.0,0.0,0.0,0.0,0.0,0.0,0.0,0.0,0.0,0.0,0.0,0.0,0.0,0.0,0.0,0.0,0.0,0.0,0.0,0.0,0.0,0.0,0.0,0.0,0.0,0.0,0.0,0.0,0.0,0.0,0.0,0.0,0.0,0.0,0.0,0.0,0.0,0.0,-0.6926,0.0,-0.8103,-0.8028,-0.7757,-0.732,0.0,0.0,0.0,0.0,0.0,0.0,0.0,0.0,0.0,0.0,0.0,0.0,0.0,0.0,0.0,0.0,0.0,0.0,0.0,0.0,0.0,0.0,0.0,0.0,0.0,0.0,0.0,0.0,0.0,0.0,0.0,0.0,0.0,0.0,0.0,0.0,0.0,0.0,0.0,0.0,0.0,0.0,0.0,0.0,0.0,0.0,0.0,0.0,0.0,0.0,0.0,0.0,0.0,0.0,0.0,0.0,0.0,0.0,0.0,0.0,0.0,0.0,0.0,0.0,0.0,0.0,0.0,0.0,0.0,0.0,0.0,0.0,0.0,0.0,0.0,0.0,0.0,0.0,0.0,0.0,0.0,0.0,0.0,0.0,0.0,0.0,0.0,0.0,0.0,0.0,0.0,0.0,0.0,0.0,0.0,0.0,0.0,0.0,0.0,0.0,0.0,0.0,0.0,0.0,0.0,0.0,0.0,0.0,0.0,-0.8189,-0.8319,-0.928,-0.8415,-0.7863,0.0,0.0,0.0,0.0,0.0,0.0,0.0,0.0,0.0,0.0,0.0,0.0,0.0,0.0,0.0,0.0,0.0,0.0,0.0,0.0,0.0,0.0,0.0,0.0,0.0,0.0,0.0,0.0,0.0,0.0,0.0,0.0,0.0,0.0,0.0,0.0,0.0,0.0,0.0,0.0,0.0,0.0,0.0,0.0,0.0,0.0,0.0,0.0,0.0,0.0,0.0,0.0,0.0,0.0,0.0,0.0,0.0,0.0,0.0,0.0,0.0,0.0,0.0,0.0,0.0,0.0,0.0,0.0,0.0,0.0,0.0,0.0,0.0,0.0,0.0,0.0,0.0,0.0,0.0,0.0,0.0,0.0,0.0,0.0,0.0,0.0,0.0,0.0,0.0,0.0,0.0,0.0,0.0,0.0,0.0,0.0,0.0,0.0,0.0,0.0,0.0,0.0,0.0,0.0,0.0,0.0,0.0,0.0,0.0,-0.8114,-0.8521,-0.9338,-1.051,-0.9232,-0.8742,0.0,0.0,0.0,0.0,0.0,0.0,0.0,0.0,0.0,0.0,0.0,0.0,0.0,0.0,0.0,0.0,0.0,0.0,0.0,0.0,0.0,0.0,0.0,0.0,0.0,0.0,0.0,0.0,0.0,0.0,0.0,0.0,0.0,0.0,0.0,0.0,0.0,0.0,0.0,0.0,0.0,0.0,0.0,0.0,0.0,0.0,0.0,0.0,0.0,0.0,0.0,0.0,0.0,0.0,0.0,0.0,0.0,0.0,0.0,0.0,0.0,0.0,0.0,0.0,0.0,0.0,0.0,0.0,0.0,0.0,0.0,0.0,0.0,0.0,0.0,0.0,0.0,0.0,0.0,0.0,0.0,0.0,0.0,0.0,0.0,0.0,0.0,0.0,0.0,0.0,0.0,0.0,0.0,0.0,0.0,0.0,0.0,0.0,0.0,0.0,0.0,0.0,0.0,0.0,0.0,0.0,0.0,0.0,0.0,-0.9263,0.0,-1.1575,0.0,-1.0452,-0.9627,0.0,0.0,0.0,0.0,0.0,0.0,0.0,0.0,0.0,0.0,0.0,0.0,0.0,0.0,0.0,0.0,0.0,0.0,0.0,0.0,0.0,0.0,0.0,0.0,0.0,0.0,0.0,0.0,0.0,0.0,0.0,0.0,0.0,0.0,0.0,0.0,0.0,0.0,0.0,0.0,0.0,0.0,0.0,0.0,0.0,0.0,0.0,0.0,0.0,0.0,0.0,0.0,0.0,0.0,0.0,0.0,0.0,0.0,0.0,0.0,0.0,0.0,0.0,0.0,0.0,0.0,0.0,0.0,0.0,0.0,0.0,0.0,0.0,0.0,0.0,0.0,0.0,0.0,0.0,0.0,0.0,0.0,0.0,0.0,0.0,0.0,0.0,0.0,0.0,0.0,0.0,0.0,0.0,0.0,0.0,0.0,0.0,0.0,0.0,0.0,0.0,0.0,0.0,0.0,0.0,0.0,0.0,0.0,-1.0051,-1.2589,-1.4745,-1.4939,-1.312,-1.207,-1.0435,0.0,0.0,0.0,0.0,0.0,0.0,0.0,0.0,0.0,0.0,0.0,0.0,0.0,0.0,0.0,0.0,0.0,0.0,0.0,0.0,0.0,0.0,0.0,0.0,0.0,0.0,0.0,0.0,0.0,0.0,0.0,0.0,0.0,0.0,0.0,0.0,0.0,0.0,0.0,0.0,0.0,0.0,0.0,0.0,0.0,0.0,0.0,0.0,0.0,0.0,0.0,0.0,0.0,0.0,0.0,0.0,0.0,0.0,0.0,0.0,0.0,0.0,0.0,0.0,0.0,0.0,0.0,0.0,0.0,0.0,0.0,0.0,0.0,0.0,0.0,0.0,0.0,0.0,0.0,0.0,0.0,0.0,0.0,0.0,0.0,0.0,0.0,0.0,0.0,0.0,0.0,0.0,0.0,0.0,0.0,0.0,0.0,0.0,0.0,0.0,0.0,0.0,0.0,0.0,0.0,0.0,0.0,0.0,0.0,-1.2927,-1.5449,-1.6676,-1.6214,-1.3138,-1.1499,0.0,0.0,0.0,0.0,0.0,0.0,0.0,0.0,0.0,0.0,0.0,0.0,0.0,0.0,0.0,0.0,0.0,0.0,0.0,0.0,0.0,0.0,0.0,0.0,0.0,0.0,0.0,0.0,0.0,0.0,0.0,0.0,0.0,0.0,0.0,0.0,0.0,0.0,0.0,0.0,0.0,0.0,0.0,0.0,0.0,0.0,0.0,0.0,0.0,0.0,0.0,0.0,0.0,0.0,0.0,0.0,0.0,0.0,0.0,0.0,0.0,0.0,0.0,0.0,0.0,0.0,0.0,0.0,0.0,0.0,0.0,0.0,0.0,0.0,0.0,0.0,0.0,0.0,0.0,0.0,0.0,0.0,0.0,0.0,0.0,0.0,0.0,0.0,0.0,0.0,0.0,0.0,0.0,0.0,0.0,0.0,0.0,0.0,0.0,0.0,0.0,0.0,0.0,0.0,0.0,0.0,0.0,0.0,0.0,-1.6563,-1.8502,-1.9339,-1.8747,-1.4741,-1.2577,-1.2484,0.0,0.0,0.0,0.0,0.0,0.0,0.0,0.0,0.0,0.0,0.0,0.0,0.0,0.0,0.0,0.0,0.0,0.0,0.0,0.0,0.0,0.0,0.0,0.0,0.0,0.0,0.0,0.0,0.0,0.0,0.0,0.0,0.0,0.0,0.0,0.0,0.0,0.0,0.0,0.0,0.0,0.0,0.0,0.0,0.0,0.0,0.0,0.0,0.0,0.0,0.0,0.0,0.0,0.0,0.0,0.0,0.0,0.0,0.0,0.0,0.0,0.0,0.0,0.0,0.0,0.0,0.0,0.0,0.0,0.0,0.0,0.0,0.0,0.0,0.0,0.0,0.0,0.0,0.0,0.0,0.0,0.0,0.0,0.0,0.0,0.0,0.0,0.0,0.0,0.0,0.0,0.0,0.0,0.0,0.0,0.0,0.0,0.0,0.0,0.0,0.0,0.0,0.0,0.0,0.0,0.0,0.0,0.0,-2.2446,-2.34,-2.2791,-2.055,-1.6773,-1.3799,0.0,0.0,0.0,0.0,0.0,0.0,0.0,0.0,0.0,0.0,0.0,0.0,0.0,0.0,0.0,0.0,0.0,0.0,0.0,0.0,0.0,0.0,0.0,0.0,0.0,0.0,0.0,0.0,0.0,0.0,0.0,0.0,0.0,0.0,0.0,0.0,0.0,0.0,0.0,0.0,0.0,0.0,0.0,0.0,0.0,0.0,0.0,0.0,0.0,0.0,0.0,0.0,0.0,0.0,0.0,0.0,0.0,0.0,0.0,0.0,0.0,0.0,0.0,0.0,0.0,0.0,0.0,0.0,0.0,0.0,0.0,0.0,0.0,0.0,0.0,0.0,0.0,0.0,0.0,0.0,0.0,0.0,0.0,0.0,0.0,0.0,0.0,0.0,0.0,0.0,0.0,0.0,0.0,0.0,0.0,0.0,0.0,0.0,0.0,0.0,0.0,0.0,0.0,0.0,0.0,0.0,0.0,0.0,0.0,-2.4348,-2.5766,-2.5356,-2.2907,-1.8996,-1.5874,0.0,0.0,0.0,0.0,0.0,0.0,0.0,0.0,0.0,0.0,0.0,0.0,0.0,0.0,0.0,0.0,0.0,0.0,0.0,0.0,0.0,0.0,0.0,0.0,0.0,0.0,0.0,0.0,0.0,0.0,0.0,0.0,0.0,0.0,0.0,0.0,0.0,0.0,0.0,0.0,0.0,0.0,0.0,0.0,0.0,0.0,0.0,0.0,0.0,0.0,0.0,0.0,0.0,0.0,0.0,0.0,0.0,0.0,0.0,0.0,0.0,0.0,0.0,0.0,0.0,0.0,0.0,0.0,0.0,0.0,0.0,0.0,0.0,0.0,0.0,0.0,0.0,0.0,0.0,0.0,0.0,0.0,0.0,0.0,0.0,0.0,0.0,0.0,0.0,0.0,0.0,0.0,0.0,0.0,0.0,0.0,0.0,0.0,0.0,0.0,0.0,0.0,0.0,0.0,0.0,0.0,0.0,0.0,-2.3958,-2.6726,-2.7834,-2.7409,-2.5403,-2.1069,-1.7606,0.0,0.0,0.0,0.0,0.0,0.0,0.0,0.0,0.0,0.0,0.0,0.0,0.0,0.0,0.0,0.0,0.0,0.0,0.0,0.0,0.0,0.0,0.0,0.0,0.0,0.0,0.0,0.0,0.0,0.0,0.0,0.0,0.0,0.0,0.0,0.0,0.0,0.0,0.0,0.0,0.0,0.0,0.0,0.0,0.0,0.0,0.0,0.0,0.0,0.0,0.0,0.0,0.0,0.0,0.0,0.0,0.0,0.0,0.0,0.0,0.0,0.0,0.0,0.0,0.0,0.0,0.0,0.0,0.0,0.0,0.0,0.0,0.0,0.0,0.0,0.0,0.0,0.0,0.0,0.0,0.0,0.0,0.0,0.0,0.0,0.0,0.0,0.0,0.0,0.0,0.0,0.0,0.0,0.0,0.0,0.0,0.0,0.0,0.0,0.0,0.0,0.0,0.0,0.0,0.0,0.0,0.0,0.0,-2.5013,-2.9004,-2.9457,-2.9016,-2.7621,-2.3033,-1.9203,0.0,0.0,0.0,0.0,0.0,0.0,0.0,0.0,0.0,0.0,0.0,0.0,0.0,0.0,0.0,0.0,0.0,0.0,0.0,0.0,0.0,0.0,0.0,0.0,0.0,0.0,0.0,0.0,0.0,0.0,0.0,0.0,0.0,0.0,0.0,0.0,0.0,0.0,0.0,0.0,0.0,0.0,0.0,0.0,0.0,0.0,0.0,0.0,0.0,0.0,0.0,0.0,0.0,0.0,0.0,0.0,0.0,0.0,0.0,0.0,0.0,0.0,0.0,0.0,0.0,0.0,0.0,0.0,0.0,0.0,0.0,0.0,0.0,0.0,0.0,0.0,0.0,0.0,0.0,0.0,0.0,0.0,0.0,0.0,0.0,0.0,0.0,0.0,0.0,0.0,0.0,0.0,0.0,0.0,0.0,0.0,0.0,0.0,0.0,0.0,0.0,0.0,0.0,0.0,0.0,0.0,0.0,0.0,-2.5775,-2.9082,-2.9698,-2.9641,-2.8924,-2.4789,-2.0974,0.0,0.0,0.0,0.0,0.0,0.0,0.0,0.0,0.0,0.0,0.0,0.0,0.0,0.0,0.0,0.0,0.0,0.0,0.0,0.0,0.0,0.0,0.0,0.0,0.0,0.0,0.0,0.0,0.0,0.0,0.0,0.0,0.0,0.0,0.0,0.0,0.0,0.0,0.0,0.0,0.0,0.0,0.0,0.0,0.0,0.0,0.0,0.0,-1.1622,0.0,0.0,0.0,0.0,0.0,0.0,0.0,0.0,0.0,0.0,0.0,0.0,0.0,0.0,0.0,0.0,0.0,0.0,0.0,0.0,0.0,0.0,0.0,0.0,0.0,0.0,0.0,0.0,0.0,0.0,0.0,0.0,0.0,0.0,0.0,0.0,0.0,0.0,0.0,0.0,0.0,0.0,0.0,0.0,0.0,0.0,0.0,0.0,0.0,0.0,0.0,0.0,0.0,0.0,0.0,0.0,0.0,0.0,0.0,-2.6794,-2.9751,-3.0051,-2.9915,-2.9373,-2.6686,-2.3098,0.0,0.0,0.0,0.0,0.0,0.0,0.0,0.0,0.0,0.0,0.0,0.0,0.0,0.0,0.0,0.0,0.0,0.0,0.0,0.0,0.0,0.0,0.0,0.0,0.0,0.0,0.0,0.0,0.0,0.0,0.0,0.0,0.0,0.0,0.0,0.0,0.0,0.0,0.0,0.0,0.0,0.0,0.0,0.0,0.0,0.0,0.0,0.0,0.0,0.0,0.0,0.0,0.0,0.0,0.0,0.0,0.0,0.0,0.0,0.0,0.0,0.0,0.0,0.0,0.0,0.0,0.0,0.0,0.0,0.0,0.0,0.0,0.0,0.0,0.0,0.0,0.0,0.0,0.0,0.0,0.0,0.0,0.0,0.0,0.0,0.0,0.0,0.0,0.0,0.0,0.0,0.0,0.0,0.0,0.0,0.0,0.0,0.0,0.0,0.0,0.0,0.0,0.0,0.0,0.0,0.0,0.0,-2.5097,-2.7436,-3.0436,-3.037,-3.006,-2.9671,-2.8343,-2.5034,-1.9575,0.0,0.0,0.0,0.0,0.0,0.0,0.0,0.0,0.0,0.0,0.0,0.0,0.0,0.0,0.0,0.0,0.0,0.0,0.0,0.0,0.0,0.0,0.0,0.0,0.0,0.0,0.0,0.0,0.0,0.0,0.0,0.0,0.0,0.0,0.0,0.0,0.0,0.0,-1.1916,-1.3043,0.0,0.0,0.0,0.0,0.0,0.0,0.0,0.0,-1.3211,0.0,0.0,0.0,0.0,0.0,0.0,0.0,0.0,0.0,0.0,0.0,0.0,0.0,0.0,0.0,0.0,0.0,0.0,0.0,0.0,0.0,0.0,0.0,0.0,0.0,0.0,0.0,0.0,0.0,0.0,0.0,0.0,0.0,0.0,0.0,0.0,0.0,0.0,0.0,0.0,0.0,0.0,0.0,0.0,0.0,0.0,0.0,0.0,0.0,0.0,0.0,0.0,0.0,0.0,0.0,0.0,-2.4779,-2.4439,-2.6277,-3.0477,-3.0564,-3.034,-2.9916,-2.8786,-2.5736,-2.0715,0.0,0.0,0.0,0.0,0.0,0.0,0.0,0.0,0.0,0.0,0.0,0.0,0.0,0.0,0.0,0.0,0.0,0.0,0.0,0.0,0.0,0.0,0.0,0.0,0.0,0.0,0.0,0.0,0.0,0.0,0.0,0.0,0.0,0.0,0.0,0.0,0.0,0.0,0.0,-1.4712,-1.5082,0.0,0.0,0.0,0.0,0.0,0.0,0.0,0.0,-1.4001,0.0,0.0,0.0,0.0,0.0,0.0,0.0,0.0,0.0,0.0,0.0,0.0,0.0,0.0,0.0,0.0,0.0,0.0,0.0,0.0,0.0,0.0,0.0,0.0,0.0,0.0,0.0,0.0,0.0,0.0,0.0,0.0,0.0,0.0,0.0,0.0,0.0,0.0,0.0,0.0,0.0,0.0,0.0,0.0,0.0,0.0,0.0,0.0,0.0,0.0,0.0,0.0,0.0,0.0,0.0,-2.429,-2.5987,-2.8006,-3.0508,-3.0579,-3.0365,-2.9999,-2.8597,-2.5679,0.0,0.0,0.0,0.0,0.0,0.0,0.0,0.0,0.0,0.0,0.0,0.0,0.0,0.0,0.0,0.0,0.0,0.0,0.0,0.0,0.0,0.0,0.0,0.0,0.0,0.0,0.0,0.0,0.0,0.0,0.0,0.0,0.0,0.0,0.0,0.0,0.0,0.0,0.0,0.0,-1.6494,-1.7152,-1.6686,0.0,0.0,0.0,0.0,0.0,0.0,-1.5452,-1.5068,0.0,0.0,0.0,0.0,0.0,0.0,0.0,0.0,0.0,0.0,0.0,0.0,0.0,0.0,0.0,0.0,0.0,0.0,0.0,0.0,0.0,0.0,0.0,0.0,0.0,0.0,0.0,0.0,0.0,0.0,0.0,0.0,0.0,0.0,0.0,0.0,0.0,0.0,0.0,0.0,0.0,0.0,0.0,0.0,0.0,0.0,0.0,0.0,0.0,0.0,0.0,0.0,0.0,0.0,0.0,-2.386,-2.7208,-2.9494,-3.0544,-3.0543,-3.0384,-3.0065,-2.8341,-2.5551,0.0,0.0,0.0,0.0,0.0,0.0,0.0,0.0,0.0,0.0,0.0,0.0,0.0,0.0,0.0,0.0,0.0,0.0,0.0,0.0,0.0,0.0,0.0,0.0,0.0,0.0,0.0,0.0,0.0,0.0,0.0,0.0,0.0,0.0,0.0,0.0,0.0,0.0,0.0,0.0,0.0,-1.9226,-1.8107,-1.8798,0.0,0.0,0.0,0.0,-1.7701,-1.7055,0.0,0.0,0.0,0.0,0.0,0.0,0.0,0.0,0.0,0.0,0.0,0.0,0.0,0.0,0.0,0.0,0.0,0.0,0.0,0.0,0.0,0.0,0.0,0.0,0.0,0.0,0.0,0.0,0.0,0.0,0.0,0.0,0.0,0.0,0.0,0.0,0.0,0.0,0.0,0.0,0.0,0.0,0.0,0.0,0.0,0.0,0.0,0.0,0.0,0.0,0.0,0.0,0.0,0.0,0.0,0.0,-2.3893,-2.5971,-2.8181,-3.0471,-3.0582,-3.0511,-3.0344,-2.838,-2.5952,0.0,0.0,0.0,0.0,0.0,0.0,0.0,0.0,0.0,0.0,0.0,0.0,0.0,0.0,0.0,0.0,0.0,0.0,0.0,0.0,0.0,0.0,0.0,0.0,0.0,0.0,0.0,0.0,0.0,0.0,0.0,0.0,0.0,0.0,0.0,0.0,0.0,0.0,0.0,0.0,0.0,-2.0852,-2.0741,-2.0264,-2.0006,0.0,0.0,-1.9202,-2.0934,-2.0009,0.0,0.0,0.0,0.0,0.0,0.0,0.0,0.0,0.0,0.0,0.0,0.0,0.0,0.0,0.0,0.0,0.0,0.0,0.0,0.0,0.0,0.0,0.0,0.0,0.0,0.0,0.0,0.0,0.0,0.0,0.0,0.0,0.0,0.0,0.0,0.0,0.0,0.0,0.0,0.0,0.0,0.0,0.0,0.0,0.0,0.0,0.0,0.0,0.0,0.0,0.0,0.0,0.0,0.0,0.0,-2.2107,-2.4775,-2.7548,-2.9518,-3.0608,-3.0607,-3.0579,-3.0515,-2.7735,-2.534,0.0,0.0,0.0,0.0,0.0,0.0,0.0,0.0,0.0,0.0,0.0,0.0,0.0,0.0,0.0,0.0,0.0,0.0,0.0,0.0,0.0,0.0,0.0,0.0,0.0,0.0,0.0,0.0,0.0,0.0,0.0,0.0,0.0,0.0,0.0,0.0,0.0,0.0,0.0,0.0,0.0,0.0,-2.2487,-2.2919,0.0,0.0,0.0,-2.1635,-2.2285,0.0,0.0,0.0,0.0,0.0,0.0,0.0,0.0,0.0,0.0,0.0,0.0,0.0,0.0,0.0,0.0,0.0,0.0,0.0,0.0,0.0,0.0,0.0,0.0,0.0,0.0,0.0,0.0,0.0,0.0,0.0,0.0,0.0,0.0,0.0,0.0,0.0,0.0,0.0,0.0,0.0,0.0,0.0,0.0,0.0,0.0,0.0,0.0,0.0,0.0,0.0,0.0,0.0,0.0,0.0,0.0,0.0,-2.4826,-2.869,-3.0718,-3.071,-3.0636,-3.0604,-3.0581,-2.7815,0.0,0.0,0.0,0.0,0.0,0.0,0.0,0.0,0.0,0.0,0.0,0.0,0.0,0.0,0.0,0.0,0.0,0.0,0.0,0.0,0.0,0.0,0.0,0.0,0.0,0.0,0.0,-1.1221,0.0,0.0,0.0,0.0,0.0,0.0,0.0,0.0,0.0,0.0,0.0,0.0,0.0,0.0,-2.3486,-2.3829,-2.51,-2.5958,0.0,0.0,-2.3844,-2.411,-2.3252,-2.2069,0.0,0.0,0.0,0.0,0.0,0.0,0.0,0.0,0.0,0.0,0.0,0.0,0.0,0.0,0.0,0.0,0.0,0.0,0.0,0.0,0.0,0.0,0.0,0.0,0.0,0.0,0.0,0.0,0.0,0.0,0.0,0.0,0.0,0.0,0.0,0.0,0.0,0.0,0.0,0.0,0.0,0.0,0.0,0.0,0.0,0.0,0.0,0.0,0.0,0.0,0.0,0.0,0.0,0.0,-2.296,-2.3248,-2.8166,-3.0761,-3.0702,-3.0696,-3.0706,-3.0684,-2.9482,-2.7586,0.0,0.0,0.0,0.0,0.0,0.0,0.0,0.0,0.0,0.0,0.0,0.0,0.0,0.0,0.0,0.0,0.0,0.0,0.0,0.0,0.0,0.0,0.0,0.0,0.0,0.0,0.0,0.0,0.0,0.0,0.0,0.0,0.0,0.0,0.0,0.0,0.0,0.0,0.0,0.0,0.0,-2.4241,-2.4822,-2.6001,-2.718,0.0,-2.6399,-2.5648,-2.753,-2.6352,-2.4887,-2.3837,0.0,0.0,0.0,0.0,0.0,0.0,0.0,0.0,0.0,0.0,0.0,0.0,0.0,0.0,0.0,0.0,0.0,0.0,0.0,0.0,0.0,0.0,0.0,0.0,0.0,0.0,0.0,0.0,0.0,0.0,0.0,0.0,0.0,0.0,0.0,0.0,0.0,0.0,0.0,0.0,0.0,0.0,0.0,0.0,0.0,0.0,0.0,0.0,0.0,0.0,0.0,0.0,0.0,-2.3483,-2.4597,-2.8678,-3.0798,-3.082,-3.0776,-3.077,-3.0765,-2.9329,-2.7751,0.0,0.0,0.0,0.0,0.0,0.0,0.0,0.0,0.0,0.0,0.0,0.0,0.0,0.0,0.0,0.0,0.0,0.0,0.0,0.0,0.0,0.0,0.0,0.0,0.0,0.0,0.0,0.0,-1.4112,-1.4071,-1.3891,0.0,0.0,0.0,0.0,0.0,0.0,0.0,0.0,0.0,0.0,-2.5486,-2.6953,-2.796,0.0,0.0,-2.8032,-2.7403,-2.8517,-2.7211,-2.5667,-2.4495,-2.3226,0.0,0.0,0.0,0.0,0.0,0.0,0.0,0.0,0.0,0.0,0.0,0.0,0.0,0.0,0.0,0.0,0.0,0.0,0.0,0.0,0.0,0.0,0.0,0.0,0.0,0.0,0.0,0.0,0.0,0.0,0.0,0.0,0.0,0.0,0.0,0.0,0.0,0.0,0.0,0.0,0.0,0.0,0.0,0.0,0.0,0.0,0.0,0.0,0.0,0.0,0.0,0.0,-2.3968,-2.5244,-2.8906,-3.0817,-3.0851,-3.082,-3.0801,-3.0761,-2.9609,-2.8389,0.0,0.0,0.0,0.0,0.0,0.0,0.0,0.0,0.0,0.0,0.0,0.0,0.0,0.0,0.0,0.0,0.0,0.0,0.0,0.0,0.0,0.0,0.0,0.0,0.0,0.0,0.0,0.0,-1.4739,-1.4834,-1.461,0.0,0.0,0.0,0.0,0.0,0.0,0.0,0.0,0.0,0.0,-2.6763,-2.8347,-2.9279,-2.9842,-2.9913,-2.9262,-2.8849,-2.9161,-2.8186,-2.6977,-2.5768,0.0,0.0,0.0,0.0,0.0,0.0,0.0,0.0,0.0,0.0,0.0,0.0,0.0,0.0,0.0,0.0,0.0,0.0,0.0,0.0,0.0,0.0,0.0,0.0,0.0,0.0,0.0,-1.1308,0.0,0.0,-1.0048,0.0,0.0,0.0,0.0,0.0,0.0,0.0,0.0,0.0,0.0,0.0,0.0,0.0,0.0,0.0,0.0,0.0,0.0,0.0,0.0,0.0,0.0,-2.4277,-2.4511,-2.8685,-3.0807,-3.0835,-3.0797,-3.0819,-3.082,-3.0758,-2.986,-2.8005,0.0,0.0,0.0,0.0,0.0,0.0,0.0,0.0,0.0,0.0,0.0,0.0,0.0,0.0,0.0,0.0,0.0,0.0,0.0,0.0,0.0,0.0,0.0,0.0,0.0,0.0,-1.4513,-1.5309,-1.5815,0.0,0.0,0.0,0.0,0.0,0.0,0.0,0.0,0.0,-2.4357,-2.6419,-2.8002,-2.8734,-2.9678,-3.026,-3.0091,-2.9999,-2.9897,-2.9698,-2.9596,-2.9279,0.0,0.0,0.0,0.0,0.0,0.0,0.0,0.0,0.0,0.0,0.0,0.0,0.0,0.0,0.0,0.0,0.0,0.0,0.0,0.0,0.0,0.0,0.0,0.0,0.0,0.0,0.0,-1.2649,-1.3086,0.0,0.0,0.0,0.0,0.0,0.0,0.0,0.0,0.0,0.0,0.0,-2.2343,-2.3441,0.0,0.0,0.0,0.0,0.0,0.0,0.0,0.0,0.0,0.0,0.0,0.0,-2.4875,-2.6242,-2.9743,-3.1622,-3.1656,-3.1677,-3.1659,-3.166,-3.1108,-2.9915,-2.8046,0.0,0.0,0.0,0.0,0.0,0.0,0.0,0.0,0.0,0.0,0.0,0.0,0.0,0.0,0.0,0.0,0.0,0.0,0.0,0.0,0.0,0.0,0.0,0.0,0.0,-1.5772,0.0,0.0,0.0,0.0,0.0,0.0,0.0,0.0,0.0,0.0,0.0,-2.5202,-2.6498,-2.7824,-2.9151,-3.0538,-3.1018,-3.1392,0.0,0.0,0.0,0.0,0.0,0.0,0.0,0.0,0.0,0.0,0.0,0.0,0.0,0.0,-2.373,-2.1246,-2.0386,-1.9549,-1.7946,0.0,0.0,0.0,0.0,0.0,0.0,0.0,0.0,0.0,0.0,0.0,0.0,0.0,0.0,-1.6308,-1.6908,-1.5309,0.0,0.0,0.0,0.0,0.0,0.0,0.0,0.0,-2.4551,-2.6269,-2.6109,-2.7174,-2.7029,-2.5831,-2.5711,-2.388,0.0,0.0,0.0,0.0,0.0,0.0,0.0,0.0,-2.5896,-2.744,-3.0402,-3.2138,-3.2505,-3.2536,-3.2421,-3.2089,-3.1235,-3.0045,-2.8538,-2.652,-2.4622,0.0,0.0,0.0,0.0,0.0,0.0,0.0,0.0,0.0,0.0,0.0,0.0,0.0,0.0,0.0,0.0,0.0,0.0,0.0,0.0,0.0,0.0,0.0,-1.7001,0.0,0.0,0.0,0.0,0.0,0.0,0.0,0.0,0.0,-2.2633,-2.5302,-2.7684,-2.8945,-2.9708,-3.0524,-3.157,0.0,0.0,0.0,0.0,0.0,0.0,0.0,-2.8407,-2.7899,-2.805,-2.8339,-2.8795,-3.0214,-3.1204,-3.0876,0.0,0.0,-2.4581,-2.3549,-2.2757,-2.1192,-2.2667,-2.3741,-2.2271,-2.3464,-2.457,0.0,0.0,0.0,0.0,-2.034,0.0,0.0,0.0,-2.1747,-2.1816,0.0,-1.9373,0.0,0.0,0.0,0.0,-1.8234,-2.2165,0.0,0.0,-3.0361,-3.1903,-3.0245,-3.0219,-3.0138,-2.995,-2.9391,-2.8648,-2.7629,-2.4708,0.0,0.0,0.0,0.0,0.0,0.0,-2.7269,-2.8246,-3.0733,-3.2438,-3.3306,-3.3411,-3.3027,-3.2127,-3.1186,-3.0314,-2.9444,-2.8522,-2.7238,-2.5537,-2.3691,0.0,0.0,0.0,0.0,0.0,0.0,0.0,0.0,0.0,0.0,0.0,0.0,0.0,0.0,0.0,0.0,0.0,0.0,0.0,0.0,-1.7486,0.0,0.0,0.0,0.0,0.0,0.0,0.0,0.0,0.0,0.0,-2.6196,-2.8023,-2.991,-3.1484,0.0,0.0,0.0,0.0,-3.0436,-3.0333,-3.0224,-3.0205,-3.0224,-3.0825,-3.135,-3.1437,0.0,0.0,-3.1932,-3.2592,-3.2926,-3.2048,-3.244,-3.1907,-2.8176,-2.6065,-2.4783,-2.4633,-2.5241,-2.5593,-2.5703,-2.6386,-2.6776,-2.9011,0.0,0.0,0.0,0.0,-2.3145,-2.3266,-2.4171,-2.2757,-2.2665,-2.3445,-2.1937,0.0,0.0,0.0,0.0,0.0,0.0,-2.6561,-2.7892,-3.055,-3.1971,-3.2402,-3.3034,-3.2899,-3.2115,-3.2219,-3.1854,-3.1065,-3.0425,-2.8062,-2.4096,0.0,0.0,0.0,0.0,-2.839,-2.9947,-3.2431,-3.3907,-3.4157,-3.4266,-3.359,-3.2058,-3.1146,-3.0594,-3.0321,-2.9489,-2.8454,-2.7291,-2.503,0.0,0.0,0.0,0.0,0.0,0.0,0.0,0.0,0.0,0.0,0.0,0.0,0.0,0.0,0.0,0.0,0.0,0.0,0.0,-1.9203,-1.9968,-2.0823,0.0,0.0,0.0,0.0,0.0,0.0,0.0,0.0,0.0,-2.9958,-3.0184,-3.0317,0.0,0.0,-3.12,-3.1648,-3.202,-3.2424,-3.2879,-3.2436,0.0,-3.2025,-3.1238,-3.0618,-3.0605,-3.1881,-3.2854,-3.2753,-3.3427,-3.3907,-3.3606,-3.3267,-3.2631,-3.1675,-3.0972,-3.015,-2.9236,-2.9775,-3.0331,-2.9723,-3.0227,-3.06,-3.3365,-3.0457,-2.8711,-2.7811,-2.7452,-2.6462,-2.6693,-2.7718,-2.6702,-2.6806,-2.7587,-2.622,-2.5861,-2.6232,-2.5636,0.0,0.0,0.0,-3.0249,-3.1792,-3.3054,-3.4036,-3.4734,-3.527,-3.5149,-3.4494,-3.4462,-3.4254,-3.3845,-3.319,-3.14,-2.8519,0.0,-2.6723,-2.7103,-2.8679,-3.0171,-3.1554,-3.3462,-3.4629,-3.4977,-3.4809,-3.4014,-3.257,-3.1675,-3.1057,-3.068,-3.011,-2.9381,-2.8438,-2.6337,-2.4336,0.0,0.0,0.0,0.0,0.0,0.0,0.0,0.0,0.0,0.0,0.0,-1.7588,-1.7043,0.0,0.0,0.0,-1.9297,-2.0389,-2.167,-2.1992,0.0,0.0,0.0,0.0,0.0,0.0,0.0,-2.7303,-2.8667,-3.0118,-3.165,-3.1656,-3.1815,-3.2586,-3.2405,-3.2368,-3.2745,0.0,-3.3131,-3.3519,-3.3125,-3.2759,-3.2807,-3.2269,-3.1954,-3.2352,-3.331,-3.4089,-3.4202,-3.4598,-3.4875,-3.4768,-3.4381,-3.4002,-3.3983,-3.403,-3.3552,-3.1966,-3.2246,-3.2518,-3.1757,-3.207,-3.2288,-3.6324,-3.5337,-3.2468,-3.0724,-2.9889,-2.9945,-3.0714,-3.1958,-3.2086,-3.2635,-3.324,-3.1352,-3.093,-3.1618,-3.0331,0.0,-3.0798,-3.2999,-3.4774,-3.6282,-3.6885,-3.7077,-3.6893,-3.6863,-3.6814,-3.6662,-3.6164,-3.5988,-3.6063,-3.4116,-3.3146,-3.3176,-3.2457,-3.1192,-2.9569,-3.0994,-3.2196,-3.3004,-3.3926,-3.4844,-3.5685,-3.4981,-3.4202,-3.3319,-3.2389,-3.1482,-3.0649,-3.0472,-3.0048,-2.9209,-2.7593,-2.5939,-2.4273,0.0,0.0,0.0,0.0,0.0,0.0,0.0,0.0,0.0,0.0,0.0,0.0,0.0,0.0,0.0,-2.127,0.0,-2.452,-2.38,0.0,0.0,0.0,-2.6529,-2.912,-2.9413,-2.9773,-3.0609,0.0,0.0,-3.2099,-3.2803,-3.402,-3.5947,-3.5325,-3.4674,-3.461,-3.3906,-3.3263,-3.3226,-3.3095,-3.3074,-3.3255,-3.3749,-3.4468,-3.5313,-3.5867,-3.578,-3.5769,-3.5772,-3.5725,-3.5568,-3.5537,-3.5438,-3.547,-3.5397,-3.5055,-3.3572,-3.3216,-3.3038,-3.2727,-3.259,-3.2572,-3.7676,-3.6365,-3.5597,-3.4095,-3.2206,-3.2218,-3.2065,-3.1857,-3.1882,-3.2504,-3.3516,-3.3018,-3.3393,-3.446,-3.4765,-3.4868,-3.4901,-3.6083,-3.663,-3.6746,-3.6906,-3.69,-3.6745,-3.6763,-3.6738,-3.6712,-3.6706,-3.6817,-3.6992,-3.6631,-3.591,-3.495,-3.471,-3.3137,-3.0361,-3.126,-3.2182,-3.2981,-3.3973,-3.4957,-3.5855,-3.4476,-3.3597,-3.3377,-3.1829,-3.0918,-3.0682,-3.0521,-3.037,-3.0206,-2.8555,-2.7144,-2.6154,-2.3114,0.0,0.0,0.0,0.0,0.0,0.0,0.0,0.0,0.0,-2.0557,-1.9918,0.0,-2.2952,0.0,-2.3161,-2.4687,-2.6971,-2.6406,0.0,0.0,-2.8867,-2.8867,-3.0074,-3.0912,-3.1461,-3.159,-3.2355,-3.3377,-3.4613,-3.4997,-3.5833,-3.7583,-3.5975,-3.4736,-3.5298,-3.5822,-3.5782,-3.5141,-3.5471,-3.5737,-3.5093,-3.5219,-3.553,-3.588,-3.5929,-3.5885,-3.5892,-3.5843,-3.5768,-3.5636,-3.5554,-3.5495,-3.5483,-3.5535,-3.5474,-3.5083,-3.4941,-3.4731,-3.4267,-3.4102,-3.3901,-3.8349,-3.7243,-3.7185,-3.5826,-3.3682,-3.3992,-3.3875,-3.3503,-3.3819,-3.418,-3.454,-3.4718,-3.5244,-3.6051,-3.7146,-3.7571,-3.7462,-3.8069,-3.8229,-3.8022,-3.7935,-3.7832,-3.7777,-3.7764,-3.7764,-3.7758,-3.7516,-3.7549,-3.7854,-3.7614,-3.7184,-3.6613,-3.662,-3.5316,-3.2822,-3.2471,-3.2563,-3.2998,-3.3992,-3.4974,-3.5878,-3.4659,-3.3612,-3.2813,-3.149,-3.057,-3.0175,-2.9619,-2.9501,-2.9911,-2.8314,-2.7174,-2.6725,-2.4294,-2.2654,0.0,0.0,0.0,0.0,0.0,0.0,0.0,0.0,0.0,0.0,0.0,-2.4923,-2.5198,-2.6093,-2.7386,-2.9091,-2.8818,-2.9241,-3.0934,-3.0705,-3.0955,-3.2175,-3.2806,-3.3258,-3.3589,-3.4391,-3.5269,-3.613,-3.6618,-3.7428,-3.8835,-3.7783,-3.6884,-3.6965,-3.7365,-3.7439,-3.6954,-3.6931,-3.6736,-3.5903,-3.5855,-3.5909,-3.5968,-3.5949,-3.594,-3.5929,-3.588,-3.5767,-3.565,-3.5568,-3.5495,-3.5464,-3.5488,-3.5552,-3.5552,-3.5546,-3.5387,-3.4971,-3.4794,-3.4524,-3.8586,-3.7912,-3.7942,-3.6805,-3.4988,-3.5795,-3.5739,-3.5125,-3.582,-3.6017,-3.5833,-3.6482,-3.6918,-3.726,-3.844,-3.8946,-3.8953,-3.9248,-3.9395,-3.935,-3.9165,-3.9101,-3.9101,-3.9101,-3.9101,-3.9064,-3.8409,-3.829,-3.8715,-3.7997,-3.7765,-3.8007,-3.8015,-3.7165,-3.5527,-3.4071,-3.3296,-3.3197,-3.424,-3.5164,-3.5861,-3.4985,-3.3729,-3.2177,-3.1254,-3.0375,-2.9528,-2.8563,-2.8375,-2.8949,-2.7542,-2.6746,-2.6807,-2.5313,-2.4521,0.0,-2.3864,0.0,0.0,0.0,0.0,0.0,0.0,0.0,0.0,-2.595,-2.6775,-2.8454,-2.9346,-3.0207,-3.111,-3.1092,-3.1407,-3.2327,-3.227,-3.2824,-3.4487,-3.4742,-3.5048,-3.5875,-3.6715,-3.7207,-3.7304,-3.7956,-3.8767,-3.9657,-3.9803,-3.9492,-3.9041,-3.885,-3.8751,-3.8624,-3.7796,-3.7121,-3.6557,-3.638,-3.6357,-3.6235,-3.6233,-3.6134,-3.6005,-3.5897,-3.5791,-3.5717,-3.5611,-3.5518,-3.5437,-3.5483,-3.5525,-3.5519,-3.5557,-3.5485,-3.5193,-3.494,-3.4823,-3.8604,-3.7968,-3.8586,-3.8228,-3.7389,-3.8868,-3.6932,-3.2838,-3.2977,-3.4231,-3.6321,-3.8452,-3.9516,-3.9775,-3.9833,-3.9763,-3.961,-3.9482,-3.9298,-3.9156,-3.9115,-3.9101,-3.9101,-3.9101,-3.9101,-3.9082,-3.8989,-3.9183,-3.957,-3.9461,-3.8956,-3.811,-3.8078,-3.7263,-3.5659,0.0,0.0,0.0,-3.5718,-3.6278,-3.5794,-3.4339,-3.3098,-3.212,-3.1209,0.0,-2.9458,-2.9125,-2.8747,-2.8299,-2.7243,0.0,0.0,0.0,0.0,0.0,0.0,0.0,0.0,0.0,0.0,0.0,-2.7381,-2.705,-2.664,-2.7851,-2.9405,-3.1086,-3.1419,-3.2138,-3.3615,-3.3184,-3.3386,-3.4715,-3.4372,-3.4381,-3.5313,-3.6109,-3.6679,-3.6846,-3.7479,-3.8183,-3.8829,-3.9131,-3.9557,-4.0443,-4.0725,-4.073,-4.0605,-4.0508,-4.0312,-3.9645,-3.8767,-3.8262,-3.8113,-3.7975,-3.7663,-3.7251,-3.7056,-3.6799,-3.6241,-3.6024,-3.5883,-3.5866,-3.5698,-3.5655,-3.5585,-3.5614,-3.563,-3.5593,-3.5588,-3.553,-3.5297,-3.518,-3.5078,-3.9733,-3.9751,-4.016,-3.9695,0.0,-3.9554,-3.7891,-3.4733,-3.6206,-3.7444,-3.8564,-3.9922,-4.0618,-4.0701,-3.9713,-3.9215,-3.9037,-3.7617,-3.7343,-3.7955,-3.7973,-3.8375,-3.9082,-3.9232,-3.9298,-3.9298,-3.9427,-3.9671,-3.9983,-4.0051,-3.9802,-3.9283,-3.9283,-3.8677,-3.7519,-3.7497,-3.6906,-3.5658,-3.6491,-3.6968,-3.6929,-3.5745,-3.4485,-3.3271,-3.2384,0.0,0.0,0.0,0.0,0.0,0.0,0.0,0.0,0.0,0.0,-2.7153,-2.7223,-2.727,-2.7297,-2.778,-2.848,-2.9375,-2.9838,-2.9705,-2.8805,-3.0675,-3.226,-3.3141,-3.3621,-3.4208,-3.5006,-3.4765,-3.4846,-3.5577,-3.5361,-3.5485,-3.6284,-3.6844,-3.7265,-3.7666,-3.833,-3.8958,-3.9248,-3.972,-4.0136,-4.0708,-4.0879,-4.0971,-4.1039,-4.1037,-4.0735,-3.994,-3.9511,-3.9055,-3.8676,-3.8574,-3.8452,-3.8021,-3.7944,-3.7767,-3.737,-3.7262,-3.7208,-3.7077,-3.6732,-3.6367,-3.6221,-3.594,-3.5614,-3.5558,-3.5602,-3.5621,-3.5513,-3.5424,-3.5322,-4.101,-4.159,-4.1739,-4.1101,-4.0008,-4.0176,-3.9494,-3.8452,-4.0388,0.0,0.0,-4.0972,-4.1217,-4.1181,-3.9762,-3.9105,-3.8998,-3.6892,-3.6599,-3.776,-3.7791,-3.8384,-3.9445,-3.9683,-3.9719,-3.9568,-3.9739,-3.9962,-4.0177,-4.0214,-4.0332,-4.0481,-4.0519,-4.0232,-3.9683,-3.9708,-3.9021,-3.7655,-3.745,-3.7636,-3.8133,-3.7345,-3.6173,-3.4661,-3.3964,-3.305,-3.1871,-3.1171,-3.0589,-3.019,-2.9549,-2.8958,-2.8472,-2.9082,-2.92,-2.8705,-2.936,-2.9831,-2.9833,-2.9982,-3.0396,-3.1117,-3.2088,-3.2313,-3.1444,-3.3297,-3.4579,-3.4711,-3.5387,-3.5795,-3.5795,-3.5795,-3.5872,-3.6008,-3.6028,-3.639,-3.7272,-3.7554,-3.7928,-3.8419,-3.9157,-3.9592,-3.9438,-3.9992,-4.0539,-4.0661,-4.0775,-4.0879,-4.0944,-4.0983,-4.0794,-4.0206,-4.0057,-3.9804,-3.927,-3.9129,-3.899,-3.8887,-3.8832,-3.8775,-3.8633,-3.8611,-3.8541,-3.8317,-3.7795,-3.7401,-3.7166,-3.6668,-3.6013,-3.5804,-3.5825,-3.5857,-3.5728,-3.5626,-3.5551,-4.1497,-4.1664,-4.2352,-4.2515,-4.2378,-4.3066,-4.3233,-4.2854,-4.0682,-3.9714,-3.9856,-4.1205,-4.203,-4.2417,-4.1957,-4.1895,-4.2056,-4.1524,-4.1404,-4.1609,-4.1601,-4.1332,-4.0844,-4.084,-4.0473,-3.9791,-3.9848,-3.9992,-4.0196,-4.0261,-4.0358,-4.0496,-4.0612,-4.0636,-4.061,-4.0607,-4.0488,-4.0232,-3.9522,-3.8794,-3.8125,-3.7328,-3.6477,-3.5582,-3.5266,-3.4333,-3.2798,-3.2462,-3.1614,-3.0207,-3.0016,-3.0166,-3.0693,-3.0864,-3.1156,-3.1708,-3.2045,-3.223,-3.2301,-3.2531,-3.2749,-3.3,-3.4428,-3.4971,-3.4158,-3.4302,-3.4808,-3.5527,-3.5717,-3.5795,-3.5795,-3.5834,-3.6125,-3.6789,-3.6906,-3.7265,-3.8131,-3.885,-3.9277,-3.9388,-3.9908,-4.0262,-4.0226,-4.0338,-4.048,-4.0641,-4.0711,-4.0688,-4.0777,-4.0898,-4.0959,-4.0863,-4.0869,-4.0859,-4.0601,-4.0735,-4.0362,-3.9812,-3.9714,-3.9498,-3.8926,-3.8825,-3.8783,-3.8644,-3.8502,-3.8348,-3.8212,-3.8082,-3.7462,-3.6839,-3.6649,-3.6544,-3.5887,-3.5741,-3.5778,-4.25,-4.2927,-4.3299,-4.3448,-4.3485,-4.3838,-4.4005,-4.3875,-4.2534,-4.1931,-4.2081,-4.2883,-4.3389,-4.3502,-4.2318,-4.1808,-4.1903,-4.0538,-4.0355,-4.1121,-4.114,-4.1383,-4.1794,-4.1903,-4.1518,-4.0718,-4.0864,-4.0746,-4.0394,-4.0392,-4.0441,-4.0504,-4.0668,-4.079,-4.0854,-4.0928,-4.0921,-4.0833,-4.0389,-3.9939,-3.9522,-3.909,-3.8472,-3.7675,-3.7495,-3.6777,-3.5457,-3.5285,-3.4592,-3.3298,-3.326,-3.3204,-3.3101,-3.3554,-3.3573,-3.3138,-3.4126,-3.4401,-3.3544,-3.3752,-3.414,-3.4673,-3.5004,-3.5277,-3.5331,-3.5256,-3.5367,-3.5756,-3.5795,-3.5795,-3.5814,-3.6222,-3.6653,-3.7042,-3.7508,-3.8159,-3.8955,-3.9413,-3.985,-4.0175,-4.035,-4.0422,-4.035,-4.0364,-4.0439,-4.0575,-4.07,-4.0835,-4.0836,-4.0935,-4.0983,-4.0986,-4.1056,-4.1092,-4.1111,-4.111,-4.0933,-4.0598,-4.0558,-4.0399,-4.0003,-3.9941,-3.9938,-3.9918,-3.9606,-3.9261,-3.9104,-3.8666,-3.8008,-3.7223,-3.7,-3.6701,-3.6036,-3.5843,-3.5869,-4.3429,-4.4005,-4.4005,-4.4051,-4.4094,-4.4151,-4.4166,-4.4151,-4.4087,-4.4079,-4.4091,-4.4308,-4.4411,-4.4312,-4.283,-4.2216,-4.2,-4.0394,-4.0241,-4.1256,-4.1342,-4.1875,-4.2766,-4.2986,-4.2508,-4.1618,-4.1692,-4.1354,-4.0593,-4.0496,-4.0527,-4.0586,-4.0724,-4.0849,-4.0957,-4.1055,-4.1045,-4.0944,-4.0824,-4.0744,-4.0694,-4.0579,-4.0189,-3.9623,-3.938,-3.8839,-3.7871,-3.7675,-3.7165,-3.6258,-3.6186,-3.5896,-3.5313,-3.5865,-3.5692,-3.4697,-3.5845,-3.6119,-3.4901,-3.5088,-3.5546,-3.6111,-3.5794,-3.5836,-3.6368,-3.6239,-3.5986,-3.5857,-3.6008,-3.6125,-3.6222,-3.6906,-3.7469,-3.7683,-3.8224,-3.8966,-3.9762,-3.9941,-4.0115,-4.0644,-4.0639,-4.0481,-4.0372,-4.0402,-4.0513,-4.0622,-4.082,-4.0981,-4.0964,-4.0972,-4.1027,-4.1035,-4.1054,-4.109,-4.1113,-4.1132,-4.1111,-4.1108,-4.1087,-4.1006,-4.0981,-4.1054,-4.107,-4.0934,-4.0522,-4.0143,-3.9979,-3.955,-3.8783,-3.8035,-3.7884,-3.7542,-3.6779,-3.6376,-3.6106,-4.3931,-4.3986,-4.4005,-4.4151,-4.4388,-4.4599,-4.4663,-4.4604,-4.4425,-4.4332,-4.4279,-4.4289,-4.4465,-4.4745,-4.4692,-4.4784,-4.5024,-4.4953,-4.4829,-4.4916,-4.5079,-4.4743,-4.414,-4.4147,-4.331,-4.1975,-4.1838,-4.1431,-4.0612,-4.0516,-4.0581,-4.0748,-4.0804,-4.0896,-4.1058,-4.1103,-4.1096,-4.1085,-4.1007,-4.0897,-4.0706,-4.0579,-4.0458,-4.0392,-4.007,-3.9537,-3.8699,-3.8368,-3.7836,-3.7091,-3.6998,-3.696,-3.6885,-3.6953,-3.6968,-3.6836,-3.7143,-3.7067,-3.6676,-3.732,-3.7506,-3.7108,-3.7648,-3.8044,-3.8126,-3.7442,-3.6641,-3.6184,-3.6556,-3.6906,-3.7023,-3.7761,-3.8538,-3.9155,-3.9314,-3.9648,-4.038,-4.061,-4.0624,-4.0617,-4.0637,-4.0668,-4.0617,-4.0636,-4.0695,-4.0762,-4.0905,-4.0998,-4.0928,-4.1009,-4.1095,-4.1097,-4.1099,-4.1126,-4.1152,-4.1191,-4.1151,-4.1108,-4.1107,-4.1103,-4.1115,-4.1111,-4.1109,-4.109,-4.1031,-4.0852,-4.0865,-4.0791,-4.0374,-3.9327,-3.9098,-3.9126,-3.8376,-3.7593,-3.6926,-4.4005,-4.4002,-4.4162,-4.4374,-4.4572,-4.4688,-4.4714,-4.4676,-4.4498,-4.4388,-4.4341,-4.4318,-4.4383,-4.4604,-4.4985,-4.5232,-4.5381,-4.5522,-4.5594,-4.5594,-4.5559,-4.5376,-4.5105,-4.5021,-4.4387,-4.3288,-4.2797,-4.2124,-4.1296,-4.0746,-4.0595,-4.0771,-4.0798,-4.0911,-4.1089,-4.1108,-4.11,-4.1111,-4.1042,-4.0921,-4.077,-4.0662,-4.0523,-4.0311,-4.0072,-3.9777,-3.9367,-3.9117,-3.8864,-3.8613,-3.8575,-3.8575,-3.8575,-3.8644,-3.8478,-3.8091,-3.8222,-3.8512,-3.8846,-3.8872,-3.8748,-3.8463,-3.8488,-3.852,-3.8498,-3.8145,-3.7752,-3.7431,-3.7214,-3.7294,-3.7858,-3.8654,-3.9334,-3.9694,-4.0029,-4.0389,-4.0648,-4.0711,-4.0696,-4.0654,-4.052,-4.0489,-4.0656,-4.0732,-4.081,-4.0896,-4.1035,-4.1074,-4.1055,-4.1104,-4.113,-4.1113,-4.1113,-4.1113,-4.1152,-4.1152,-4.1131,-4.1108,-4.1104,-4.1099,-4.1116,-4.1111,-4.1109,-4.1109,-4.1109,-4.1109,-4.1069,-4.1025,-4.0797,-4.0071,-3.9271,-3.8943,-3.8571,-3.8231,-3.7652,-4.4005,-4.4048,-4.4346,-4.4624,-4.4825,-4.4872,-4.4896,-4.4872,-4.4612,-4.4419,-4.4304,-4.4121,-4.4001,-4.4087,-4.4726,-4.5126,-4.5222,-4.541,-4.5541,-4.5577,-4.5466,-4.5438,-4.5466,-4.5352,-4.4921,-4.4209,-4.3576,-4.2795,-4.1838,-4.12,-4.0824,-4.0788,-4.0779,-4.0849,-4.1006,-4.1033,-4.1006,-4.1011,-4.0951,-4.0889,-4.0786,-4.0723,-4.054,-4.0213,-4.0002,-3.9835,-3.9705,-3.957,-3.9533,-3.9589,-3.9608,-3.9608,-3.962,-3.972,-3.9553,-3.905,-3.9137,-3.9517,-4.0173,-3.9835,-3.9631,-3.9689,-3.9322,-3.915,-3.9134,-3.8974,-3.8916,-3.9029,-3.8283,-3.8127,-3.8656,-3.9514,-3.998,-4.0049,-4.0568,-4.0787,-4.0674,-4.0643,-4.061,-4.0587,-4.0419,-4.0364,-4.0627,-4.0759,-4.0839,-4.1011,-4.1133,-4.1191,-4.1191,-4.1191,-4.1191,-4.1112,-4.1111,-4.1111,-4.1111,-4.111,-4.1109,-4.1106,-4.1101,-4.1098,-4.1116,-4.1111,-4.1109,-4.1109,-4.1109,-4.1109,-4.1109,-4.1049,-4.0991,-4.0327,-3.9702,-3.9309,-3.9455,-3.9095,-3.8676,-4.4005,-4.4097,-4.4498,-4.4868,-4.5199,-4.5302,-4.5371,-4.5351,-4.4872,-4.4463,-4.4082,-4.3634,-4.3248,-4.3014,-4.4152,-4.4872,-4.514,-4.5201,-4.5313,-4.5513,-4.5322,-4.5192,-4.5182,-4.4943,-4.4536,-4.4094,-4.3875,-4.3139,-4.1896,-4.1758,-4.1378,-4.0777,-4.0726,-4.0754,-4.082,-4.0839,-4.0824,-4.0837,-4.0824,-4.0786,-4.0711,-4.0719,-4.054,-4.0204,-4.0002,-3.9816,-3.9693,-3.9577,-3.9533,-3.9608,-3.9608,-3.9608,-3.9614,-3.9731,-3.9791,-3.9789,-3.9829,-3.9882,-3.9983,-4.0024,-4.0136,-4.0417,-4.0456,-4.0675,-4.0583,-4.0048,-3.995,-4.0649,-3.9845,-3.9465,-3.9591,-4.0218,-4.0703,-4.0682,-4.069,-4.0706,-4.0617,-4.0528,-4.0435,-4.0431,-4.04,-4.0442,-4.0583,-4.0711,-4.0866,-4.1031,-4.1168,-4.123,-4.125,-4.123,-4.1348,-4.1248,-4.1189,-4.113,-4.1128,-4.1107,-4.1105,-4.1101,-4.1117,-4.1116,-4.1112,-4.1109,-4.1109,-4.1109,-4.1109,-4.1109,-4.1109,-4.1109,-4.109,-4.0855,-4.0797,-4.0616,-4.0338,-4.0071,-3.963,-4.4513,-4.5237,-4.4868,-4.5233,-4.6007,-4.5609,-4.535,-4.5167,-4.4575,-4.4154,-4.3828,-4.328,-4.2922,-4.2829,-4.3262,-4.3785,-4.4325,-4.4738,-4.5007,-4.5063,-4.495,-4.4896,-4.4919,-4.4807,-4.477,-4.4681,-4.4159,-4.3465,-4.2656,-4.2085,-4.1698,-4.1433,-4.0939,-4.0718,-4.0789,-4.0796,-4.0811,-4.0806,-4.0811,-4.0773,-4.07,-4.0713,-4.0473,-4.0023,-3.9882,-3.9755,-3.9502,-3.9464,-3.9476,-3.9608,-3.9608,-3.9608,-3.9645,-3.9826,-3.9931,-3.997,-4.0001,-3.9897,-3.9663,-3.9862,-4.0062,-4.0164,-4.0482,-4.0752,-4.0859,-4.0688,-4.0662,-4.0753,-4.0655,-4.0431,-4.043,-4.071,-4.0897,-4.0872,-4.0848,-4.0771,-4.0668,-4.0542,-4.0442,-4.04,-4.0396,-4.0427,-4.0547,-4.0627,-4.0793,-4.105,-4.1561,-4.1714,-4.1543,-4.2031,-4.2539,-4.2087,-4.1929,-4.1927,-4.1936,-4.1393,-4.11,-4.1115,-4.1112,-4.1112,-4.1109,-4.1109,-4.1109,-4.1109,-4.1109,-4.1109,-4.1109,-4.1109,-4.1109,-4.1103,-4.1104,-4.1099,-4.1104,-4.0611,-4.0246,-4.4597,-4.54,-4.4945,-4.5283,-4.6125,-4.5905,-4.5668,-4.5479,-4.5049,-4.4553,-4.3987,-4.3522,-4.3025,-4.2568,-4.2811,-4.3123,-4.3531,-4.4162,-4.4606,-4.4861,-4.4688,-4.465,-4.4714,-4.4559,-4.4676,-4.4976,-4.4669,-4.4115,-4.3492,-4.2893,-4.2375,-4.1854,-4.1301,-4.0938,-4.0751,-4.0711,-4.0697,-4.0715,-4.0703,-4.0674,-4.0648,-4.0586,-4.0353,-3.9963,-3.9816,-3.9663,-3.9444,-3.9661,-3.9713,-3.9658,-3.9833,-3.9896,-3.9717,-3.9818,-3.991,-3.9931,-3.9989,-3.9843,-3.9533,-3.9731,-3.9948,-4.0043,-4.0342,-4.0622,-4.0858,-4.0933,-4.0925,-4.0902,-4.0888,-4.0859,-4.0814,-4.0837,-4.0876,-4.0876,-4.0888,-4.0828,-4.07,-4.0535,-4.0407,-4.0294,-4.0517,-4.0669,-4.0778,-4.1207,-4.1537,-4.171,-4.2373,-4.2489,-4.2343,-4.2851,-4.3554,-4.2963,-4.2824,-4.282,-4.2695,-4.2187,-4.1429,-4.1288,-4.1112,-4.1111,-4.1111,-4.1111,-4.1109,-4.1109,-4.1109,-4.1109,-4.1109,-4.1109,-4.1104,-4.1078,-4.1064,-4.1052,-4.105,-4.1022,-4.0677,-4.4321,-4.4788,-4.4719,-4.5143,-4.5742,-4.6284,-4.6446,-4.6357,-4.6302,-4.5486,-4.4491,-4.4376,-4.3393,-4.23,-4.3056,-4.325,-4.3178,-4.3758,-4.4397,-4.4927,-4.4612,-4.4552,-4.4663,-4.4341,-4.4388,-4.4879,-4.5323,-4.5096,-4.4327,-4.4105,-4.3363,-4.2162,-4.1901,-4.152,-4.06,-4.0727,-4.0596,-4.0631,-4.0611,-4.0512,-4.0481,-4.0383,-4.0205,-3.9939,-3.9834,-3.9755,-3.9583,-4.0179,-4.0293,-3.9921,-4.0422,-4.049,-4.0045,-3.9966,-3.9822,-3.9917,-3.9879,-3.9822,-3.9693,-3.9693,-3.9897,-4.0148,-4.0345,-4.0526,-4.0814,-4.0903,-4.0903,-4.0878,-4.0854,-4.0797,-4.0803,-4.0802,-4.0794,-4.0809,-4.0854,-4.0792,-4.0636,-4.0503,-4.0319,-4.024,-4.0745,-4.1231,-4.157,-4.2132,-4.2705,-4.2986,-4.3373,-4.3536,-4.3417,-4.3769,-4.3806,-4.3724,-4.3699,-4.3695,-4.3396,-4.2982,-4.2145,-4.1483,-4.1231,-4.1115,-4.1117,-4.1117,-4.1114,-4.1112,-4.1109,-4.1109,-4.1109,-4.1108,-4.1097,-4.1068,-4.1047,-4.1009,-4.1,-4.0997,-4.099,-4.5058,-4.5341,-4.5517,-4.6095,-4.6835,-4.7091,-4.706,-4.6792,-4.616,-4.5498,-4.4917,-4.4341,-4.3726,-4.3449,-4.393,-4.4068,-4.3889,-4.4361,-4.4614,-4.4619,-4.4589,-4.4635,-4.4661,-4.4541,-4.4674,-4.503,-4.541,-4.5442,-4.507,-4.4587,-4.397,-4.3508,-4.2931,-4.2585,-4.22,-4.1739,-4.1412,-4.1335,-4.0785,-4.0476,-4.0386,-4.0334,-4.0158,-3.9919,-4.0268,-4.0489,-4.0415,-4.0576,-4.087,-4.1179,-4.144,-4.1479,-4.1331,-4.1287,-4.1035,-4.057,-4.0542,-4.0121,-3.9449,-3.9527,-3.9762,-3.9963,-4.0166,-4.0431,-4.0751,-4.0837,-4.0837,-4.0837,-4.0815,-4.0797,-4.0797,-4.0803,-4.0828,-4.0802,-4.0751,-4.0687,-4.071,-4.0913,-4.0998,-4.0997,-4.1544,-4.2066,-4.2295,-4.2857,-4.3192,-4.3472,-4.4019,-4.4358,-4.3997,-4.4746,-4.5152,-4.4774,-4.4692,-4.457,-4.4353,-4.3948,-4.3196,-4.2475,-4.2027,-4.1476,-4.1379,-4.13,-4.1258,-4.1114,-4.1111,-4.1109,-4.1109,-4.1106,-4.1097,-4.1061,-4.1022,-4.1006,-4.0987,-4.097,-4.0949,-4.5407,-4.5629,-4.6097,-4.669,-4.7384,-4.7669,-4.767,-4.7379,-4.6899,-4.6396,-4.5885,-4.5498,-4.4934,-4.467,-4.5126,-4.5268,-4.5054,-4.521,-4.5169,-4.4963,-4.4734,-4.4751,-4.4815,-4.4852,-4.4938,-4.5117,-4.541,-4.555,-4.5465,-4.503,-4.4624,-4.4239,-4.3797,-4.3355,-4.3038,-4.2208,-4.1739,-4.1657,-4.0822,-4.0313,-4.027,-4.0177,-4.0152,-4.0242,-4.038,-4.0697,-4.1135,-4.0915,-4.1108,-4.1822,-4.1972,-4.1967,-4.1935,-4.1937,-4.1743,-4.1329,-4.1198,-4.0909,-4.0229,-4.0163,-4.0335,-4.0693,-4.0473,-4.0575,-4.1001,-4.1042,-4.0771,-4.0771,-4.0752,-4.0778,-4.0829,-4.1126,-4.119,-4.1158,-4.0835,-4.0716,-4.0889,-4.1427,-4.1707,-4.1854,-4.2416,-4.2853,-4.3069,-4.3579,-4.3855,-4.4182,-4.4744,-4.5211,-4.4906,-4.5566,-4.5621,-4.5612,-4.5548,-4.5447,-4.5405,-4.4893,-4.4238,-4.3613,-4.3027,-4.2363,-4.1913,-4.1833,-4.1753,-4.1272,-4.1109,-4.1109,-4.1109,-4.1108,-4.1103,-4.1064,-4.1014,-4.094,-4.0898,-4.0876,-4.0887,-4.5538,-4.5739,-4.6536,-4.7026,-4.7335,-4.8098,-4.8317,-4.8172,-4.8281,-4.7868,-4.7276,-4.7186,-4.6683,-4.5901,-4.6521,-4.6689,-4.6325,-4.6148,-4.6157,-4.5994,-4.5458,-4.501,-4.4974,-4.5033,-4.5057,-4.5091,-4.5301,-4.54,-4.5362,-4.537,-4.5164,-4.441,-4.4332,-4.3974,-4.3326,-4.2267,-4.1961,-4.1948,-4.0826,-4.0291,-4.0358,-3.9998,-4.0087,-4.0714,-4.0214,-4.0434,-4.1385,-4.1222,-4.1278,-4.1967,-4.2314,-4.2318,-4.1996,-4.2007,-4.2045,-4.1609,-4.1725,-4.1654,-4.156,-4.0978,-4.1201,-4.212,-4.1313,-4.0788,-4.1791,-4.1409,-4.0965,-4.0945,-4.0926,-4.0894,-4.1081,-4.1596,-4.1928,-4.1759,-4.1293,-4.1124,-4.1428,-4.2061,-4.2435,-4.2614,-4.3189,-4.3758,-4.3805,-4.4535,-4.4998,-4.5302,-4.5514,-4.5686,-4.5896,-4.6074,-4.6225,-4.6177,-4.6033,-4.5998,-4.5842,-4.5604,-4.4998,-4.4797,-4.419,-4.3512,-4.2598,-4.2342,-4.2124,-4.1625,-4.1246,-4.1207,-4.1109,-4.1127,-4.1101,-4.1064,-4.0974,-4.0857,-4.0815,-4.084,-4.0854,-4.6934,-4.6382,-4.7326,-4.7789,-4.7973,-4.8769,-4.9043,-4.8907,-4.8512,-4.8236,-4.7973,-4.7706,-4.7506,-4.7306,-4.7832,-4.7924,-4.7646,-4.7751,-4.7649,-4.7259,-4.6466,-4.5612,-4.5128,-4.5068,-4.4979,-4.487,-4.4957,-4.4943,-4.495,-4.5171,-4.5059,-4.4695,-4.4851,-4.4823,-4.4334,-4.3531,-4.3274,-4.3058,-4.171,-4.0891,-4.0732,-4.0192,-3.983,-3.9926,-4.029,-4.0628,-4.1186,-4.1638,-4.2171,-4.2862,-4.3552,-4.3506,-4.2805,-4.2706,-4.2183,-4.1171,-4.0915,-4.0943,-4.096,-4.0966,-4.1468,-4.2411,-4.2269,-4.2387,-4.2777,-4.2131,-4.1719,-4.1667,-4.1648,-4.1648,-4.1796,-4.2324,-4.2554,-4.2306,-4.2125,-4.2017,-4.2169,-4.2775,-4.33,-4.3424,-4.4068,-4.4421,-4.4621,-4.4878,-4.5283,-4.5492,-4.5705,-4.594,-4.6142,-4.6249,-4.6284,-4.6291,-4.6227,-4.6255,-4.6205,-4.6034,-4.5887,-4.5853,-4.5404,-4.4828,-4.3749,-4.2829,-4.2529,-4.2123,-4.1792,-4.1675,-4.1343,-4.1148,-4.1115,-4.1241,-4.0961,-4.0872,-4.0876,-4.0896,-4.0873,-4.7673,-4.7105,-4.8028,-4.8429,-4.849,-4.8971,-4.916,-4.9061,-4.875,-4.855,-4.8514,-4.8421,-4.8366,-4.8529,-4.8992,-4.9081,-4.8885,-4.8865,-4.8445,-4.7621,-4.6393,-4.554,-4.5067,-4.4924,-4.477,-4.4719,-4.4726,-4.4758,-4.4739,-4.4938,-4.4919,-4.4853,-4.503,-4.5041,-4.4786,-4.4113,-4.373,-4.3506,-4.2371,-4.1562,-4.1475,-4.1033,-4.0759,-4.0585,-4.0797,-4.0685,-4.0465,-4.118,-4.2146,-4.298,-4.3491,-4.3523,-4.3259,-4.2857,-4.2149,-4.1078,-4.0984,-4.1124,-4.1432,-4.1496,-4.2069,-4.3068,-4.3215,-4.3153,-4.3385,-4.2985,-4.251,-4.2504,-4.2498,-4.2518,-4.2653,-4.3088,-4.3369,-4.3449,-4.3398,-4.3225,-4.2875,-4.3592,-4.4033,-4.4278,-4.4567,-4.4895,-4.4907,-4.5079,-4.5264,-4.5468,-4.568,-4.5927,-4.6152,-4.6227,-4.6265,-4.6276,-4.6287,-4.6294,-4.6286,-4.6151,-4.6084,-4.6126,-4.6006,-4.5539,-4.4707,-4.3525,-4.3187,-4.2843,-4.2435,-4.2126,-4.1971,-4.1795,-4.1729,-4.1686,-4.1247,-4.0972,-4.1015,-4.0913,-4.0887,-4.8147,-4.7919,-4.8661,-4.8976,-4.8973,-4.8959,-4.9012,-4.896,-4.8891,-4.8855,-4.889,-4.916,-4.9174,-4.9368,-4.967,-5.0006,-4.993,-4.9499,-4.8751,-4.7766,-4.6552,-4.5621,-4.5376,-4.4768,-4.4562,-4.4554,-4.461,-4.4591,-4.4591,-4.4695,-4.4745,-4.4707,-4.4795,-4.4856,-4.4675,-4.4039,-4.3784,-4.3737,-4.2856,-4.2316,-4.2284,-4.1996,-4.1693,-4.1605,-4.1022,-4.0396,-4.0034,-4.0439,-4.1448,-4.2897,-4.2724,-4.2819,-4.3014,-4.2329,-4.1762,-4.1477,-4.1241,-4.1615,-4.2451,-4.216,-4.2804,-4.4116,-4.3564,-4.3311,-4.4077,-4.3771,-4.333,-4.3337,-4.334,-4.3397,-4.3574,-4.3893,-4.4132,-4.4359,-4.4478,-4.4218,-4.3937,-4.4297,-4.4783,-4.4808,-4.4858,-4.4907,-4.4972,-4.5113,-4.5304,-4.5574,-4.5738,-4.591,-4.6106,-4.618,-4.623,-4.6259,-4.6276,-4.6294,-4.6268,-4.6229,-4.6182,-4.6174,-4.6133,-4.5797,-4.5318,-4.4477,-4.4052,-4.3661,-4.3235,-4.3106,-4.3153,-4.2954,-4.2638,-4.2275,-4.1932,-4.1532,-4.1192,-4.0988,-4.0876,-4.94,-4.8982,-4.9336,-4.9469,-4.9439,-4.927,-4.9209,-4.9176,-4.8976,-4.8907,-4.8942,-4.9195,-4.9399,-4.9544,-4.986,-5.0095,-5.0169,-4.9935,-4.9487,-4.8504,-4.7972,-4.7095,-4.6262,-4.5133,-4.4373,-4.4285,-4.4188,-4.4185,-4.4225,-4.4374,-4.4355,-4.425,-4.4549,-4.4621,-4.4402,-4.4366,-4.4371,-4.4354,-4.3559,-4.3157,-4.3058,-4.2529,-4.2149,-4.2023,-4.1285,-4.0421,-3.9765,-3.9955,-4.0626,-4.1446,-4.215,-4.2379,-4.1897,-4.1456,-4.0879,-4.0368,-4.0533,-4.1018,-4.1753,-4.2506,-4.3321,-4.4276,-4.4562,-4.4824,-4.494,-4.4515,-4.4207,-4.4187,-4.4221,-4.4322,-4.4547,-4.4609,-4.4628,-4.4612,-4.46,-4.4508,-4.4344,-4.4474,-4.468,-4.4783,-4.4943,-4.5065,-4.5115,-4.5283,-4.5463,-4.5669,-4.5809,-4.5906,-4.6031,-4.6147,-4.6206,-4.6249,-4.6261,-4.6263,-4.6228,-4.6202,-4.6186,-4.6168,-4.6108,-4.6052,-4.5554,-4.5276,-4.4794,-4.4385,-4.4016,-4.4025,-4.4211,-4.3766,-4.3414,-4.3016,-4.2657,-4.2204,-4.178,-4.1379,-4.0941,-4.9825,-4.9472,-4.9558,-4.9598,-4.9569,-4.9503,-4.9399,-4.9289,-4.9144,-4.901,-4.8959,-4.9195,-4.9411,-4.9612,-4.9874,-5.0101,-5.0109,-4.9737,-4.941,-4.884,-4.8173,-4.7428,-4.7164,-4.5998,-4.5118,-4.4655,-4.4169,-4.4023,-4.4067,-4.414,-4.4151,-4.4036,-4.434,-4.4401,-4.4314,-4.4468,-4.4608,-4.4688,-4.4405,-4.4146,-4.3977,-4.3636,-4.2998,-4.2538,-4.1817,-4.1078,-4.0733,-4.0913,-4.126,-4.1748,-4.228,-4.2277,-4.1395,-4.0791,-4.0125,-3.9758,-3.996,-4.0703,-4.1549,-4.2476,-4.3423,-4.4327,-4.4795,-4.4992,-4.5112,-4.4911,-4.4913,-4.4917,-4.4938,-4.5013,-4.5009,-4.5044,-4.4856,-4.4726,-4.4745,-4.4789,-4.4674,-4.4627,-4.4613,-4.4757,-4.4943,-4.5087,-4.5231,-4.5399,-4.5558,-4.574,-4.5854,-4.5969,-4.6025,-4.6136,-4.6161,-4.6203,-4.623,-4.623,-4.6174,-4.6149,-4.6168,-4.6113,-4.6067,-4.6005,-4.5786,-4.5609,-4.546,-4.5133,-4.4877,-4.5106,-4.5172,-4.4686,-4.4238,-4.4004,-4.3613,-4.2995,-4.2442,-4.1997,-4.1482,-4.9962,-4.9674,-4.9684,-4.9698,-4.9698,-4.9655,-4.9562,-4.9368,-4.9155,-4.8959,-4.892,-4.9083,-4.9155,-4.9554,-4.986,-5.0108,-5.0016,-4.9537,-4.9299,-4.9306,-4.8243,-4.7828,-4.7653,-4.701,-4.6322,-4.56,-4.4729,-4.4302,-4.4061,-4.4005,-4.4051,-4.402,-4.4153,-4.4229,-4.4289,-4.4487,-4.4653,-4.4732,-4.4745,-4.4762,-4.4707,-4.4569,-4.4049,-4.3203,-4.2637,-4.2015,-4.1777,-4.1876,-4.2169,-4.2405,-4.268,-4.2449,-4.1752,-4.0768,-3.9992,-3.9966,-4.0384,-4.1029,-4.1854,-4.2668,-4.3527,-4.4327,-4.4562,-4.4707,-4.4842,-4.5061,-4.5178,-4.5237,-4.5217,-4.5107,-4.4861,-4.495,-4.4973,-4.4903,-4.5049,-4.5052,-4.4837,-4.4694,-4.4674,-4.4693,-4.4948,-4.5156,-4.5342,-4.5516,-4.5665,-4.5801,-4.591,-4.5988,-4.6063,-4.6098,-4.6095,-4.6171,-4.6202,-4.6227,-4.6177,-4.614,-4.6143,-4.6111,-4.6032,-4.5959,-4.5919,-4.5783,-4.5697,-4.5939,-4.5894,-4.5937,-4.5858,-4.5448,-4.5112,-4.4967,-4.4506,-4.3827,-4.3228,-4.2659,-4.2093,-5.0236,-4.9946,-5.0095,-5.0169,-5.0144,-4.9993,-4.9773,-4.9412,-4.8686,-4.8546,-4.8775,-4.8522,-4.8743,-4.9292,-4.9824,-5.0108,-5.0118,-4.9752,-4.9592,-4.9554,-4.8843,-4.87,-4.8386,-4.7868,-4.7367,-4.694,-4.59,-4.4878,-4.4228,-4.4005,-4.4005,-4.402,-4.4119,-4.4165,-4.4195,-4.4344,-4.4549,-4.4714,-4.4707,-4.4707,-4.4752,-4.4604,-4.4231,-4.3482,-4.3182,-4.2766,-4.219,-4.2152,-4.2245,-4.2427,-4.2763,-4.2887,-4.2652,-4.1817,-4.1207,-4.0969,-4.1279,-4.1861,-4.2426,-4.328,-4.3794,-4.4102,-4.4355,-4.4522,-4.4662,-4.4898,-4.5113,-4.5115,-4.5041,-4.4896,-4.4812,-4.4908,-4.4872,-4.4891,-4.5052,-4.5118,-4.4915,-4.4819,-4.4758,-4.47,-4.4976,-4.5232,-4.5399,-4.5591,-4.5754,-4.5828,-4.588,-4.5929,-4.5956,-4.5983,-4.5994,-4.6076,-4.6186,-4.6191,-4.6197,-4.614,-4.6122,-4.6111,-4.6052,-4.5935,-4.5883,-4.584,-4.5886,-4.6064,-4.6142,-4.609,-4.5994,-4.5932,-4.5833,-4.5572,-4.5098,-4.4628,-4.4002,-4.3382,-4.2871,-5.0337,-5.017,-5.0267,-5.0302,-5.0278,-5.0188,-4.974,-4.9091,-4.8522,-4.8175,-4.8048,-4.7969,-4.8278,-4.8933,-4.9558,-4.9914,-5.0038,-4.9882,-4.966,-4.9423,-4.9209,-4.9046,-4.8909,-4.8444,-4.8054,-4.7608,-4.6828,-4.5807,-4.4711,-4.4209,-4.4061,-4.4005,-4.407,-4.4085,-4.4147,-4.4288,-4.4435,-4.4617,-4.4649,-4.4636,-4.4695,-4.4513,-4.4186,-4.4004,-4.3881,-4.3647,-4.3357,-4.3253,-4.3473,-4.3726,-4.3952,-4.3929,-4.3679,-4.3269,-4.2574,-4.1995,-4.2228,-4.2572,-4.2865,-4.3506,-4.3968,-4.4036,-4.424,-4.4374,-4.4486,-4.47,-4.4943,-4.4941,-4.4996,-4.4856,-4.4681,-4.4943,-4.5088,-4.5088,-4.5275,-4.5294,-4.5131,-4.512,-4.4973,-4.4808,-4.5026,-4.5254,-4.5408,-4.5603,-4.5822,-4.5893,-4.588,-4.5867,-4.5861,-4.5891,-4.5924,-4.602,-4.6128,-4.6167,-4.617,-4.6138,-4.6108,-4.6113,-4.6071,-4.5951,-4.5901,-4.5864,-4.5925,-4.6057,-4.6106,-4.6136,-4.6132,-4.6062,-4.6103,-4.6109,-4.5704,-4.5233,-4.4687,-4.4118,-4.3591,-5.0206,-5.0302,-5.0302,-5.0302,-5.0302,-5.0302,-4.9758,-4.8952,-4.8531,-4.8091,-4.7567,-4.7566,-4.7936,-4.8578,-4.918,-4.9646,-4.9879,-4.9627,-4.9423,-4.9305,-4.9044,-4.8909,-4.8909,-4.8834,-4.8574,-4.811,-4.7608,-4.6847,-4.5361,-4.4674,-4.4246,-4.4042,-4.4005,-4.4005,-4.4067,-4.4181,-4.4336,-4.4484,-4.4591,-4.4617,-4.4503,-4.4435,-4.4411,-4.4411,-4.4468,-4.4398,-4.4205,-4.4186,-4.4401,-4.4647,-4.487,-4.495,-4.4754,-4.4673,-4.4084,-4.3126,-4.3165,-4.31,-4.3215,-4.3478,-4.3926,-4.3908,-4.4082,-4.4222,-4.4401,-4.4573,-4.4757,-4.4796,-4.491,-4.4946,-4.4783,-4.515,-4.5343,-4.5371,-4.5524,-4.5673,-4.5427,-4.5304,-4.5195,-4.5131,-4.5173,-4.5294,-4.5488,-4.5654,-4.5867,-4.588,-4.5848,-4.5874,-4.5861,-4.5874,-4.5898,-4.5972,-4.606,-4.6107,-4.613,-4.6135,-4.6121,-4.6119,-4.6073,-4.5972,-4.5942,-4.5914,-4.5998,-4.6079,-4.6105,-4.6132,-4.6155,-4.6167,-4.6131,-4.6114,-4.6109,-4.5887,-4.5387,-4.4804,-4.4217,-4.9671,-5.0302,-5.0302,-5.0302,-5.0302,-5.029,-4.9987,-4.9381,-4.865,-4.8352,-4.7904,-4.7444,-4.7555,-4.8366,-4.8954,-4.9358,-4.948,-4.9389,-4.9236,-4.9193,-4.901,-4.889,-4.889,-4.889,-4.8853,-4.8519,-4.8036,-4.6791,-4.5788,-4.5324,-4.4785,-4.4358,-4.4302,-4.4098,-4.4373,-4.447,-4.4162,-4.4369,-4.435,-4.434,-4.4393,-4.4397,-4.4426,-4.4473,-4.4487,-4.4487,-4.4426,-4.4426,-4.4562,-4.4861,-4.5028,-4.5217,-4.5421,-4.5534,-4.5226,-4.4579,-4.402,-4.3544,-4.355,-4.3687,-4.3747,-4.3728,-4.3809,-4.403,-4.4262,-4.4496,-4.4646,-4.4632,-4.4826,-4.4884,-4.4903,-4.5245,-4.5427,-4.5524,-4.5634,-4.5658,-4.5526,-4.5509,-4.5399,-4.5333,-4.5352,-4.5453,-4.5603,-4.5761,-4.5893,-4.5867,-4.5841,-4.5854,-4.5893,-4.5917,-4.5947,-4.6037,-4.6056,-4.6095,-4.6059,-4.6072,-4.6059,-4.608,-4.6021,-4.5956,-4.5961,-4.595,-4.6005,-4.6065,-4.6107,-4.613,-4.614,-4.6153,-4.613,-4.6115,-4.6107,-4.6145,-4.6131,-4.5504,-4.4708,-4.9561,-5.0302,-5.0302,-5.0302,-5.0278,-5.0194,-4.9721,-4.9007,-4.8205,-4.767,-4.7368,-4.6916,-4.7309,-4.8348,-4.8988,-4.9286,-4.938,-4.927,-4.916,-4.9077,-4.8959,-4.889,-4.889,-4.889,-4.889,-4.8797,-4.85,-4.7924,-4.6828,-4.616,-4.5695,-4.5454,-4.5379,-4.5491,-4.5263,-4.5377,-4.5199,-4.4938,-4.4524,-4.4259,-4.431,-4.4387,-4.4411,-4.444,-4.4487,-4.4487,-4.4473,-4.4454,-4.4635,-4.4922,-4.5082,-4.5253,-4.5494,-4.5582,-4.5428,-4.5052,-4.4684,-4.4226,-4.3781,-4.3728,-4.3595,-4.3477,-4.3526,-4.3691,-4.4017,-4.4364,-4.4491,-4.4331,-4.4831,-4.5007,-4.5011,-4.5371,-4.5498,-4.561,-4.5688,-4.5642,-4.561,-4.5677,-4.5634,-4.5577,-4.5516,-4.5623,-4.5713,-4.5809,-4.5917,-4.5929,-4.5892,-4.5892,-4.5982,-4.6067,-4.6084,-4.6107,-4.6119,-4.6107,-4.605,-4.5993,-4.5954,-4.5951,-4.5901,-4.5874,-4.5959,-4.5975,-4.6031,-4.6087,-4.615,-4.6167,-4.6133,-4.6102,-4.6078,-4.6083,-4.6119,-4.615,-4.6138,-4.5537,-4.4848,-4.9439,-5.0212,-5.0259,-5.0267,-5.0156,-5.0038,-4.9492,-4.8602,-4.8019,-4.7371,-4.6815,-4.6659,-4.7234,-4.8181,-4.8729,-4.9008,-4.9193,-4.9195,-4.9079,-4.8942,-4.889,-4.889,-4.889,-4.889,-4.889,-4.889,-4.8834,-4.8444,-4.7999,-4.7423,-4.6958,-4.6566,-4.6329,-4.6422,-4.6515,-4.6384,-4.6137,-4.5632,-4.5193,-4.4882,-4.4711,-4.4728,-4.4603,-4.4501,-4.4487,-4.4482,-4.4482,-4.4501,-4.468,-4.5003,-4.5084,-4.5258,-4.5541,-4.5522,-4.54,-4.5129,-4.4893,-4.4463,-4.3915,-4.3579,-4.3442,-4.3355,-4.339,-4.361,-4.3761,-4.4181,-4.443,-4.4196,-4.4849,-4.5052,-4.512,-4.549,-4.5642,-4.5673,-4.5703,-4.5658,-4.5653,-4.5708,-4.5764,-4.5708,-4.5681,-4.5754,-4.5841,-4.5899,-4.5941,-4.5975,-4.5975,-4.5936,-4.6031,-4.6141,-4.6162,-4.6164,-4.6164,-4.6141,-4.6052,-4.5983,-4.5919,-4.5789,-4.5723,-4.5769,-4.5827,-4.5938,-4.6015,-4.6106,-4.6161,-4.59,-4.5689,-4.5846,-4.6022,-4.6084,-4.6123,-4.6157,-4.5994,-4.5426,-4.5172,-4.9067,-5.0044,-5.0219,-5.01,-4.9857,-4.9973,-4.942,-4.8539,-4.8472,-4.7781,-4.6856,-4.6896,-4.7147,-4.7718,-4.8175,-4.8569,-4.8925,-4.8875,-4.8892,-4.8909,-4.889,-4.889,-4.889,-4.889,-4.889,-4.889,-4.889,-4.8853,-4.8796,-4.8533,-4.7698,-4.6768,-4.7146,-4.6921,-4.6914,-4.7068,-4.6815,-4.6408,-4.6113,-4.5804,-4.5528,-4.5395,-4.5225,-4.4768,-4.4594,-4.4519,-4.4501,-4.4608,-4.4697,-4.5083,-4.5057,-4.5216,-4.5448,-4.5419,-4.5239,-4.5117,-4.495,-4.4421,-4.3772,-4.3493,-4.3337,-4.332,-4.3426,-4.3562,-4.3579,-4.398,-4.4162,-4.425,-4.4861,-4.5222,-4.5352,-4.5552,-4.5737,-4.5759,-4.5752,-4.5745,-4.5749,-4.5771,-4.58,-4.58,-4.5827,-4.5874,-4.5848,-4.5886,-4.5929,-4.5964,-4.6032,-4.6012,-4.6064,-4.617,-4.6191,-4.6195,-4.6199,-4.6153,-4.6107,-4.5973,-4.5712,-4.553,-4.5428,-4.5561,-4.5695,-4.5822,-4.5894,-4.5998,-4.5987,-4.5607,-4.526,-4.5283,-4.5445,-4.5907,-4.6107,-4.607,-4.5944,-4.5538,-4.5545,-4.9377,-4.9759,-4.9841,-4.9876,-4.9914,-4.9819,-4.9305,-4.8567,-4.8139,-4.7449,-4.6501,-4.6771,-4.716,-4.7591,-4.8055,-4.8458,-4.8838,-4.8892,-4.8891,-4.8891,-4.889,-4.889,-4.889,-4.889,-4.889,-4.889,-4.889,-4.889,-4.8872,-4.9027,-4.8922,-4.8405,-4.8246,-4.8484,-4.8434,-4.7886,-4.7486,-4.7078,-4.6667,-4.6133,-4.6085,-4.6052,-4.6063,-4.6096,-4.6021,-4.5702,-4.5378,-4.5266,-4.5119,-4.5004,-4.4983,-4.5189,-4.537,-4.5277,-4.5181,-4.5118,-4.4978,-4.4463,-4.3818,-4.3531,-4.3355,-4.3068,-4.3196,-4.3392,-4.3463,-4.3871,-4.4057,-4.4327,-4.4875,-4.5427,-4.539,-4.5616,-4.58,-4.58,-4.5904,-4.5981,-4.6058,-4.6201,-4.6208,-4.6355,-4.6087,-4.5893,-4.588,-4.5835,-4.5905,-4.5958,-4.6032,-4.6087,-4.6134,-4.6197,-4.6215,-4.6218,-4.6209,-4.618,-4.6122,-4.5811,-4.5449,-4.5273,-4.5129,-4.5217,-4.5345,-4.5587,-4.5679,-4.5788,-4.5677,-4.5184,-4.4838,-4.4646,-4.4805,-4.5184,-4.5597,-4.5912,-4.5748,-4.5482,-4.555,-4.942,-4.9499,-4.9514,-4.9588,-4.9703,-4.9573,-4.9015,-4.8254,-4.7802,-4.7071,-4.6246,-4.6572,-4.7049,-4.7588,-4.7915,-4.8514,-4.8855,-4.896,-4.896,-4.8942,-4.8925,-4.889,-4.8891,-4.8891,-4.889,-4.889,-4.8909,-4.8926,-4.9044,-4.9209,-4.9271,-4.9375,-4.9573,-4.9603,-4.9462,-4.8993,-4.8331,-4.7757,-4.7291,-4.6542,-4.6538,-4.6638,-4.6583,-4.6775,-4.6735,-4.6636,-4.6223,-4.6106,-4.5998,-4.5695,-4.5508,-4.5397,-4.538,-4.5319,-4.5197,-4.5209,-4.5142,-4.4819,-4.448,-4.3628,-4.3414,-4.345,-4.3233,-4.3396,-4.3646,-4.4037,-4.4173,-4.458,-4.5261,-4.5802,-4.5897,-4.6532,-4.683,-4.7018,-4.6999,-4.7064,-4.7006,-4.7071,-4.6982,-4.6969,-4.6635,-4.6371,-4.6203,-4.617,-4.5937,-4.5982,-4.6011,-4.6075,-4.6137,-4.6202,-4.6268,-4.6249,-4.6227,-4.6188,-4.6125,-4.5687,-4.5246,-4.4827,-4.4725,-4.4748,-4.4889,-4.5174,-4.5356,-4.5382,-4.5162,-4.4701,-4.4276,-4.3869,-4.4049,-4.4363,-4.4744,-4.5098,-4.5027,-4.476,-4.5008,-4.9077,-4.9289,-4.9308,-4.9239,-4.9204,-4.9255,-4.8639,-4.764,-4.7488,-4.6999,-4.6246,-4.6295,-4.6812,-4.7442,-4.7713,-4.829,-4.9025,-4.9046,-4.8993,-4.9059,-4.9027,-4.8909,-4.8875,-4.8874,-4.889,-4.889,-4.8926,-4.9029,-4.926,-4.9321,-4.9548,-4.9819,-4.9908,-4.9987,-4.9959,-4.9698,-4.9142,-4.8476,-4.8237,-4.7571,-4.713,-4.7223,-4.7138,-4.7094,-4.727,-4.7335,-4.7049,-4.6955,-4.6869,-4.6655,-4.6186,-4.6089,-4.6193,-4.5539,-4.5483,-4.5956,-4.5814,-4.5885,-4.6083,-4.409,-4.376,-4.4218,-4.4144,-4.4066,-4.4611,-4.473,-4.4651,-4.5156,-4.603,-4.6819,-4.7395,-4.7901,-4.7955,-4.7966,-4.7889,-4.785,-4.778,-4.7756,-4.7627,-4.7564,-4.7384,-4.7139,-4.6835,-4.6543,-4.6143,-4.6016,-4.6022,-4.6082,-4.6173,-4.6204,-4.6269,-4.6269,-4.6249,-4.615,-4.6005,-4.5499,-4.5044,-4.4588,-4.4312,-4.4325,-4.4569,-4.4937,-4.5046,-4.5007,-4.4658,-4.4222,-4.3597,-4.2997,-4.3101,-4.3226,-4.3684,-4.3987,-4.3971,-4.4173,-4.4481,-4.8927,-4.9027,-4.8978,-4.8943,-4.8942,-4.9193,-4.864,-4.7551,-4.6954,-4.6477,-4.6246,-4.6214,-4.6719,-4.7356,-4.7736,-4.8233,-4.9108,-4.9257,-4.9206,-4.9206,-4.916,-4.9027,-4.8943,-4.8874,-4.889,-4.889,-4.8926,-4.9046,-4.9289,-4.938,-4.965,-4.9946,-5.0019,-5.0082,-4.9962,-4.965,-4.8989,-4.8421,-4.8023,-4.7609,-4.7415,-4.7697,-4.7923,-4.7854,-4.8255,-4.8273,-4.7856,-4.78,-4.7671,-4.7386,-4.6836,-4.6801,-4.687,-4.631,-4.6401,-4.673,-4.6676,-4.6533,-4.6424,-4.5453,-4.5204,-4.5403,-4.5327,-4.5098,-4.5152,-4.5693,-4.5754,-4.598,-4.6844,-4.7488,-4.7798,-4.8135,-4.8253,-4.8275,-4.8237,-4.8237,-4.8205,-4.8227,-4.821,-4.8178,-4.8037,-4.791,-4.7669,-4.7307,-4.6896,-4.656,-4.6578,-4.637,-4.6378,-4.6275,-4.6267,-4.6269,-4.623,-4.6149,-4.5939,-4.5724,-4.5081,-4.4459,-4.4105,-4.3912,-4.4227,-4.4737,-4.4796,-4.4796,-4.4282,-4.3739,-4.2955,-4.2276,-4.1938,-4.2016,-4.2643,-4.325,-4.3543,-4.3796,-4.4134,-4.8822,-4.8839,-4.8768,-4.8732,-4.8768,-4.9029,-4.8513,-4.7488,-4.6602,-4.6214,-4.6239,-4.6374,-4.6863,-4.7446,-4.7858,-4.8384,-4.9334,-4.9321,-4.9283,-4.9283,-4.927,-4.9077,-4.8909,-4.8874,-4.889,-4.889,-4.8925,-4.9027,-4.9289,-4.9427,-4.9617,-4.9819,-4.9946,-4.9822,-4.9669,-4.9199,-4.8723,-4.8157,-4.7692,-4.7478,-4.7515,-4.7806,-4.8273,-4.8565,-4.8926,-4.9189,-4.8795,-4.8551,-4.8401,-4.7913,-4.7608,-4.7498,-4.7499,-4.7278,-4.7272,-4.741,-4.7814,-4.7725,-4.7628,-4.7497,-4.7328,-4.738,-4.6832,-4.6364,-4.614,-4.6581,-4.6811,-4.7114,-4.7731,-4.8296,-4.8721,-4.8985,-4.9104,-4.9146,-4.9165,-4.9204,-4.9223,-4.9284,-4.9272,-4.919,-4.8873,-4.8725,-4.8387,-4.8116,-4.771,-4.7428,-4.7163,-4.6991,-4.6859,-4.6835,-4.6763,-4.6712,-4.6805,-4.6894,-4.6678,-4.6294,-4.5508,-4.442,-4.4169,-4.4066,-4.4137,-4.466,-4.4621,-4.452,-4.4009,-4.3329,-4.2245,-4.1576,-4.147,-4.1533,-4.1887,-4.2471,-4.3036,-4.3348,-4.3582,-4.8787,-4.8787,-4.8642,-4.8587,-4.8605,-4.8715,-4.8212,-4.736,-4.6572,-4.6239,-4.6253,-4.6719,-4.716,-4.7653,-4.8094,-4.8746,-4.9454,-4.943,-4.9374,-4.934,-4.938,-4.9059,-4.8873,-4.882,-4.8873,-4.889,-4.8925,-4.9027,-4.9273,-4.9396,-4.9544,-4.9689,-4.9824,-4.9535,-4.9126,-4.876,-4.831,-4.7795,-4.7496,-4.7341,-4.7414,-4.7858,-4.8233,-4.8604,-4.9023,-4.9352,-4.9265,-4.9246,-4.9283,-4.902,-4.866,-4.8397,-4.8022,-4.75,-4.7725,-4.8176,-4.8979,-4.9099,-4.9124,-4.8968,-4.904,-4.8677,-4.7722,-4.7641,-4.7639,-4.7586,-4.7768,-4.8141,-4.8724,-4.9548,-5.0202,-5.0368,-5.0531,-5.055,-5.055,-5.0589,-5.0608,-5.0616,-5.0596,-5.0384,-4.9931,-4.952,-4.8881,-4.852,-4.8596,-4.8538,-4.8375,-4.8439,-4.8263,-4.802,-4.7886,-4.7561,-4.7657,-4.7841,-4.7526,-4.697,-4.6016,-4.4982,-4.4863,-4.4795,-4.4764,-4.4602,-4.4685,-4.4483,-4.3821,-4.2944,-4.1816,-4.132,-4.1195,-4.1341,-4.1516,-4.1945,-4.2568,-4.2607,-4.2809,-4.8696,-4.8787,-4.8606,-4.8513,-4.8476,-4.8229,-4.7816,-4.7299,-4.6554,-4.635,-4.6701,-4.684,-4.7378,-4.8094,-4.8403,-4.8965,-4.9416,-4.9707,-4.9646,-4.9569,-4.9484,-4.9206,-4.8993,-4.8855,-4.889,-4.889,-4.8925,-4.9027,-4.9273,-4.9396,-4.9499,-4.9627,-4.9592,-4.9134,-4.8692,-4.8328,-4.7957,-4.7603,-4.7341,-4.7298,-4.7478,-4.7939,-4.8271,-4.8693,-4.9144,-4.9459,-4.9521,-4.9505,-4.9505,-4.9374,-4.9261,-4.9114,-4.9077,-4.8889,-4.9002,-4.9058,-4.9377,-4.9471,-4.9509,-4.9509,-4.9509,-4.9509,-4.8812,-4.8498,-4.8499,-4.8535,-4.8683,-4.9043,-4.9457,-5.0127,-5.0529,-5.075,-5.089,-5.0898,-5.0898,-5.0906,-5.0906,-5.0914,-5.0906,-5.0758,-5.0336,-5.0128,-4.9452,-4.9378,-4.9458,-4.9524,-4.9561,-4.9577,-4.9563,-4.9257,-4.8873,-4.85,-4.8369,-4.8487,-4.8121,-4.7601,-4.6568,-4.5664,-4.5585,-4.5311,-4.4857,-4.472,-4.4801,-4.4429,-4.3702,-4.2598,-4.1314,-4.1142,-4.1341,-4.1146,-4.1283,-4.1672,-4.1984,-4.2062,-4.2357,-4.8642,-4.8697,-4.8513,-4.8401,-4.8343,-4.8034,-4.7752,-4.7464,-4.6903,-4.6812,-4.7062,-4.7266,-4.7733,-4.8346,-4.8692,-4.9145,-4.9745,-4.986,-4.98,-4.9569,-4.9583,-4.9255,-4.901,-4.8891,-4.889,-4.889,-4.8907,-4.8959,-4.9176,-4.9368,-4.9454,-4.9299,-4.9257,-4.8954,-4.8586,-4.8383,-4.8135,-4.7731,-4.7432,-4.7327,-4.7611,-4.802,-4.8403,-4.8834,-4.9279,-4.9487,-4.9589,-4.9559,-4.9532,-4.9574,-4.9574,-4.949,-4.949,-4.9471,-4.9452,-4.9434,-4.9471,-4.9509,-4.9509,-4.9509,-4.9509,-4.9509,-4.949,-4.9254,-4.9156,-4.9206,-4.9335,-4.9586,-5.0034,-5.0448,-5.0672,-5.085,-5.0874,-5.0898,-5.0906,-5.0906,-5.0914,-5.0929,-5.0879,-5.0811,-5.0666,-5.0557,-5.0383,-5.0309,-5.0164,-4.9949,-4.998,-5.0134,-5.0201,-5.0164,-4.9731,-4.9283,-4.9109,-4.904,-4.8576,-4.8016,-4.7144,-4.6403,-4.6353,-4.5962,-4.5216,-4.4908,-4.5034,-4.4419,-4.3578,-4.2477,-4.1423,-4.1539,-4.1653,-4.138,-4.111,-4.1344,-4.1559,-4.1575,-4.2007,-4.8605,-4.8605,-4.8402,-4.8364,-4.8307,-4.8152,-4.8015,-4.7854,-4.7521,-4.7367,-4.7454,-4.7809,-4.8154,-4.8604,-4.8967,-4.9416,-4.9833,-5.0012,-4.9874,-4.951,-4.9569,-4.9315,-4.8976,-4.8856,-4.8873,-4.889,-4.889,-4.8925,-4.8959,-4.911,-4.916,-4.8926,-4.9146,-4.901,-4.8605,-4.855,-4.8346,-4.8018,-4.7671,-4.7482,-4.78,-4.8118,-4.8458,-4.8905,-4.9273,-4.9578,-4.9693,-4.9693,-4.9634,-4.9693,-4.9665,-4.9563,-4.949,-4.9509,-4.9509,-4.9509,-4.9509,-4.9509,-4.9509,-4.9509,-4.9509,-4.9509,-4.949,-4.9446,-4.9446,-4.9561,-4.9681,-4.9918,-5.0325,-5.0567,-5.078,-5.0858,-5.089,-5.0898,-5.0898,-5.0921,-5.0963,-5.0921,-5.0819,-5.0733,-5.0577,-5.0469,-5.0369,-5.0174,-5.0076,-5.0051,-5.023,-5.046,-5.0494,-5.0606,-5.0279,-4.9789,-4.9623,-4.9293,-4.8648,-4.8081,-4.7602,-4.7167,-4.6934,-4.634,-4.5378,-4.5227,-4.5297,-4.471,-4.4067,-4.2828,-4.1948,-4.1861,-4.1614,-4.1302,-4.111,-4.1114,-4.1156,-4.1242,-4.1463,-4.8697,-4.8624,-4.8677,-4.8694,-4.8694,-4.8622,-4.8586,-4.8513,-4.8212,-4.7972,-4.7872,-4.7994,-4.8365,-4.8917,-4.9214,-4.9598,-4.9959,-5.012,-4.9922,-4.9684,-4.9583,-4.9331,-4.896,-4.8874,-4.8891,-4.889,-4.889,-4.889,-4.8907,-4.8959,-4.8995,-4.8926,-4.9081,-4.8962,-4.8695,-4.8695,-4.8568,-4.8365,-4.8175,-4.8098,-4.844,-4.8586,-4.8869,-4.9193,-4.9521,-4.9644,-4.9745,-4.9795,-4.9889,-5.0012,-4.983,-4.9665,-4.9502,-4.949,-4.9509,-4.9509,-4.9509,-4.9509,-4.9509,-4.949,-4.949,-4.949,-4.949,-4.9505,-4.9574,-4.9717,-4.9936,-5.0218,-5.0477,-5.0681,-5.0822,-5.0874,-5.0898,-5.0898,-5.0898,-5.0956,-5.0986,-5.0879,-5.0775,-5.0615,-5.0448,-5.0325,-5.0212,-5.0089,-4.9986,-5.0069,-5.0303,-5.0452,-5.0379,-5.0368,-5.0202,-4.9845,-4.9821,-4.9452,-4.875,-4.8161,-4.7655,-4.715,-4.6768,-4.6165,-4.5533,-4.5571,-4.5617,-4.5269,-4.4615,-4.3424,-4.2372,-4.1627,-4.1377,-4.1185,-4.1117,-4.11,-4.1098,-4.1172,-4.1211,-4.866,-4.8623,-4.88,-4.8952,-4.9001,-4.8936,-4.8869,-4.8765,-4.8458,-4.8248,-4.8151,-4.8172,-4.8532,-4.9115,-4.9336,-4.9698,-5.0063,-5.0243,-4.998,-4.9731,-4.9539,-4.9268,-4.9042,-4.8875,-4.8857,-4.8856,-4.8891,-4.889,-4.889,-4.889,-4.8926,-4.8909,-4.8979,-4.8979,-4.8819,-4.8889,-4.8853,-4.8801,-4.873,-4.887,-4.9059,-4.899,-4.9075,-4.9358,-4.9608,-4.9741,-4.9889,-4.9974,-5.0031,-5.0025,-4.9822,-4.964,-4.9521,-4.949,-4.9509,-4.9509,-4.9509,-4.9509,-4.9509,-4.949,-4.9505,-4.9521,-4.9532,-4.9548,-4.9648,-4.9805,-4.9993,-5.0272,-5.0517,-5.0747,-5.085,-5.0898,-5.0898,-5.0898,-5.0906,-5.0948,-5.0956,-5.0887,-5.075,-5.0558,-5.0376,-5.0186,-5.0089,-4.9999,-4.9933,-4.9987,-5.0248,-5.0471,-5.0371,-4.9981,-4.986,-4.9751,-4.9635,-4.9371,-4.8722,-4.8168,-4.7711,-4.7194,-4.6551,-4.6261,-4.5847,-4.5925,-4.5891,-4.5614,-4.5088,-4.4132,-4.3117,-4.2208,-4.1494,-4.1263,-4.1175,-4.1109,-4.1111,-4.1159,-4.14,-4.8605,-4.8641,-4.892,-4.9166,-4.9271,-4.9118,-4.8988,-4.8815,-4.8458,-4.8324,-4.8287,-4.8324,-4.8711,-4.9064,-4.9314,-4.9757,-5.0076,-5.0224,-5.0006,-4.9773,-4.9598,-4.9296,-4.9025,-4.8804,-4.8804,-4.8822,-4.8839,-4.8874,-4.889,-4.889,-4.889,-4.889,-4.896,-4.9012,-4.9146,-4.923,-4.9195,-4.9279,-4.9311,-4.9393,-4.9311,-4.9125,-4.9244,-4.9452,-4.9692,-4.9927,-5.0081,-5.0159,-5.0147,-5.005,-4.9855,-4.963,-4.9521,-4.9509,-4.9509,-4.9509,-4.9509,-4.9509,-4.9509,-4.9509,-4.9517,-4.9578,-4.9574,-4.9634,-4.9736,-4.9852,-5.0038,-5.0272,-5.0546,-5.0738,-5.0841,-5.0906,-5.0906,-5.0874,-5.0882,-5.0874,-5.0855,-5.0847,-5.067,-5.0471,-5.0278,-5.0082,-4.9999,-4.9906,-4.9927,-4.9987,-5.0135,-5.0347,-5.0307,-4.9687,-4.9298,-4.9217,-4.9143,-4.8841,-4.8427,-4.8074,-4.7568,-4.675,-4.6147,-4.6157,-4.6156,-4.6138,-4.6086,-4.6032,-4.5409,-4.4498,-4.3744,-4.2912,-4.2234,-4.1562,-4.1211,-4.1114,-4.1114,-4.1247,-4.1698,-4.8587,-4.8623,-4.9169,-4.942,-4.945,-4.929,-4.9224,-4.9113,-4.8569,-4.8324,-4.8325,-4.8438,-4.866,-4.8936,-4.919,-4.957,-4.9942,-5.0156,-5.0151,-4.9927,-4.9631,-4.9346,-4.9023,-4.8732,-4.8732,-4.8769,-4.8804,-4.8839,-4.8873,-4.889,-4.8909,-4.8909,-4.8996,-4.9081,-4.9197,-4.9262,-4.9327,-4.9424,-4.949,-4.9509,-4.949,-4.9393,-4.9409,-4.9548,-4.9678,-4.9901,-5.0057,-5.0111,-5.0241,-5.0218,-5.0006,-4.9683,-4.9548,-4.9509,-4.9509,-4.9509,-4.9509,-4.9509,-4.9509,-4.9509,-4.9536,-4.9574,-4.9589,-4.9634,-4.9721,-4.9807,-5.0006,-5.026,-5.0507,-5.0738,-5.085,-5.0898,-5.0914,-5.0797,-5.0754,-5.069,-5.0653,-5.0587,-5.047,-5.0312,-5.0118,-5.0012,-4.9946,-4.9906,-4.992,-5.0,-5.0142,-5.0306,-5.0337,-4.9608,-4.8793,-4.8916,-4.8924,-4.8172,-4.7695,-4.7682,-4.7225,-4.6367,-4.5942,-4.6281,-4.6422,-4.6242,-4.6216,-4.6473,-4.5803,-4.4857,-4.4121,-4.3575,-4.288,-4.2187,-4.1448,-4.1139,-4.1158,-4.1308,-4.1753]},{"header":{"parameterUnit":"m.s-1","parameterCategory":1,"la1":31.0,"la2":29.5877,"lo1":-88.7671,"lo2":-86.6584,"dy":0.0162,"dx":0.0185,"nx":115,"ny":88,"refTime":"2024-07-02T06:00:00:Z","depth":0,"parameterNumber":3,"parameterNumberName":"V-component_of_WINDS"},"data":[0.0,0.0,0.0,0.0,0.0,0.0,0.0,0.0,0.0,0.0,0.0,0.0,0.0,0.0,0.0,0.0,0.0,0.0,0.0,0.0,0.0,0.0,0.0,0.0,0.0,0.0,0.0,0.0,0.0,0.0,0.0,0.0,0.0,0.0,0.0,0.0,0.0,0.0,0.0,0.0,0.0,0.0,0.0,0.0,0.0,0.0,0.0,0.0,0.0,0.0,0.0,0.0,0.0,0.0,0.0,0.0,0.0,0.0,0.0,0.0,0.0,0.0,0.0,0.0,0.0,0.0,0.0,0.0,0.0,0.0,0.0,0.0,0.0,0.0,0.0,0.0,0.0,0.0,0.0,0.0,0.0,0.0,0.0,0.0,0.0,0.0,0.0,0.0,0.0,0.0,0.0,0.0,0.0,0.0,0.0,0.0,0.0,0.0,0.0,0.0,0.0,0.0,0.0,0.0,0.0,0.0,0.0,0.0,0.0,0.0,0.0,0.0,0.0,0.0,0.0,0.0,0.0,0.0,0.0,0.0,0.0,0.0,0.0,0.0,0.0,0.0,0.0,0.0,0.0,0.0,0.0,0.0,0.0,0.0,0.0,0.0,0.0,0.0,0.0,0.0,0.0,0.0,0.0,0.0,0.0,0.0,0.0,0.0,0.0,0.0,0.0,0.0,0.0,0.0,0.0,0.0,0.0,0.0,0.0,0.0,0.0,0.0,0.0,0.0,0.0,0.0,0.0,0.0,0.0,0.0,0.0,0.0,0.0,0.0,0.0,0.0,0.0,0.0,0.0,0.0,0.0,0.0,0.0,0.0,0.0,0.0,0.0,0.0,0.0,0.0,0.0,0.0,0.0,0.0,0.0,0.0,0.0,0.0,0.0,0.0,0.0,0.0,0.0,0.0,0.0,0.0,0.0,0.0,0.0,0.0,0.0,0.0,0.0,0.0,0.0,0.0,0.0,0.0,0.0,0.0,0.0,0.0,0.0,0.0,0.0,0.0,0.0,0.0,0.0,0.0,0.0,0.0,0.0,0.0,0.0,0.0,0.0,0.0,0.0,0.0,0.0,0.0,0.0,0.0,0.0,0.0,0.0,0.0,0.0,0.0,0.0,0.0,0.0,0.0,0.0,0.0,0.0,0.0,0.0,0.0,0.0,0.0,0.0,0.0,0.0,0.0,0.0,0.0,0.0,0.0,0.0,0.0,0.0,0.0,0.0,0.0,0.0,0.0,0.0,0.0,0.0,0.0,0.0,0.0,0.0,0.0,0.0,0.0,0.0,0.0,0.0,0.0,0.0,0.0,0.0,0.0,0.0,0.0,0.0,0.0,0.0,0.0,0.0,0.0,0.0,0.0,0.0,0.0,0.0,0.0,0.0,0.0,0.0,0.0,0.0,0.0,0.0,0.0,0.0,0.0,0.0,0.0,0.0,0.0,0.0,0.0,0.0,0.0,0.0,0.0,0.0,0.0,0.0,0.0,0.0,0.0,0.0,0.0,0.0,0.0,0.0,0.0,0.0,0.0,0.0,0.0,0.0,0.0,0.0,0.0,0.0,0.0,0.0,0.0,0.0,0.0,0.0,0.0,0.0,0.0,0.0,0.0,0.0,0.0,0.0,0.0,0.0,0.0,0.0,0.0,0.0,0.0,0.0,0.0,0.0,0.0,0.0,0.0,0.0,0.0,0.0,0.0,0.0,0.0,0.0,0.0,0.0,0.0,0.0,0.0,0.0,0.0,0.0,0.0,0.0,0.0,0.0,0.0,0.0,0.0,0.0,0.0,0.0,0.0,0.0,0.0,0.0,0.0,0.0,0.0,0.0,0.0,0.0,0.0,0.0,0.0,0.0,0.0,0.0,0.0,0.0,0.0,0.0,0.0,0.0,0.0,0.0,0.0,0.0,0.0,0.0,0.0,0.0,0.0,0.0,0.0,0.0,0.0,0.0,0.0,0.0,0.0,0.0,0.0,0.0,0.0,0.0,0.0,0.0,0.0,0.0,0.0,0.0,0.0,0.0,0.0,0.0,0.0,0.0,0.0,0.0,0.0,0.0,0.0,0.0,0.0,0.0,0.0,0.0,0.0,0.0,0.0,0.0,0.0,0.0,0.0,0.0,0.0,0.0,0.0,0.0,0.0,0.0,0.0,0.0,0.0,0.0,0.0,0.0,0.0,0.0,0.0,0.0,0.0,0.0,0.0,0.0,0.0,0.0,0.0,0.0,0.0,0.0,0.0,0.0,0.0,0.0,0.0,0.0,0.0,0.0,0.0,0.0,0.0,0.0,0.0,0.0,0.0,0.0,0.0,0.0,0.0,0.0,0.0,0.0,0.0,0.0,0.0,0.0,0.0,0.0,0.0,0.0,0.0,0.0,0.0,0.0,0.0,0.0,0.0,0.0,0.0,0.0,0.0,0.0,0.0,0.0,0.0,0.0,0.0,0.0,0.0,0.0,0.0,0.0,0.0,0.0,0.0,0.0,0.0,0.0,0.0,0.0,0.0,0.0,0.0,0.0,0.0,0.0,0.0,0.0,0.0,0.0,0.0,0.0,0.0,0.0,0.0,0.0,0.0,0.0,0.0,0.0,0.0,0.0,0.0,0.0,0.0,0.0,0.0,0.0,0.0,0.0,0.0,0.0,0.0,0.0,0.0,0.0,0.0,0.0,0.0,0.0,0.0,0.0,0.0,0.0,0.0,0.0,0.0,0.0,0.0,0.0,0.0,0.0,0.0,0.0,0.0,0.0,0.0,0.0,0.0,0.0,0.0,0.0,0.0,0.0,0.0,0.0,0.0,0.0,0.0,0.0,0.0,0.0,0.0,0.0,0.0,0.0,0.0,0.0,0.0,0.0,0.0,0.0,0.0,0.0,0.0,0.0,0.0,0.0,0.0,0.0,0.0,0.0,0.0,0.0,0.0,0.0,0.0,0.0,0.0,0.0,0.0,0.0,0.0,0.0,0.0,0.0,0.0,0.0,0.0,0.0,0.0,0.0,0.0,0.0,0.0,0.0,0.0,0.0,0.0,0.0,0.0,0.0,0.0,0.0,0.0,0.0,0.0,0.0,0.0,0.0,0.0,0.0,0.0,0.0,0.0,0.0,0.0,0.0,0.0,0.0,0.0,0.0,0.0,0.0,0.0,0.0,0.0,0.0,0.0,0.0,0.0,0.0,0.0,0.0,0.0,0.0,0.0,0.0,0.0,0.0,0.0,0.0,0.0,0.0,0.0,0.0,0.0,0.0,0.0,0.0,0.0,0.0,0.0,0.0,0.0,0.0,0.0,0.0,0.0,0.0,0.0,0.0,0.0,0.0,0.0,0.0,0.0,0.0,0.0,0.0,0.0,0.0,0.0,0.0,0.0,0.0,0.0,0.0,0.0,0.0,0.0,0.0,0.0,0.0,0.0,0.0,0.0,0.0,0.0,0.0,0.0,0.0,0.0,0.0,0.0,0.0,0.0,0.0,0.0,0.0,0.0,0.0,0.0,0.0,0.0,0.0,0.0,0.0,0.0,0.0,0.0,0.0,0.0,0.0,0.0,0.0,0.0,0.0,0.0,0.0,0.0,0.0,0.0,0.0,0.0,0.0,0.0,0.0,0.0,0.0,0.0,0.0,0.0,0.0,0.0,0.0,0.0,0.0,0.0,0.0,0.0,0.0,0.0,0.0,0.0,0.0,0.0,0.0,0.0,0.0,0.0,0.0,0.0,0.0,0.0,0.0,0.0,0.0,0.0,0.0,0.0,0.0,0.0,0.0,0.0,0.0,0.0,0.0,0.0,0.0,0.0,0.0,0.0,0.0,0.0,0.0,0.0,0.0,0.0,0.0,0.0,0.0,0.0,0.0,0.0,0.0,0.0,0.0,0.0,0.0,0.0,0.0,0.0,0.0,0.0,0.0,0.0,0.0,0.0,0.0,0.0,0.0,0.0,0.0,0.0,0.0,0.0,0.0,0.0,0.0,0.0,0.0,0.0,0.0,0.0,0.0,0.0,0.0,0.0,0.0,0.0,0.0,0.0,0.0,0.0,0.0,0.0,0.0,0.0,0.0,0.0,0.0,0.0,0.0,0.0,0.0,0.0,0.0,0.0,0.0,0.0,0.0,0.0,0.0,0.0,0.0,0.0,0.0,0.0,0.0,0.0,0.0,0.0,0.0,0.0,0.0,0.0,0.0,0.0,0.0,0.0,0.0,0.0,0.0,0.0,0.0,0.0,0.0,0.0,0.0,0.0,0.0,0.0,0.0,0.0,0.0,0.0,0.0,0.0,0.0,0.0,0.0,0.0,1.4206,0.0,0.0,0.0,0.0,0.0,0.0,0.0,0.0,0.0,0.0,0.0,0.0,0.0,0.0,0.0,0.0,0.0,0.0,0.0,0.0,0.0,0.0,0.0,0.0,0.0,0.0,0.0,0.0,0.0,0.0,0.0,0.0,0.0,0.0,0.0,0.0,0.0,0.0,0.0,0.0,0.0,0.0,0.0,0.0,0.0,0.0,0.0,0.0,0.0,0.0,0.0,0.0,0.0,0.0,0.0,0.0,0.0,0.0,0.0,0.0,0.0,0.0,0.0,0.0,0.0,0.0,0.0,0.0,0.0,0.0,0.0,0.0,0.0,0.0,0.0,0.0,0.0,0.0,0.0,0.0,0.0,0.0,0.0,0.0,0.0,0.0,0.0,0.0,0.0,0.0,0.0,0.0,0.0,0.0,0.0,0.0,0.0,0.0,0.0,0.0,0.0,0.0,0.0,0.0,0.0,0.0,0.0,0.0,0.0,0.0,1.4417,1.4332,1.4211,1.4132,1.4094,0.0,0.0,0.0,0.0,0.0,0.0,0.0,0.0,0.0,0.0,0.0,0.0,0.0,0.0,0.0,0.0,0.0,0.0,0.0,0.0,0.0,0.0,0.0,0.0,0.0,0.0,0.0,0.0,0.0,0.0,0.0,0.0,0.0,0.0,0.0,0.0,0.0,0.0,0.0,0.0,0.0,0.0,0.0,0.0,0.0,0.0,0.0,0.0,0.0,0.0,0.0,0.0,0.0,0.0,0.0,0.0,0.0,0.0,0.0,0.0,0.0,0.0,0.0,0.0,0.0,0.0,0.0,0.0,0.0,0.0,0.0,0.0,0.0,0.0,0.0,0.0,0.0,0.0,0.0,0.0,0.0,0.0,0.0,0.0,0.0,0.0,0.0,0.0,0.0,0.0,0.0,0.0,0.0,0.0,0.0,0.0,0.0,0.0,0.0,0.0,0.0,0.0,0.0,0.0,0.0,0.0,0.0,0.0,0.0,0.0,0.0,0.0,1.4268,1.4182,1.4175,0.0,0.0,0.0,0.0,0.0,0.0,0.0,0.0,0.0,0.0,0.0,0.0,0.0,0.0,0.0,0.0,0.0,0.0,0.0,0.0,0.0,0.0,0.0,0.0,0.0,0.0,0.0,0.0,0.0,0.0,0.0,0.0,0.0,0.0,0.0,0.0,0.0,0.0,0.0,0.0,0.0,0.0,0.0,0.0,0.0,0.0,0.0,0.0,0.0,0.0,0.0,0.0,0.0,0.0,0.0,0.0,0.0,0.0,0.0,0.0,0.0,0.0,0.0,0.0,0.0,0.0,0.0,0.0,0.0,0.0,0.0,0.0,0.0,0.0,0.0,0.0,0.0,0.0,0.0,0.0,0.0,0.0,0.0,0.0,0.0,0.0,0.0,0.0,0.0,0.0,0.0,0.0,0.0,0.0,0.0,0.0,0.0,0.0,0.0,0.0,0.0,0.0,0.0,0.0,0.0,0.0,0.0,0.0,0.0,0.0,1.4634,1.5091,1.4857,0.0,1.4704,0.0,0.0,0.0,0.0,0.0,0.0,0.0,0.0,0.0,0.0,0.0,0.0,0.0,0.0,0.0,0.0,0.0,0.0,0.0,0.0,0.0,0.0,0.0,0.0,0.0,0.0,0.0,0.0,0.0,0.0,0.0,0.0,0.0,0.0,0.0,0.0,0.0,0.0,0.0,0.0,0.0,0.0,0.0,0.0,0.0,0.0,0.0,0.0,0.0,0.0,0.0,0.0,0.0,0.0,0.0,0.0,0.0,0.0,0.0,0.0,0.0,0.0,0.0,0.0,0.0,0.0,0.0,0.0,0.0,0.0,0.0,0.0,0.0,0.0,0.0,0.0,0.0,0.0,0.0,0.0,0.0,0.0,0.0,0.0,0.0,0.0,0.0,0.0,0.0,0.0,0.0,0.0,0.0,0.0,0.0,0.0,0.0,0.0,0.0,0.0,0.0,0.0,0.0,0.0,0.0,0.0,0.0,0.0,0.0,0.0,1.4977,1.4899,1.476,1.4768,0.0,0.0,0.0,0.0,0.0,0.0,0.0,0.0,0.0,0.0,0.0,0.0,0.0,0.0,0.0,0.0,0.0,0.0,0.0,0.0,0.0,0.0,0.0,0.0,0.0,0.0,0.0,0.0,0.0,0.0,0.0,0.0,0.0,0.0,0.0,0.0,0.0,0.0,0.0,0.0,0.0,0.0,0.0,0.0,0.0,0.0,0.0,0.0,0.0,0.0,0.0,0.0,0.0,0.0,0.0,0.0,0.0,0.0,0.0,0.0,0.0,0.0,0.0,0.0,0.0,0.0,0.0,0.0,0.0,0.0,0.0,0.0,0.0,0.0,0.0,0.0,0.0,0.0,0.0,0.0,0.0,0.0,0.0,0.0,0.0,0.0,0.0,0.0,0.0,0.0,0.0,0.0,0.0,0.0,0.0,0.0,0.0,0.0,0.0,0.0,0.0,0.0,0.0,0.0,0.0,0.0,0.0,0.0,0.0,0.0,1.4937,0.0,1.4847,1.471,1.4744,1.4966,0.0,0.0,0.0,0.0,0.0,0.0,0.0,0.0,0.0,0.0,0.0,0.0,0.0,0.0,0.0,0.0,0.0,0.0,0.0,0.0,0.0,0.0,0.0,0.0,0.0,0.0,0.0,0.0,0.0,0.0,0.0,0.0,0.0,0.0,0.0,0.0,0.0,0.0,0.0,0.0,0.0,0.0,0.0,0.0,0.0,0.0,0.0,0.0,0.0,0.0,0.0,0.0,0.0,0.0,0.0,0.0,0.0,0.0,0.0,0.0,0.0,0.0,0.0,0.0,0.0,0.0,0.0,0.0,0.0,0.0,0.0,0.0,0.0,0.0,0.0,0.0,0.0,0.0,0.0,0.0,0.0,0.0,0.0,0.0,0.0,0.0,0.0,0.0,0.0,0.0,0.0,0.0,0.0,0.0,0.0,0.0,0.0,0.0,0.0,0.0,0.0,0.0,0.0,0.0,0.0,0.0,0.0,0.0,0.0,1.4889,1.4817,1.5181,1.4874,1.471,0.0,0.0,0.0,0.0,0.0,0.0,0.0,0.0,0.0,0.0,0.0,0.0,0.0,0.0,0.0,0.0,0.0,0.0,0.0,0.0,0.0,0.0,0.0,0.0,0.0,0.0,0.0,0.0,0.0,0.0,0.0,0.0,0.0,0.0,0.0,0.0,0.0,0.0,0.0,0.0,0.0,0.0,0.0,0.0,0.0,0.0,0.0,0.0,0.0,0.0,0.0,0.0,0.0,0.0,0.0,0.0,0.0,0.0,0.0,0.0,0.0,0.0,0.0,0.0,0.0,0.0,0.0,0.0,0.0,0.0,0.0,0.0,0.0,0.0,0.0,0.0,0.0,0.0,0.0,0.0,0.0,0.0,0.0,0.0,0.0,0.0,0.0,0.0,0.0,0.0,0.0,0.0,0.0,0.0,0.0,0.0,0.0,0.0,0.0,0.0,0.0,0.0,0.0,0.0,0.0,0.0,0.0,0.0,0.0,1.4124,1.4111,1.48,1.6184,1.5028,1.473,0.0,0.0,0.0,0.0,0.0,0.0,0.0,0.0,0.0,0.0,0.0,0.0,0.0,0.0,0.0,0.0,0.0,0.0,0.0,0.0,0.0,0.0,0.0,0.0,0.0,0.0,0.0,0.0,0.0,0.0,0.0,0.0,0.0,0.0,0.0,0.0,0.0,0.0,0.0,0.0,0.0,0.0,0.0,0.0,0.0,0.0,0.0,0.0,0.0,0.0,0.0,0.0,0.0,0.0,0.0,0.0,0.0,0.0,0.0,0.0,0.0,0.0,0.0,0.0,0.0,0.0,0.0,0.0,0.0,0.0,0.0,0.0,0.0,0.0,0.0,0.0,0.0,0.0,0.0,0.0,0.0,0.0,0.0,0.0,0.0,0.0,0.0,0.0,0.0,0.0,0.0,0.0,0.0,0.0,0.0,0.0,0.0,0.0,0.0,0.0,0.0,0.0,0.0,0.0,0.0,0.0,0.0,0.0,0.0,1.3636,0.0,1.4552,0.0,1.4927,1.4614,0.0,0.0,0.0,0.0,0.0,0.0,0.0,0.0,0.0,0.0,0.0,0.0,0.0,0.0,0.0,0.0,0.0,0.0,0.0,0.0,0.0,0.0,0.0,0.0,0.0,0.0,0.0,0.0,0.0,0.0,0.0,0.0,0.0,0.0,0.0,0.0,0.0,0.0,0.0,0.0,0.0,0.0,0.0,0.0,0.0,0.0,0.0,0.0,0.0,0.0,0.0,0.0,0.0,0.0,0.0,0.0,0.0,0.0,0.0,0.0,0.0,0.0,0.0,0.0,0.0,0.0,0.0,0.0,0.0,0.0,0.0,0.0,0.0,0.0,0.0,0.0,0.0,0.0,0.0,0.0,0.0,0.0,0.0,0.0,0.0,0.0,0.0,0.0,0.0,0.0,0.0,0.0,0.0,0.0,0.0,0.0,0.0,0.0,0.0,0.0,0.0,0.0,0.0,0.0,0.0,0.0,0.0,0.0,1.3188,1.4105,1.4084,1.3992,1.3856,1.4577,1.4363,0.0,0.0,0.0,0.0,0.0,0.0,0.0,0.0,0.0,0.0,0.0,0.0,0.0,0.0,0.0,0.0,0.0,0.0,0.0,0.0,0.0,0.0,0.0,0.0,0.0,0.0,0.0,0.0,0.0,0.0,0.0,0.0,0.0,0.0,0.0,0.0,0.0,0.0,0.0,0.0,0.0,0.0,0.0,0.0,0.0,0.0,0.0,0.0,0.0,0.0,0.0,0.0,0.0,0.0,0.0,0.0,0.0,0.0,0.0,0.0,0.0,0.0,0.0,0.0,0.0,0.0,0.0,0.0,0.0,0.0,0.0,0.0,0.0,0.0,0.0,0.0,0.0,0.0,0.0,0.0,0.0,0.0,0.0,0.0,0.0,0.0,0.0,0.0,0.0,0.0,0.0,0.0,0.0,0.0,0.0,0.0,0.0,0.0,0.0,0.0,0.0,0.0,0.0,0.0,0.0,0.0,0.0,0.0,0.0,1.2593,1.2763,1.3265,1.4095,1.4027,1.4137,0.0,0.0,0.0,0.0,0.0,0.0,0.0,0.0,0.0,0.0,0.0,0.0,0.0,0.0,0.0,0.0,0.0,0.0,0.0,0.0,0.0,0.0,0.0,0.0,0.0,0.0,0.0,0.0,0.0,0.0,0.0,0.0,0.0,0.0,0.0,0.0,0.0,0.0,0.0,0.0,0.0,0.0,0.0,0.0,0.0,0.0,0.0,0.0,0.0,0.0,0.0,0.0,0.0,0.0,0.0,0.0,0.0,0.0,0.0,0.0,0.0,0.0,0.0,0.0,0.0,0.0,0.0,0.0,0.0,0.0,0.0,0.0,0.0,0.0,0.0,0.0,0.0,0.0,0.0,0.0,0.0,0.0,0.0,0.0,0.0,0.0,0.0,0.0,0.0,0.0,0.0,0.0,0.0,0.0,0.0,0.0,0.0,0.0,0.0,0.0,0.0,0.0,0.0,0.0,0.0,0.0,0.0,0.0,0.0,1.0679,1.1816,1.2892,1.3903,1.3746,1.3907,1.4457,0.0,0.0,0.0,0.0,0.0,0.0,0.0,0.0,0.0,0.0,0.0,0.0,0.0,0.0,0.0,0.0,0.0,0.0,0.0,0.0,0.0,0.0,0.0,0.0,0.0,0.0,0.0,0.0,0.0,0.0,0.0,0.0,0.0,0.0,0.0,0.0,0.0,0.0,0.0,0.0,0.0,0.0,0.0,0.0,0.0,0.0,0.0,0.0,0.0,0.0,0.0,0.0,0.0,0.0,0.0,0.0,0.0,0.0,0.0,0.0,0.0,0.0,0.0,0.0,0.0,0.0,0.0,0.0,0.0,0.0,0.0,0.0,0.0,0.0,0.0,0.0,0.0,0.0,0.0,0.0,0.0,0.0,0.0,0.0,0.0,0.0,0.0,0.0,0.0,0.0,0.0,0.0,0.0,0.0,0.0,0.0,0.0,0.0,0.0,0.0,0.0,0.0,0.0,0.0,0.0,0.0,0.0,0.0,0.856,1.1099,1.2666,1.3218,1.3674,1.3739,0.0,0.0,0.0,0.0,0.0,0.0,0.0,0.0,0.0,0.0,0.0,0.0,0.0,0.0,0.0,0.0,0.0,0.0,0.0,0.0,0.0,0.0,0.0,0.0,0.0,0.0,0.0,0.0,0.0,0.0,0.0,0.0,0.0,0.0,0.0,0.0,0.0,0.0,0.0,0.0,0.0,0.0,0.0,0.0,0.0,0.0,0.0,0.0,0.0,0.0,0.0,0.0,0.0,0.0,0.0,0.0,0.0,0.0,0.0,0.0,0.0,0.0,0.0,0.0,0.0,0.0,0.0,0.0,0.0,0.0,0.0,0.0,0.0,0.0,0.0,0.0,0.0,0.0,0.0,0.0,0.0,0.0,0.0,0.0,0.0,0.0,0.0,0.0,0.0,0.0,0.0,0.0,0.0,0.0,0.0,0.0,0.0,0.0,0.0,0.0,0.0,0.0,0.0,0.0,0.0,0.0,0.0,0.0,0.0,0.8235,0.9666,1.1091,1.2373,1.3425,1.3921,0.0,0.0,0.0,0.0,0.0,0.0,0.0,0.0,0.0,0.0,0.0,0.0,0.0,0.0,0.0,0.0,0.0,0.0,0.0,0.0,0.0,0.0,0.0,0.0,0.0,0.0,0.0,0.0,0.0,0.0,0.0,0.0,0.0,0.0,0.0,0.0,0.0,0.0,0.0,0.0,0.0,0.0,0.0,0.0,0.0,0.0,0.0,0.0,0.0,0.0,0.0,0.0,0.0,0.0,0.0,0.0,0.0,0.0,0.0,0.0,0.0,0.0,0.0,0.0,0.0,0.0,0.0,0.0,0.0,0.0,0.0,0.0,0.0,0.0,0.0,0.0,0.0,0.0,0.0,0.0,0.0,0.0,0.0,0.0,0.0,0.0,0.0,0.0,0.0,0.0,0.0,0.0,0.0,0.0,0.0,0.0,0.0,0.0,0.0,0.0,0.0,0.0,0.0,0.0,0.0,0.0,0.0,0.0,0.7211,0.6478,0.8014,0.9605,1.1178,1.2754,1.3663,0.0,0.0,0.0,0.0,0.0,0.0,0.0,0.0,0.0,0.0,0.0,0.0,0.0,0.0,0.0,0.0,0.0,0.0,0.0,0.0,0.0,0.0,0.0,0.0,0.0,0.0,0.0,0.0,0.0,0.0,0.0,0.0,0.0,0.0,0.0,0.0,0.0,0.0,0.0,0.0,0.0,0.0,0.0,0.0,0.0,0.0,0.0,0.0,0.0,0.0,0.0,0.0,0.0,0.0,0.0,0.0,0.0,0.0,0.0,0.0,0.0,0.0,0.0,0.0,0.0,0.0,0.0,0.0,0.0,0.0,0.0,0.0,0.0,0.0,0.0,0.0,0.0,0.0,0.0,0.0,0.0,0.0,0.0,0.0,0.0,0.0,0.0,0.0,0.0,0.0,0.0,0.0,0.0,0.0,0.0,0.0,0.0,0.0,0.0,0.0,0.0,0.0,0.0,0.0,0.0,0.0,0.0,0.0,0.5832,0.427,0.6362,0.8286,0.9883,1.1926,1.3198,0.0,0.0,0.0,0.0,0.0,0.0,0.0,0.0,0.0,0.0,0.0,0.0,0.0,0.0,0.0,0.0,0.0,0.0,0.0,0.0,0.0,0.0,0.0,0.0,0.0,0.0,0.0,0.0,0.0,0.0,0.0,0.0,0.0,0.0,0.0,0.0,0.0,0.0,0.0,0.0,0.0,0.0,0.0,0.0,0.0,0.0,0.0,0.0,0.0,0.0,0.0,0.0,0.0,0.0,0.0,0.0,0.0,0.0,0.0,0.0,0.0,0.0,0.0,0.0,0.0,0.0,0.0,0.0,0.0,0.0,0.0,0.0,0.0,0.0,0.0,0.0,0.0,0.0,0.0,0.0,0.0,0.0,0.0,0.0,0.0,0.0,0.0,0.0,0.0,0.0,0.0,0.0,0.0,0.0,0.0,0.0,0.0,0.0,0.0,0.0,0.0,0.0,0.0,0.0,0.0,0.0,0.0,0.0,0.5273,0.3539,0.5237,0.7219,0.9328,1.1724,1.317,0.0,0.0,0.0,0.0,0.0,0.0,0.0,0.0,0.0,0.0,0.0,0.0,0.0,0.0,0.0,0.0,0.0,0.0,0.0,0.0,0.0,0.0,0.0,0.0,0.0,0.0,0.0,0.0,0.0,0.0,0.0,0.0,0.0,0.0,0.0,0.0,0.0,0.0,0.0,0.0,0.0,0.0,0.0,0.0,0.0,0.0,0.0,0.0,1.1496,0.0,0.0,0.0,0.0,0.0,0.0,0.0,0.0,0.0,0.0,0.0,0.0,0.0,0.0,0.0,0.0,0.0,0.0,0.0,0.0,0.0,0.0,0.0,0.0,0.0,0.0,0.0,0.0,0.0,0.0,0.0,0.0,0.0,0.0,0.0,0.0,0.0,0.0,0.0,0.0,0.0,0.0,0.0,0.0,0.0,0.0,0.0,0.0,0.0,0.0,0.0,0.0,0.0,0.0,0.0,0.0,0.0,0.0,0.0,0.4124,0.2799,0.4659,0.6735,0.8805,1.0748,1.2056,0.0,0.0,0.0,0.0,0.0,0.0,0.0,0.0,0.0,0.0,0.0,0.0,0.0,0.0,0.0,0.0,0.0,0.0,0.0,0.0,0.0,0.0,0.0,0.0,0.0,0.0,0.0,0.0,0.0,0.0,0.0,0.0,0.0,0.0,0.0,0.0,0.0,0.0,0.0,0.0,0.0,0.0,0.0,0.0,0.0,0.0,0.0,0.0,0.0,0.0,0.0,0.0,0.0,0.0,0.0,0.0,0.0,0.0,0.0,0.0,0.0,0.0,0.0,0.0,0.0,0.0,0.0,0.0,0.0,0.0,0.0,0.0,0.0,0.0,0.0,0.0,0.0,0.0,0.0,0.0,0.0,0.0,0.0,0.0,0.0,0.0,0.0,0.0,0.0,0.0,0.0,0.0,0.0,0.0,0.0,0.0,0.0,0.0,0.0,0.0,0.0,0.0,0.0,0.0,0.0,0.0,0.0,0.3583,0.3156,0.2362,0.4234,0.6252,0.8194,0.9346,1.0402,1.133,0.0,0.0,0.0,0.0,0.0,0.0,0.0,0.0,0.0,0.0,0.0,0.0,0.0,0.0,0.0,0.0,0.0,0.0,0.0,0.0,0.0,0.0,0.0,0.0,0.0,0.0,0.0,0.0,0.0,0.0,0.0,0.0,0.0,0.0,0.0,0.0,0.0,0.0,1.0612,1.1313,0.0,0.0,0.0,0.0,0.0,0.0,0.0,0.0,1.1358,0.0,0.0,0.0,0.0,0.0,0.0,0.0,0.0,0.0,0.0,0.0,0.0,0.0,0.0,0.0,0.0,0.0,0.0,0.0,0.0,0.0,0.0,0.0,0.0,0.0,0.0,0.0,0.0,0.0,0.0,0.0,0.0,0.0,0.0,0.0,0.0,0.0,0.0,0.0,0.0,0.0,0.0,0.0,0.0,0.0,0.0,0.0,0.0,0.0,0.0,0.0,0.0,0.0,0.0,0.0,0.0,0.3317,0.3761,0.3605,0.28,0.3651,0.5077,0.7079,0.7949,0.8705,0.9413,0.0,0.0,0.0,0.0,0.0,0.0,0.0,0.0,0.0,0.0,0.0,0.0,0.0,0.0,0.0,0.0,0.0,0.0,0.0,0.0,0.0,0.0,0.0,0.0,0.0,0.0,0.0,0.0,0.0,0.0,0.0,0.0,0.0,0.0,0.0,0.0,0.0,0.0,0.0,1.1781,1.1943,0.0,0.0,0.0,0.0,0.0,0.0,0.0,0.0,1.1262,0.0,0.0,0.0,0.0,0.0,0.0,0.0,0.0,0.0,0.0,0.0,0.0,0.0,0.0,0.0,0.0,0.0,0.0,0.0,0.0,0.0,0.0,0.0,0.0,0.0,0.0,0.0,0.0,0.0,0.0,0.0,0.0,0.0,0.0,0.0,0.0,0.0,0.0,0.0,0.0,0.0,0.0,0.0,0.0,0.0,0.0,0.0,0.0,0.0,0.0,0.0,0.0,0.0,0.0,0.0,0.3144,0.2932,0.2789,0.2669,0.3687,0.5047,0.6719,0.713,0.7728,0.0,0.0,0.0,0.0,0.0,0.0,0.0,0.0,0.0,0.0,0.0,0.0,0.0,0.0,0.0,0.0,0.0,0.0,0.0,0.0,0.0,0.0,0.0,0.0,0.0,0.0,0.0,0.0,0.0,0.0,0.0,0.0,0.0,0.0,0.0,0.0,0.0,0.0,0.0,0.0,1.1956,1.2178,1.1957,0.0,0.0,0.0,0.0,0.0,0.0,1.133,1.1355,0.0,0.0,0.0,0.0,0.0,0.0,0.0,0.0,0.0,0.0,0.0,0.0,0.0,0.0,0.0,0.0,0.0,0.0,0.0,0.0,0.0,0.0,0.0,0.0,0.0,0.0,0.0,0.0,0.0,0.0,0.0,0.0,0.0,0.0,0.0,0.0,0.0,0.0,0.0,0.0,0.0,0.0,0.0,0.0,0.0,0.0,0.0,0.0,0.0,0.0,0.0,0.0,0.0,0.0,0.0,0.3115,0.2291,0.2127,0.2706,0.3818,0.505,0.6322,0.6608,0.7116,0.0,0.0,0.0,0.0,0.0,0.0,0.0,0.0,0.0,0.0,0.0,0.0,0.0,0.0,0.0,0.0,0.0,0.0,0.0,0.0,0.0,0.0,0.0,0.0,0.0,0.0,0.0,0.0,0.0,0.0,0.0,0.0,0.0,0.0,0.0,0.0,0.0,0.0,0.0,0.0,0.0,1.2278,1.1563,1.2005,0.0,0.0,0.0,0.0,1.1968,1.1667,0.0,0.0,0.0,0.0,0.0,0.0,0.0,0.0,0.0,0.0,0.0,0.0,0.0,0.0,0.0,0.0,0.0,0.0,0.0,0.0,0.0,0.0,0.0,0.0,0.0,0.0,0.0,0.0,0.0,0.0,0.0,0.0,0.0,0.0,0.0,0.0,0.0,0.0,0.0,0.0,0.0,0.0,0.0,0.0,0.0,0.0,0.0,0.0,0.0,0.0,0.0,0.0,0.0,0.0,0.0,0.0,0.3838,0.2902,0.2807,0.3606,0.3823,0.4356,0.5282,0.6259,0.6832,0.0,0.0,0.0,0.0,0.0,0.0,0.0,0.0,0.0,0.0,0.0,0.0,0.0,0.0,0.0,0.0,0.0,0.0,0.0,0.0,0.0,0.0,0.0,0.0,0.0,0.0,0.0,0.0,0.0,0.0,0.0,0.0,0.0,0.0,0.0,0.0,0.0,0.0,0.0,0.0,0.0,1.2008,1.2005,1.1699,1.1638,0.0,0.0,1.1424,1.3049,1.2686,0.0,0.0,0.0,0.0,0.0,0.0,0.0,0.0,0.0,0.0,0.0,0.0,0.0,0.0,0.0,0.0,0.0,0.0,0.0,0.0,0.0,0.0,0.0,0.0,0.0,0.0,0.0,0.0,0.0,0.0,0.0,0.0,0.0,0.0,0.0,0.0,0.0,0.0,0.0,0.0,0.0,0.0,0.0,0.0,0.0,0.0,0.0,0.0,0.0,0.0,0.0,0.0,0.0,0.0,0.0,0.3501,0.3344,0.2653,0.2323,0.2409,0.3082,0.3687,0.4187,0.4548,0.5156,0.0,0.0,0.0,0.0,0.0,0.0,0.0,0.0,0.0,0.0,0.0,0.0,0.0,0.0,0.0,0.0,0.0,0.0,0.0,0.0,0.0,0.0,0.0,0.0,0.0,0.0,0.0,0.0,0.0,0.0,0.0,0.0,0.0,0.0,0.0,0.0,0.0,0.0,0.0,0.0,0.0,0.0,1.0968,1.124,0.0,0.0,0.0,1.1143,1.2289,0.0,0.0,0.0,0.0,0.0,0.0,0.0,0.0,0.0,0.0,0.0,0.0,0.0,0.0,0.0,0.0,0.0,0.0,0.0,0.0,0.0,0.0,0.0,0.0,0.0,0.0,0.0,0.0,0.0,0.0,0.0,0.0,0.0,0.0,0.0,0.0,0.0,0.0,0.0,0.0,0.0,0.0,0.0,0.0,0.0,0.0,0.0,0.0,0.0,0.0,0.0,0.0,0.0,0.0,0.0,0.0,0.0,0.2774,0.2132,0.1643,0.1408,0.231,0.2913,0.3147,0.3108,0.0,0.0,0.0,0.0,0.0,0.0,0.0,0.0,0.0,0.0,0.0,0.0,0.0,0.0,0.0,0.0,0.0,0.0,0.0,0.0,0.0,0.0,0.0,0.0,0.0,0.0,0.0,0.7322,0.0,0.0,0.0,0.0,0.0,0.0,0.0,0.0,0.0,0.0,0.0,0.0,0.0,0.0,1.0395,0.9993,1.0397,1.062,0.0,0.0,1.0647,1.1694,1.1625,1.1704,0.0,0.0,0.0,0.0,0.0,0.0,0.0,0.0,0.0,0.0,0.0,0.0,0.0,0.0,0.0,0.0,0.0,0.0,0.0,0.0,0.0,0.0,0.0,0.0,0.0,0.0,0.0,0.0,0.0,0.0,0.0,0.0,0.0,0.0,0.0,0.0,0.0,0.0,0.0,0.0,0.0,0.0,0.0,0.0,0.0,0.0,0.0,0.0,0.0,0.0,0.0,0.0,0.0,0.0,0.2211,0.2469,0.1445,0.1108,0.1575,0.1676,0.1844,0.2179,0.2741,0.354,0.0,0.0,0.0,0.0,0.0,0.0,0.0,0.0,0.0,0.0,0.0,0.0,0.0,0.0,0.0,0.0,0.0,0.0,0.0,0.0,0.0,0.0,0.0,0.0,0.0,0.0,0.0,0.0,0.0,0.0,0.0,0.0,0.0,0.0,0.0,0.0,0.0,0.0,0.0,0.0,0.0,0.9003,0.9621,0.9016,0.9127,0.0,1.02,1.0135,1.197,1.1975,1.1837,1.2113,0.0,0.0,0.0,0.0,0.0,0.0,0.0,0.0,0.0,0.0,0.0,0.0,0.0,0.0,0.0,0.0,0.0,0.0,0.0,0.0,0.0,0.0,0.0,0.0,0.0,0.0,0.0,0.0,0.0,0.0,0.0,0.0,0.0,0.0,0.0,0.0,0.0,0.0,0.0,0.0,0.0,0.0,0.0,0.0,0.0,0.0,0.0,0.0,0.0,0.0,0.0,0.0,0.0,0.1565,0.1585,0.0876,0.037,0.0168,0.0571,0.0839,0.1007,0.1248,0.2123,0.0,0.0,0.0,0.0,0.0,0.0,0.0,0.0,0.0,0.0,0.0,0.0,0.0,0.0,0.0,0.0,0.0,0.0,0.0,0.0,0.0,0.0,0.0,0.0,0.0,0.0,0.0,0.0,0.5364,0.5472,0.6349,0.0,0.0,0.0,0.0,0.0,0.0,0.0,0.0,0.0,0.0,0.8466,0.8305,0.8348,0.0,0.0,0.8973,0.9503,1.084,1.0856,1.0862,1.1292,1.1234,0.0,0.0,0.0,0.0,0.0,0.0,0.0,0.0,0.0,0.0,0.0,0.0,0.0,0.0,0.0,0.0,0.0,0.0,0.0,0.0,0.0,0.0,0.0,0.0,0.0,0.0,0.0,0.0,0.0,0.0,0.0,0.0,0.0,0.0,0.0,0.0,0.0,0.0,0.0,0.0,0.0,0.0,0.0,0.0,0.0,0.0,0.0,0.0,0.0,0.0,0.0,0.0,0.0889,0.0689,0.0,-0.0471,-0.0707,-0.0202,0.0101,0.0201,0.0097,0.0743,0.0,0.0,0.0,0.0,0.0,0.0,0.0,0.0,0.0,0.0,0.0,0.0,0.0,0.0,0.0,0.0,0.0,0.0,0.0,0.0,0.0,0.0,0.0,0.0,0.0,0.0,0.0,0.0,0.463,0.4909,0.5755,0.0,0.0,0.0,0.0,0.0,0.0,0.0,0.0,0.0,0.0,0.7202,0.7002,0.73,0.7544,0.7423,0.7909,0.8648,0.9545,0.9568,0.9653,1.015,0.0,0.0,0.0,0.0,0.0,0.0,0.0,0.0,0.0,0.0,0.0,0.0,0.0,0.0,0.0,0.0,0.0,0.0,0.0,0.0,0.0,0.0,0.0,0.0,0.0,0.0,0.0,0.1338,0.0,0.0,0.1942,0.0,0.0,0.0,0.0,0.0,0.0,0.0,0.0,0.0,0.0,0.0,0.0,0.0,0.0,0.0,0.0,0.0,0.0,0.0,0.0,0.0,0.0,0.0185,-0.0107,-0.1221,-0.1412,-0.0538,-0.047,-0.0303,-0.0034,-0.0503,-0.0423,0.0367,0.0,0.0,0.0,0.0,0.0,0.0,0.0,0.0,0.0,0.0,0.0,0.0,0.0,0.0,0.0,0.0,0.0,0.0,0.0,0.0,0.0,0.0,0.0,0.0,0.0,0.0,0.5354,0.5271,0.5177,0.0,0.0,0.0,0.0,0.0,0.0,0.0,0.0,0.0,0.6669,0.5435,0.4843,0.5813,0.5668,0.5951,0.7016,0.7237,0.7489,0.8166,0.8243,0.8361,0.0,0.0,0.0,0.0,0.0,0.0,0.0,0.0,0.0,0.0,0.0,0.0,0.0,0.0,0.0,0.0,0.0,0.0,0.0,0.0,0.0,0.0,0.0,0.0,0.0,0.0,0.0,0.0829,0.0714,0.0,0.0,0.0,0.0,0.0,0.0,0.0,0.0,0.0,0.0,0.0,-0.2818,-0.3008,0.0,0.0,0.0,0.0,0.0,0.0,0.0,0.0,0.0,0.0,0.0,0.0,-0.0624,-0.0659,-0.1591,-0.1553,-0.0483,-0.038,-0.0276,-0.0138,-0.0543,-0.062,-0.0245,0.0,0.0,0.0,0.0,0.0,0.0,0.0,0.0,0.0,0.0,0.0,0.0,0.0,0.0,0.0,0.0,0.0,0.0,0.0,0.0,0.0,0.0,0.0,0.0,0.0,0.4374,0.0,0.0,0.0,0.0,0.0,0.0,0.0,0.0,0.0,0.0,0.0,0.5963,0.5723,0.5063,0.4845,0.5419,0.54,0.5641,0.0,0.0,0.0,0.0,0.0,0.0,0.0,0.0,0.0,0.0,0.0,0.0,0.0,0.0,0.622,0.6394,0.7319,0.7923,0.7456,0.0,0.0,0.0,0.0,0.0,0.0,0.0,0.0,0.0,0.0,0.0,0.0,0.0,0.0,-0.0819,-0.0923,-0.0317,0.0,0.0,0.0,0.0,0.0,0.0,0.0,0.0,-0.3396,-0.419,-0.478,-0.5036,-0.5376,-0.5756,-0.4678,-0.2959,0.0,0.0,0.0,0.0,0.0,0.0,0.0,0.0,-0.147,-0.1498,-0.2293,-0.2106,-0.0958,-0.0426,-0.0212,-0.0245,-0.0954,-0.141,-0.1433,-0.0405,0.0591,0.0,0.0,0.0,0.0,0.0,0.0,0.0,0.0,0.0,0.0,0.0,0.0,0.0,0.0,0.0,0.0,0.0,0.0,0.0,0.0,0.0,0.0,0.0,0.3808,0.0,0.0,0.0,0.0,0.0,0.0,0.0,0.0,0.0,0.6012,0.5436,0.485,0.4649,0.4175,0.412,0.493,0.0,0.0,0.0,0.0,0.0,0.0,0.0,0.7479,0.7183,0.7222,0.7033,0.6285,0.5566,0.5117,0.5305,0.0,0.0,0.5618,0.6365,0.6795,0.6303,0.7474,0.8378,0.7669,0.8165,0.855,0.0,0.0,0.0,0.0,-0.1914,0.0,0.0,0.0,-0.3274,-0.3212,0.0,-0.1759,0.0,0.0,0.0,0.0,-0.23,-0.3511,0.0,0.0,-0.5524,-0.6201,-0.6222,-0.6251,-0.6544,-0.7018,-0.5713,-0.489,-0.4469,-0.2597,0.0,0.0,0.0,0.0,0.0,0.0,-0.2266,-0.2533,-0.3196,-0.3016,-0.1891,-0.0656,-0.0108,-0.035,-0.1668,-0.2652,-0.3127,-0.2026,-0.1219,-0.0724,0.1371,0.0,0.0,0.0,0.0,0.0,0.0,0.0,0.0,0.0,0.0,0.0,0.0,0.0,0.0,0.0,0.0,0.0,0.0,0.0,0.0,0.3876,0.0,0.0,0.0,0.0,0.0,0.0,0.0,0.0,0.0,0.0,0.5359,0.4094,0.3177,0.3518,0.0,0.0,0.0,0.0,0.5093,0.6655,0.6874,0.6869,0.6874,0.6693,0.6378,0.5827,0.0,0.0,0.4346,0.3966,0.397,0.4504,0.4379,0.4662,0.6279,0.6468,0.6438,0.6313,0.7208,0.8008,0.7981,0.8415,0.8732,-0.7166,0.0,0.0,0.0,0.0,-0.4159,-0.4365,-0.4726,-0.4527,-0.4175,-0.3792,-0.3327,0.0,0.0,0.0,0.0,0.0,0.0,-0.4803,-0.5738,-0.6389,-0.7381,-0.8644,-0.8774,-0.9124,-0.9589,-0.8183,-0.7281,-0.678,-0.516,-0.3352,-0.1474,0.0,0.0,0.0,0.0,-0.3235,-0.3379,-0.348,-0.3041,-0.2052,-0.0897,-0.0476,-0.0874,-0.2007,-0.2811,-0.3187,-0.2872,-0.2396,-0.1699,-0.0683,0.0,0.0,0.0,0.0,0.0,0.0,0.0,0.0,0.0,0.0,0.0,0.0,0.0,0.0,0.0,0.0,0.0,0.0,0.0,0.3776,0.3274,0.3112,0.0,0.0,0.0,0.0,0.0,0.0,0.0,0.0,0.0,0.3778,0.4007,0.4193,0.0,0.0,0.3762,0.4942,0.4964,0.5281,0.6503,0.6526,0.0,0.6588,0.6037,0.564,0.5707,0.5335,0.48,0.4094,0.4215,0.4464,0.4648,0.4675,0.484,0.5265,0.5322,0.5147,0.4925,0.5788,0.6933,0.7618,0.7852,0.7736,-1.0042,-0.7664,-0.6992,-0.6645,-0.6464,-0.6322,-0.6532,-0.6943,-0.6658,-0.6312,-0.5958,-0.5037,-0.4502,-0.4301,-0.3946,0.0,0.0,0.0,-0.6395,-0.7376,-0.7897,-0.8882,-1.0165,-1.028,-1.0621,-1.1083,-0.9841,-0.8898,-0.8282,-0.664,-0.5008,-0.3312,0.0,-0.2456,-0.2789,-0.3617,-0.4106,-0.4224,-0.3923,-0.3487,-0.2906,-0.1558,-0.0779,-0.0746,-0.2007,-0.2888,-0.3326,-0.3664,-0.3673,-0.3334,-0.2391,-0.1382,0.0,0.0,0.0,0.0,0.0,0.0,0.0,0.0,0.0,0.0,0.0,0.4692,0.4686,0.0,0.0,0.0,0.3143,0.2843,0.2685,0.2627,0.0,0.0,0.0,0.0,0.0,0.0,0.0,0.3443,0.3393,0.3431,0.3781,0.4203,0.4189,0.3497,0.3156,0.3331,0.4311,0.0,0.5062,0.6061,0.6364,0.6405,0.6154,0.5617,0.5132,0.4727,0.4201,0.3771,0.3444,0.3789,0.4282,0.4654,0.5023,0.5309,0.5306,0.5124,0.4753,0.4244,0.5035,0.621,0.7441,0.781,0.7826,-1.2022,-1.1396,-0.9772,-0.8919,-0.8571,-0.8445,-0.8952,-0.977,-0.92,-0.9051,-0.9062,-0.6843,-0.6187,-0.6721,-0.5896,0.0,-0.6441,-0.7618,-0.8429,-0.9004,-0.9797,-1.05,-1.106,-1.1094,-1.1387,-1.1868,-1.0841,-0.9896,-0.9075,-0.7368,-0.6143,-0.5403,-0.4815,-0.428,-0.3893,-0.4425,-0.4848,-0.5117,-0.4466,-0.4047,-0.3908,-0.2331,-0.1082,-0.0254,-0.1839,-0.2962,-0.3424,-0.435,-0.4927,-0.5085,-0.3786,-0.3013,-0.2792,0.0,0.0,0.0,0.0,0.0,0.0,0.0,0.0,0.0,0.0,0.0,0.0,0.0,0.0,0.0,0.1814,0.0,0.1231,0.1795,0.0,0.0,0.0,0.0868,0.0222,0.0257,0.0845,0.214,0.0,0.0,0.4833,0.4464,0.3501,0.1884,0.1813,0.2235,0.3066,0.3826,0.4564,0.5337,0.6097,0.6317,0.5528,0.5157,0.4538,0.3322,0.2547,0.2384,0.254,0.3012,0.3715,0.4564,0.5351,0.5851,0.5896,0.5488,0.5005,0.4308,0.489,0.5974,0.7405,0.839,0.8613,-1.2287,-1.1772,-1.1352,-1.0791,-1.0155,-1.012,-1.0149,-1.0159,-1.0014,-0.9512,-0.8707,-0.7965,-0.7289,-0.6659,-0.6522,-0.7015,-0.7977,-0.8413,-0.9303,-1.045,-1.067,-1.1106,-1.1674,-1.168,-1.176,-1.184,-1.1004,-1.0124,-0.9223,-0.8205,-0.698,-0.5692,-0.5459,-0.5026,-0.4301,-0.4498,-0.481,-0.5261,-0.4096,-0.3135,-0.2429,-0.1958,-0.154,-0.1202,-0.233,-0.2909,-0.2921,-0.4425,-0.5014,-0.4548,-0.4363,-0.3754,-0.2662,-0.1186,0.0,0.0,0.0,0.0,0.0,0.0,0.0,0.0,0.0,0.3764,0.3781,0.0,0.3124,0.0,0.1011,-0.0027,-0.0265,-0.0086,0.0,0.0,-0.0189,-0.0126,-0.1182,-0.0607,0.0515,0.2105,0.2617,0.3251,0.4327,0.391,0.3214,0.234,0.2673,0.3192,0.3671,0.3726,0.3919,0.4354,0.4552,0.4467,0.427,0.3857,0.3304,0.2352,0.2198,0.2273,0.247,0.286,0.3483,0.4494,0.5234,0.5622,0.5699,0.5231,0.4828,0.4658,0.5105,0.6163,0.8029,0.8859,0.9163,-1.2553,-1.2101,-1.2217,-1.1597,-1.0539,-1.0922,-1.0966,-1.0845,-1.0948,-1.045,-0.9417,-0.8656,-0.7693,-0.6763,-0.7473,-0.8115,-0.8778,-0.9668,-1.0512,-1.1308,-1.1598,-1.1928,-1.2229,-1.227,-1.227,-1.2223,-1.1694,-1.0767,-0.9482,-0.89,-0.7777,-0.6168,-0.6128,-0.5752,-0.5015,-0.4853,-0.4903,-0.5153,-0.4098,-0.2945,-0.1684,-0.1816,-0.1651,-0.111,-0.2133,-0.2641,-0.2441,-0.3965,-0.4639,-0.427,-0.4263,-0.3819,-0.2838,-0.1433,-0.0346,0.0,0.0,0.0,0.0,0.0,0.0,0.0,0.0,0.0,0.0,0.0,0.1961,0.1348,-0.0114,-0.0956,-0.0794,-0.0755,-0.0989,-0.1621,-0.1508,-0.1588,-0.2144,-0.1719,-0.0508,0.1724,0.2367,0.3163,0.4476,0.4172,0.3563,0.2929,0.2849,0.2822,0.2788,0.2941,0.3234,0.3396,0.3637,0.3618,0.3299,0.2704,0.2196,0.1846,0.1845,0.2002,0.2198,0.2627,0.3287,0.4219,0.4999,0.5622,0.5935,0.5541,0.5115,0.5115,0.5154,0.5922,0.7753,0.8756,0.9251,-1.277,-1.2318,-1.2603,-1.187,-1.0614,-1.1372,-1.1483,-1.1159,-1.1423,-1.1055,-1.0233,-0.8927,-0.7805,-0.699,-0.8346,-0.9036,-0.9262,-1.0931,-1.1763,-1.1843,-1.2443,-1.2705,-1.2705,-1.2705,-1.2705,-1.2693,-1.2433,-1.1433,-0.9742,-0.9474,-0.8416,-0.6702,-0.666,-0.6303,-0.5667,-0.5244,-0.5013,-0.4887,-0.4318,-0.3231,-0.1644,-0.1948,-0.1657,-0.0807,-0.1843,-0.2391,-0.2194,-0.3444,-0.4114,-0.4101,-0.3871,-0.364,-0.3321,-0.1715,-0.0696,0.0,0.0391,0.0,0.0,0.0,0.0,0.0,0.0,0.0,0.0,0.0595,0.0321,-0.0404,-0.1313,-0.1682,-0.1188,-0.1154,-0.1543,-0.2473,-0.293,-0.3088,-0.2904,-0.2658,-0.1454,0.1292,0.2447,0.3624,0.4994,0.4829,0.4289,0.3426,0.2522,0.1767,0.1278,0.1696,0.2116,0.2278,0.2933,0.3044,0.2476,0.1827,0.1468,0.1582,0.1622,0.1657,0.1887,0.2392,0.3013,0.3793,0.453,0.5348,0.6209,0.5819,0.5428,0.5467,0.5076,0.5303,0.6881,0.8067,0.8723,-1.259,-1.2337,-1.2584,-1.2421,-1.1968,-1.2535,-1.1468,-0.9339,-0.9495,-0.9212,-0.8678,-0.8745,-0.8264,-0.7462,-0.8467,-0.9317,-1.0106,-1.1182,-1.2015,-1.2534,-1.2662,-1.2705,-1.2705,-1.2705,-1.2705,-1.2699,-1.248,-1.1514,-0.9866,-0.9656,-0.8458,-0.6335,-0.6287,-0.5944,-0.5329,0.0,0.0,0.0,-0.4465,-0.4053,-0.321,-0.2552,-0.2097,-0.1754,-0.249,0.0,-0.2577,-0.3673,-0.4136,-0.3663,-0.3889,0.0,0.0,0.0,0.0,0.0,0.0,0.0,0.0,0.0,0.0,0.0,-0.0269,-0.0236,-0.0058,-0.0213,-0.0738,-0.1697,-0.2025,-0.2388,-0.3015,-0.3013,-0.3362,-0.4301,-0.3878,-0.3614,-0.3712,-0.2129,-0.024,0.1448,0.3444,0.49,0.5371,0.5326,0.4769,0.3405,0.2134,0.0978,0.0044,0.0088,0.0264,0.0476,0.1311,0.1712,0.1539,0.1575,0.1562,0.1586,0.1577,0.1647,0.186,0.2243,0.2588,0.3059,0.3595,0.4338,0.516,0.4807,0.4691,0.524,0.5002,0.4993,0.5986,0.6639,0.7256,-1.291,-1.2916,-1.3049,-1.2707,0.0,-1.2377,-1.1404,-0.9673,-1.0768,-1.0781,-1.0018,-0.9907,-0.9518,-0.8977,-0.9443,-0.9914,-1.0369,-1.0742,-1.1328,-1.2058,-1.2064,-1.2284,-1.2699,-1.2229,-1.2015,-1.2015,-1.1445,-1.0491,-0.9231,-0.9109,-0.8233,-0.6662,-0.6662,-0.6256,-0.5565,-0.5312,-0.5023,-0.4774,-0.4885,-0.4703,-0.4208,-0.3717,-0.3359,-0.313,-0.3368,0.0,0.0,0.0,0.0,0.0,0.0,0.0,0.0,0.0,0.0,-0.3967,-0.3132,-0.2686,-0.2809,-0.2247,-0.1773,-0.1507,-0.1629,-0.1557,-0.1163,-0.1708,-0.2327,-0.2827,-0.2941,-0.3181,-0.3641,-0.3692,-0.3855,-0.4329,-0.399,-0.3573,-0.2975,-0.1931,-0.0163,0.2263,0.3775,0.4999,0.6392,0.6291,0.5329,0.3517,0.2187,0.067,-0.1119,-0.1209,-0.0755,-0.0261,0.0259,0.0767,0.1097,0.1221,0.1385,0.1411,0.1366,0.1401,0.155,0.179,0.2072,0.2593,0.3012,0.3582,0.4688,0.4732,0.4807,0.5473,0.5043,0.4611,0.511,0.5571,0.6069,-1.3276,-1.3513,-1.3562,-1.3058,-1.2232,-1.2283,-1.1839,-1.1162,-1.2589,0.0,0.0,-1.1218,-1.0756,-1.0267,-1.0376,-1.0341,-1.0131,-1.0145,-1.0538,-1.123,-1.1194,-1.1598,-1.2201,-1.1473,-1.1062,-1.102,-1.0231,-0.941,-0.854,-0.8456,-0.7977,-0.7183,-0.6962,-0.6552,-0.5754,-0.514,-0.4964,-0.5166,-0.5222,-0.5164,-0.4978,-0.4834,-0.4602,-0.4256,-0.4321,-0.4535,-0.4905,-0.5077,-0.5359,-0.5698,-0.551,-0.5269,-0.4988,-0.4899,-0.4788,-0.4546,-0.4126,-0.3994,-0.4126,-0.3416,-0.2826,-0.2654,-0.2525,-0.2401,-0.2233,-0.306,-0.3596,-0.3648,-0.3758,-0.3802,-0.3802,-0.3802,-0.381,-0.3824,-0.3826,-0.3344,-0.232,-0.1804,-0.0331,0.2729,0.3943,0.5124,0.7132,0.7142,0.5968,0.3602,0.1914,0.0134,-0.2415,-0.2417,-0.1469,-0.0833,-0.0306,0.0174,0.0771,0.0939,0.1021,0.1231,0.1102,0.1058,0.1223,0.1306,0.1599,0.2176,0.2394,0.2985,0.4194,0.4583,0.5061,0.5911,0.4995,0.4125,0.4387,0.4572,0.4838,-1.3483,-1.3538,-1.3761,-1.3763,-1.3616,-1.3837,-1.3891,-1.3666,-1.2632,-1.1717,-1.1006,-1.1621,-1.0968,-0.9452,-1.0218,-1.0058,-0.9275,-1.0017,-1.0419,-1.0567,-1.0517,-1.0545,-1.0563,-1.042,-1.0279,-1.0106,-0.9797,-0.9279,-0.8544,-0.8328,-0.7845,-0.7095,-0.6523,-0.5847,-0.5166,-0.5031,-0.4882,-0.4717,-0.4896,-0.5194,-0.574,-0.5246,-0.4843,-0.4606,-0.531,-0.5591,-0.5415,-0.598,-0.6253,-0.6214,-0.6175,-0.6412,-0.7015,-0.7055,-0.7265,-0.7649,-0.6775,-0.6155,-0.5987,-0.4717,-0.3442,-0.238,-0.2106,-0.2177,-0.2613,-0.3227,-0.3658,-0.3734,-0.3793,-0.3802,-0.3802,-0.3806,-0.3837,-0.3867,-0.3879,-0.3629,-0.2917,-0.1696,-0.0171,0.1892,0.4459,0.6107,0.6822,0.7204,0.6231,0.3377,0.0977,-0.1688,-0.3837,-0.3803,-0.2505,-0.1695,-0.0892,-0.0134,0.0576,0.0755,0.0837,0.0999,0.0997,0.1034,0.1232,0.1313,0.1397,0.1476,0.1597,0.1968,0.2882,0.3499,0.4186,0.4932,0.4419,0.3962,0.4208,0.356,0.3169,-1.3809,-1.3948,-1.4069,-1.4117,-1.4129,-1.4244,-1.4298,-1.4256,-1.3513,-1.302,-1.2665,-1.2499,-1.1931,-1.1048,-1.0306,-0.9748,-0.9242,-0.908,-0.927,-0.9683,-0.9687,-0.9935,-1.0227,-0.977,-0.9442,-0.926,-0.8686,-0.8197,-0.776,-0.7669,-0.7404,-0.7051,-0.6033,-0.5144,-0.4429,-0.3896,-0.376,-0.4067,-0.5049,-0.5613,-0.5774,-0.6017,-0.605,-0.5841,-0.6569,-0.7024,-0.7254,-0.7782,-0.8185,-0.8457,-0.837,-0.8433,-0.8676,-0.8717,-0.8644,-0.8532,-0.7683,-0.696,-0.6558,-0.4443,-0.2837,-0.1931,-0.1567,-0.1579,-0.2045,-0.3084,-0.3756,-0.3798,-0.3802,-0.3802,-0.3804,-0.3847,-0.3852,-0.3893,-0.3942,-0.3716,-0.3151,-0.2497,-0.1043,0.1271,0.3574,0.5546,0.7024,0.739,0.6495,0.3684,0.0533,-0.2274,-0.3618,-0.3132,-0.2417,-0.2013,-0.121,-0.0314,0.0404,0.0538,0.0625,0.0797,0.0841,0.0926,0.1135,0.1264,0.1351,0.135,0.134,0.1671,0.2435,0.2831,0.3451,0.4036,0.3726,0.3372,0.3351,0.286,0.2784,-1.4111,-1.4298,-1.4298,-1.4154,-1.3956,-1.3709,-1.3661,-1.3709,-1.3848,-1.4004,-1.3902,-1.3125,-1.263,-1.2185,-1.0431,-0.9456,-0.9071,-0.8264,-0.8233,-0.8816,-0.8882,-0.9188,-0.9677,-0.9039,-0.8648,-0.842,-0.7727,-0.7292,-0.7112,-0.7095,-0.6918,-0.6564,-0.5497,-0.4474,-0.3583,-0.2826,-0.269,-0.3267,-0.4696,-0.55,-0.5719,-0.6609,-0.7041,-0.6987,-0.7655,-0.8256,-0.8743,-0.9393,-0.9958,-1.0311,-1.0206,-1.0082,-0.9918,-0.9904,-0.9647,-0.9054,-0.8317,-0.743,-0.6429,-0.4308,-0.2642,-0.1735,-0.1367,-0.1291,-0.1667,-0.2812,-0.3663,-0.3769,-0.3824,-0.3837,-0.3847,-0.3879,-0.3938,-0.3961,-0.4228,-0.4267,-0.3785,-0.3538,-0.2541,0.0044,0.1908,0.3853,0.5764,0.6354,0.5154,0.2573,-0.0178,-0.2103,-0.2416,-0.2282,-0.1971,-0.1792,-0.1299,-0.0538,0.0179,0.0314,0.0404,0.0628,0.0717,0.0895,0.1118,0.1299,0.1389,0.1385,0.1415,0.1621,0.2183,0.2506,0.284,0.3369,0.3065,0.2666,0.2653,0.2544,0.2485,-1.4274,-1.4292,-1.4298,-1.3709,-1.278,-1.195,-1.1707,-1.2004,-1.2581,-1.2974,-1.3221,-1.3119,-1.2436,-1.1312,-1.0369,-0.9315,-0.8294,-0.8028,-0.8056,-0.8122,-0.8101,-0.8091,-0.8131,-0.7983,-0.7783,-0.759,-0.7471,-0.7305,-0.7115,-0.7098,-0.6473,-0.5319,-0.4875,-0.4028,-0.2781,-0.2379,-0.2154,-0.1973,-0.2957,-0.4208,-0.563,-0.6609,-0.7088,-0.7122,-0.838,-0.8992,-0.8979,-1.0146,-1.076,-1.0592,-1.0565,-1.0554,-1.0533,-1.0509,-1.0383,-1.0129,-0.9347,-0.8133,-0.6261,-0.5162,-0.3777,-0.2107,-0.1891,-0.1786,-0.1706,-0.2413,-0.3165,-0.3644,-0.3842,-0.3879,-0.3891,-0.3969,-0.405,-0.4159,-0.4827,-0.544,-0.5271,-0.4851,-0.4001,-0.2929,-0.0798,0.1109,0.2929,0.3198,0.1955,0.0089,-0.1026,-0.2149,-0.2683,-0.1925,-0.1211,-0.1166,-0.1076,-0.0718,-0.009,0.0045,0.0269,0.0628,0.0718,0.0897,0.1211,0.1346,0.1391,0.139,0.1388,0.1471,0.165,0.2004,0.2469,0.2621,0.252,0.2393,0.2179,0.2176,0.2218,-1.4298,-1.4244,-1.3607,-1.2829,-1.2047,-1.1609,-1.1512,-1.1658,-1.2393,-1.278,-1.2872,-1.3022,-1.2727,-1.2004,-1.0489,-0.946,-0.8924,-0.8283,-0.7988,-0.7988,-0.8187,-0.8103,-0.7953,-0.809,-0.7976,-0.7682,-0.7546,-0.7428,-0.7282,-0.7139,-0.6384,-0.5142,-0.4919,-0.4074,-0.2603,-0.2289,-0.2064,-0.184,-0.2735,-0.376,-0.4825,-0.5805,-0.6827,-0.7881,-0.893,-0.9595,-0.9952,-1.0894,-1.1282,-1.1026,-1.1016,-1.1016,-1.1016,-1.0626,-1.0265,-0.9895,-0.8956,-0.801,-0.7112,-0.5896,-0.4629,-0.3407,-0.227,-0.164,-0.1681,-0.1707,-0.2144,-0.3316,-0.3747,-0.392,-0.3979,-0.4063,-0.4134,-0.426,-0.4605,-0.5049,-0.5622,-0.545,-0.4952,-0.4094,-0.2922,-0.1237,0.0798,0.1556,0.0935,-0.0446,0.0,0.0,0.0,-0.0852,-0.0494,-0.0224,-0.0224,-0.0135,0.018,0.0224,0.0404,0.0628,0.0852,0.1076,0.1166,0.1346,0.1391,0.1391,0.1391,0.1391,0.1434,0.1567,0.187,0.1925,0.1886,0.1785,0.1811,0.1962,0.1809,-1.4298,-1.41,-1.2926,-1.1853,-1.1072,-1.0877,-1.0779,-1.0877,-1.1901,-1.2528,-1.2861,-1.3542,-1.3926,-1.3584,-1.1307,-0.9953,-0.9509,-0.8775,-0.8287,-0.8088,-0.8478,-0.8627,-0.8478,-0.897,-0.8833,-0.8293,-0.8175,-0.7883,-0.7471,-0.7265,-0.6557,-0.546,-0.5233,-0.4474,-0.3227,-0.2869,-0.2688,-0.2598,-0.3178,-0.3892,-0.4692,-0.5361,-0.6602,-0.8364,-0.9235,-0.9932,-1.0593,-1.13,-1.157,-1.1305,-1.1311,-1.1311,-1.1267,-1.0689,-1.0091,-0.9691,-0.8901,-0.8355,-0.8173,-0.7024,-0.5835,-0.4654,-0.2965,-0.1966,-0.188,-0.1531,-0.1954,-0.32,-0.3855,-0.4218,-0.4233,-0.4284,-0.4334,-0.443,-0.4532,-0.5008,-0.5716,-0.5938,-0.5888,-0.5343,-0.4963,-0.3842,-0.1729,-0.0489,-0.0178,-0.0626,0.0,0.0,0.0,0.0,0.0045,0.0359,0.0404,0.0404,0.0448,0.0493,0.0583,0.0762,0.0987,0.1121,0.1166,0.1346,0.1391,0.1391,0.1391,0.1391,0.1391,0.1433,0.1431,0.1408,0.1386,0.1459,0.1723,0.1878,0.1646,-1.4298,-1.401,-1.2393,-1.0979,-0.971,-0.9217,-0.8871,-0.9072,-1.0877,-1.2226,-1.3267,-1.4918,-1.617,-1.6673,-1.3236,-1.0877,-0.9801,-0.9608,-0.9065,-0.8333,-0.9118,-0.9554,-0.9604,-1.0583,-1.0436,-0.9272,-0.9176,-0.8581,-0.7482,-0.7363,-0.6924,-0.6094,-0.5769,-0.5275,-0.4561,-0.4202,-0.4156,-0.4022,-0.4156,-0.4692,-0.545,-0.5677,-0.6602,-0.8408,-0.9235,-0.9927,-1.0636,-1.1348,-1.157,-1.1311,-1.1311,-1.1311,-1.1219,-1.0646,-1.0106,-0.9874,-0.9792,-0.9575,-0.9231,-0.8782,-0.7756,-0.5725,-0.4297,-0.3201,-0.2571,-0.2362,-0.2662,-0.3512,-0.432,-0.4715,-0.4817,-0.4671,-0.4727,-0.4905,-0.5312,-0.563,-0.598,-0.6555,-0.6993,-0.6902,-0.6851,-0.6225,-0.5073,-0.3472,-0.2052,-0.1388,-0.0584,0.0,0.0,0.0,0.0,0.036,0.0449,0.0494,0.0628,0.0718,0.0807,0.0987,0.1122,0.1166,0.1301,0.1391,0.1391,0.1391,0.1391,0.1391,0.1391,0.1391,0.139,0.1382,0.138,0.1507,0.1629,0.1925,0.173,-1.3662,-1.2652,-1.2075,-1.0964,-0.957,-0.9176,-0.9278,-0.9858,-1.1736,-1.3027,-1.4082,-1.5913,-1.6962,-1.7196,-1.5907,-1.4279,-1.2501,-1.1258,-1.0391,-1.0145,-1.0636,-1.0779,-1.0681,-1.1224,-1.08,-0.9701,-0.9437,-0.8744,-0.7666,-0.7421,-0.7025,-0.6331,-0.6073,-0.5542,-0.4828,-0.4603,-0.4469,-0.4334,-0.4469,-0.4961,-0.5675,-0.5858,-0.7,-0.9056,-0.9575,-1.0328,-1.1467,-1.1736,-1.1693,-1.1311,-1.1311,-1.1311,-1.1181,-1.0207,-0.954,-0.9458,-0.9327,-0.9763,-1.0674,-0.9985,-0.8882,-0.7716,-0.596,-0.4463,-0.3575,-0.3024,-0.3111,-0.3879,-0.4273,-0.4696,-0.5188,-0.4999,-0.475,-0.4792,-0.4835,-0.5142,-0.5761,-0.6467,-0.6949,-0.7078,-0.7214,-0.7037,-0.6558,-0.5033,-0.3434,-0.2286,-0.1315,-0.0592,0.0,0.0,0.0139,0.0505,0.064,0.0732,0.119,0.1039,0.1031,0.1211,0.1301,0.1301,0.1391,0.1391,0.1391,0.1391,0.1391,0.1391,0.1391,0.1391,0.1391,0.157,0.1525,0.166,0.1525,0.2084,0.1933,-1.3316,-1.19,-1.1938,-1.0924,-0.9384,-0.9392,-0.9759,-1.0604,-1.2599,-1.3994,-1.5092,-1.7144,-1.8208,-1.8234,-1.8062,-1.6986,-1.5095,-1.3134,-1.1692,-1.0925,-1.1609,-1.1755,-1.1512,-1.2096,-1.1658,-1.0177,-0.9291,-0.8475,-0.7767,-0.7563,-0.7234,-0.6676,-0.6542,-0.621,-0.5591,-0.545,-0.5403,-0.527,-0.5359,-0.5716,-0.6166,-0.6564,-0.7661,-0.9318,-0.9927,-1.0674,-1.1871,-1.2031,-1.1858,-1.1419,-1.1375,-1.1299,-1.0921,-1.0159,-0.9628,-0.954,-0.9462,-0.998,-1.1289,-1.0646,-0.9637,-0.8694,-0.7068,-0.5528,-0.4204,-0.3626,-0.3715,-0.4164,-0.4659,-0.5062,-0.5419,-0.524,-0.4928,-0.4928,-0.4659,-0.4832,-0.5811,-0.6511,-0.7261,-0.7969,-0.8243,-0.8182,-0.7834,-0.6388,-0.4824,-0.3237,-0.2035,-0.0973,-0.0231,0.0093,0.0238,0.0703,0.0841,0.1028,0.1304,0.1289,0.1175,0.1307,0.1301,0.1346,0.1346,0.1346,0.1391,0.1391,0.1391,0.1391,0.1391,0.1391,0.1525,0.1704,0.2017,0.2241,0.2286,0.2419,0.231,-1.3286,-1.1844,-1.1878,-1.0838,-0.9306,-0.968,-1.0137,-1.0969,-1.3332,-1.5109,-1.6413,-1.8722,-1.989,-2.0063,-1.9452,-1.8526,-1.6791,-1.4854,-1.2678,-1.0734,-1.1901,-1.2198,-1.1707,-1.3082,-1.278,-1.093,-0.9015,-0.8002,-0.7866,-0.7777,-0.7597,-0.7434,-0.7341,-0.7134,-0.7068,-0.6907,-0.6976,-0.689,-0.6887,-0.7007,-0.7183,-0.7713,-0.85,-0.9589,-1.0255,-1.0932,-1.1678,-1.214,-1.2031,-1.1494,-1.1591,-1.1277,-1.0683,-1.0522,-1.0531,-1.0323,-1.0313,-1.0531,-1.1008,-1.1008,-1.0086,-0.8671,-0.7386,-0.6192,-0.4786,-0.4344,-0.4344,-0.4567,-0.5107,-0.5688,-0.5644,-0.5508,-0.5416,-0.5599,-0.5107,-0.528,-0.6118,-0.6823,-0.7837,-0.9336,-0.9829,-0.9899,-0.9121,-0.7714,-0.6002,-0.4328,-0.27,-0.1283,-0.0332,0.0095,0.0478,0.0763,0.1001,0.1192,0.1373,0.1501,0.138,0.1313,0.126,0.1211,0.1122,0.1122,0.1256,0.1301,0.1391,0.1391,0.1391,0.1436,0.1705,0.1928,0.2331,0.2643,0.2777,0.2822,0.2911,-1.3883,-1.2787,-1.2143,-1.1386,-1.0544,-1.0656,-1.1135,-1.221,-1.4998,-1.6729,-1.792,-1.9974,-2.0974,-2.0783,-2.0078,-1.8649,-1.6847,-1.5383,-1.38,-1.2322,-1.2209,-1.2116,-1.2019,-1.2457,-1.197,-1.0551,-0.8878,-0.8064,-0.815,-0.7962,-0.7753,-0.7672,-0.757,-0.7509,-0.7441,-0.736,-0.7302,-0.7288,-0.7146,-0.7319,-0.7804,-0.8069,-0.8811,-0.9999,-1.0602,-1.1134,-1.1684,-1.1971,-1.2009,-1.1856,-1.2079,-1.1943,-1.1462,-1.1401,-1.1284,-1.1061,-1.0863,-1.1221,-1.192,-1.1521,-1.0608,-0.9318,-0.84,-0.7129,-0.5591,-0.524,-0.524,-0.524,-0.5555,-0.5688,-0.5688,-0.5644,-0.5602,-0.5508,-0.5591,-0.5764,-0.6402,-0.7537,-0.8714,-0.9701,-1.0262,-1.0099,-0.928,-0.8088,-0.6841,-0.5097,-0.3271,-0.1791,-0.0768,0.0049,0.0591,0.0977,0.117,0.1313,0.1404,0.1199,0.0754,0.0649,0.0596,0.0814,0.0813,0.0856,0.099,0.1256,0.1346,0.1391,0.1391,0.148,0.1705,0.2062,0.2419,0.2688,0.2956,0.3179,0.3448,-1.4208,-1.3408,-1.2838,-1.2292,-1.1869,-1.1775,-1.2328,-1.3474,-1.5749,-1.7174,-1.8074,-1.9724,-2.0418,-2.0005,-1.9155,-1.7775,-1.6121,-1.4635,-1.338,-1.2469,-1.2196,-1.1834,-1.159,-1.1443,-1.11,-1.0261,-0.8878,-0.8237,-0.8375,-0.8041,-0.7868,-0.7801,-0.7723,-0.7645,-0.7637,-0.7728,-0.7689,-0.7486,-0.7704,-0.7973,-0.8285,-0.8723,-0.9454,-1.0314,-1.0867,-1.1334,-1.1795,-1.1925,-1.203,-1.2091,-1.2135,-1.2083,-1.2124,-1.1976,-1.1871,-1.19,-1.1716,-1.1875,-1.2443,-1.1849,-1.0808,-0.9629,-0.8834,-0.7749,-0.6311,-0.5905,-0.5866,-0.5866,-0.5863,-0.5822,-0.5738,-0.5734,-0.5835,-0.6059,-0.6103,-0.6494,-0.7118,-0.857,-0.9581,-1.0145,-1.0477,-1.0337,-0.9844,-0.9064,-0.7733,-0.6013,-0.421,-0.2369,-0.1176,0.0,0.0597,0.1095,0.1292,0.1389,0.1486,0.0931,0.0193,-0.0048,-0.0188,0.0139,0.032,0.0456,0.0638,0.1171,0.1391,0.1391,0.1391,0.1436,0.157,0.2017,0.2553,0.3312,0.3803,0.4026,0.4117,-1.4249,-1.3657,-1.3785,-1.3429,-1.2905,-1.3,-1.3456,-1.4384,-1.5862,-1.6775,-1.7441,-1.8766,-1.892,-1.8139,-1.7509,-1.6419,-1.4996,-1.3233,-1.1937,-1.1468,-1.1439,-1.1379,-1.0953,-1.0708,-1.0609,-1.0462,-0.932,-0.8722,-0.892,-0.846,-0.8065,-0.8281,-0.8166,-0.7952,-0.8128,-0.836,-0.8299,-0.8059,-0.8678,-0.884,-0.8532,-0.951,-1.0367,-1.0672,-1.1105,-1.1547,-1.1916,-1.1918,-1.1934,-1.2083,-1.1934,-1.2134,-1.2539,-1.2294,-1.2305,-1.2672,-1.2558,-1.2388,-1.236,-1.1847,-1.0895,-0.9434,-0.8734,-0.7882,-0.6572,-0.6096,-0.6031,-0.6028,-0.6025,-0.5975,-0.5773,-0.6031,-0.6453,-0.7129,-0.7188,-0.7576,-0.8853,-0.9953,-1.0482,-1.0575,-1.0768,-1.091,-1.0719,-1.0179,-0.8849,-0.7125,-0.5286,-0.3245,-0.1402,-0.0151,0.0706,0.1159,0.1406,0.1255,0.125,0.0348,-0.0393,-0.0831,-0.0916,-0.0522,0.0046,0.0323,0.0643,0.1135,0.1395,0.1394,0.1391,0.1436,0.1615,0.2017,0.2865,0.4024,0.4425,0.4383,0.4429,-1.4293,-1.4624,-1.4075,-1.3816,-1.3813,-1.3869,-1.4121,-1.4719,-1.6467,-1.72,-1.7639,-1.8672,-1.8594,-1.7864,-1.6821,-1.5572,-1.3888,-1.2405,-1.1275,-1.0531,-1.0408,-1.0635,-1.073,-1.056,-1.085,-1.1292,-1.069,-1.0583,-1.0636,-0.9653,-0.9526,-1.0267,-0.9278,-0.9221,-0.9829,-0.975,-0.9643,-0.9447,-0.939,-0.9723,-0.9967,-1.0114,-1.0579,-1.1119,-1.141,-1.165,-1.1761,-1.1449,-1.1646,-1.2291,-1.2437,-1.2526,-1.2629,-1.2549,-1.2595,-1.2833,-1.2802,-1.2713,-1.2523,-1.1747,-1.0724,-0.9743,-0.8744,-0.7617,-0.6584,-0.6156,-0.6002,-0.5949,-0.5946,-0.5946,-0.6014,-0.6703,-0.7791,-0.9137,-0.905,-0.9267,-1.0173,-1.0814,-1.1047,-1.0877,-1.1038,-1.1075,-1.0919,-1.0258,-0.9213,-0.7664,-0.5663,-0.3515,-0.1662,-0.0202,0.0707,0.1263,0.1463,0.1161,0.0706,-0.0251,-0.1001,-0.1551,-0.1536,-0.1174,-0.0334,0.0514,0.0928,0.1471,0.1414,0.141,0.1399,0.1392,0.175,0.1981,0.3044,0.4071,0.4026,0.4028,0.4251,-1.4348,-1.5249,-1.4856,-1.4748,-1.4883,-1.4913,-1.503,-1.5351,-1.6311,-1.6895,-1.6942,-1.7087,-1.7009,-1.6415,-1.4978,-1.3842,-1.2699,-1.1563,-1.0685,-1.0339,-1.0285,-1.0514,-1.082,-1.0993,-1.1526,-1.1878,-1.1619,-1.1419,-1.1414,-1.0685,-1.0681,-1.0872,-1.0293,-1.0243,-1.0649,-1.0692,-1.0448,-1.0294,-1.0417,-1.0749,-1.0774,-1.0995,-1.1256,-1.159,-1.1698,-1.1666,-1.1651,-1.1275,-1.1441,-1.202,-1.1857,-1.1662,-1.2251,-1.2238,-1.2435,-1.2804,-1.2972,-1.3114,-1.2915,-1.2095,-1.1125,-1.0191,-0.9087,-0.8095,-0.7114,-0.652,-0.6258,-0.6305,-0.6209,-0.607,-0.6232,-0.7355,-0.8922,-1.0281,-1.082,-1.1028,-1.1288,-1.1324,-1.1336,-1.1245,-1.1215,-1.1194,-1.1145,-1.0252,-0.9209,-0.7915,-0.6014,-0.3917,-0.1914,-0.0555,0.0606,0.1111,0.1414,0.1162,0.0555,-0.0352,-0.0955,-0.156,-0.0954,-0.0845,-0.0049,0.095,0.1178,0.1543,0.1482,0.1379,0.1328,0.1323,0.1548,0.2093,0.3156,0.363,0.3588,0.3849,0.4117,-1.4262,-1.5397,-1.5577,-1.5618,-1.55,-1.5672,-1.5571,-1.5731,-1.5945,-1.5992,-1.5885,-1.503,-1.4917,-1.4331,-1.3019,-1.1832,-1.1814,-1.0804,-1.0474,-1.0589,-1.0908,-1.1269,-1.1524,-1.1996,-1.2306,-1.2408,-1.2058,-1.2052,-1.2052,-1.1663,-1.1468,-1.1614,-1.1272,-1.1028,-1.1346,-1.1389,-1.0967,-1.0753,-1.1433,-1.1487,-1.1231,-1.1548,-1.1906,-1.193,-1.1763,-1.1679,-1.1527,-1.1167,-1.1106,-1.2098,-1.0454,-1.0478,-1.1375,-1.1441,-1.1877,-1.2434,-1.3003,-1.3371,-1.3385,-1.2739,-1.1921,-1.0846,-0.9957,-0.9009,-0.7822,-0.7178,-0.6718,-0.667,-0.6525,-0.6534,-0.7048,-0.8284,-0.9834,-1.1163,-1.2022,-1.2159,-1.1927,-1.1714,-1.1634,-1.1536,-1.134,-1.1145,-1.0797,-1.0105,-0.9011,-0.7524,-0.5869,-0.432,-0.2467,-0.1008,0.0101,0.0959,0.1111,0.1162,0.0404,-0.0403,-0.0907,-0.126,-0.005,0.055,0.1137,0.1748,0.1635,0.162,0.151,0.127,0.0989,0.1125,0.1256,0.1569,0.2243,0.2722,0.3106,0.3676,0.4026,-1.2891,-1.4742,-1.4089,-1.3835,-1.3943,-1.4595,-1.4869,-1.4976,-1.5618,-1.5832,-1.5725,-1.4982,-1.4223,-1.3565,-1.2432,-1.1623,-1.1122,-1.0728,-1.0858,-1.1477,-1.2406,-1.2895,-1.3047,-1.3155,-1.3249,-1.3539,-1.3721,-1.3667,-1.3468,-1.2829,-1.2823,-1.3318,-1.2355,-1.2165,-1.2732,-1.2356,-1.2045,-1.1574,-1.1978,-1.1817,-1.1437,-1.1744,-1.2086,-1.21,-1.1838,-1.1734,-1.1402,-1.0333,-0.9988,-1.0334,-1.0168,-0.9881,-1.0301,-1.0769,-1.1337,-1.2053,-1.278,-1.3377,-1.3516,-1.2945,-1.232,-1.2019,-1.0493,-0.912,-0.8837,-0.7699,-0.7051,-0.6801,-0.6707,-0.7318,-0.8609,-0.9941,-1.0972,-1.1901,-1.2316,-1.25,-1.2506,-1.2334,-1.2024,-1.1634,-1.0998,-1.0404,-1.0002,-0.9213,-0.817,-0.6927,-0.5777,-0.4572,-0.3067,-0.1511,-0.0655,0.0202,0.0858,0.0757,-0.0454,-0.0907,-0.0705,-0.0554,0.0704,0.196,0.2537,0.262,0.2495,0.2083,0.1537,0.1249,0.082,0.0573,0.0616,0.0986,0.1257,0.1889,0.251,0.3211,0.3537,-1.225,-1.3894,-1.3511,-1.329,-1.3398,-1.3786,-1.4223,-1.46,-1.5083,-1.5512,-1.5672,-1.4982,-1.411,-1.3236,-1.2377,-1.1509,-1.0937,-1.1083,-1.1635,-1.2404,-1.3246,-1.3936,-1.4476,-1.4283,-1.428,-1.4509,-1.4298,-1.4304,-1.4106,-1.3811,-1.3709,-1.4202,-1.3292,-1.3152,-1.3443,-1.2856,-1.2214,-1.1765,-1.1536,-1.1366,-1.1476,-1.1692,-1.2026,-1.2147,-1.204,-1.1924,-1.1921,-1.0915,-1.0431,-1.0168,-0.9615,-0.9179,-0.9367,-0.9887,-1.0611,-1.1354,-1.2647,-1.3274,-1.345,-1.324,-1.2811,-1.2711,-1.1272,-1.0542,-0.9743,-0.8679,-0.7919,-0.7668,-0.7772,-0.8241,-1.003,-1.0141,-1.1028,-1.1619,-1.1624,-1.1531,-1.197,-1.2219,-1.2268,-1.1731,-1.0998,-1.0306,-0.9562,-0.8517,-0.7624,-0.6581,-0.5732,-0.4528,-0.3673,-0.2266,-0.1662,-0.0857,0.0202,0.0101,-0.126,-0.146,-0.0604,0.0151,0.1558,0.2864,0.3955,0.374,0.3378,0.2711,0.2008,0.0984,0.0542,0.0292,-0.0097,-0.0096,0.0238,0.1032,0.1807,0.2477,0.2583,-1.1764,-1.3078,-1.2965,-1.2911,-1.2911,-1.3073,-1.357,-1.4331,-1.4502,-1.5085,-1.5601,-1.4948,-1.4153,-1.3452,-1.2432,-1.1568,-1.1088,-1.1436,-1.2178,-1.3096,-1.372,-1.4509,-1.5139,-1.5161,-1.4939,-1.4761,-1.4533,-1.4395,-1.4316,-1.4298,-1.4154,-1.425,-1.4027,-1.3786,-1.3593,-1.2861,-1.2122,-1.1673,-1.1468,-1.1161,-1.1458,-1.1682,-1.2112,-1.2235,-1.2226,-1.2197,-1.2177,-1.1613,-1.1053,-1.0524,-0.8975,-0.8347,-0.8542,-0.9038,-0.9786,-1.0522,-1.2202,-1.3282,-1.365,-1.3607,-1.3412,-1.292,-1.2306,-1.177,-1.0921,-0.9887,-0.914,-0.8947,-0.9046,-0.9485,-1.0925,-1.0636,-1.0538,-1.0832,-1.0297,-1.0194,-1.1023,-1.1819,-1.197,-1.1975,-1.0895,-0.9908,-0.8916,-0.7872,-0.708,-0.6284,-0.5434,-0.4732,-0.3929,-0.3224,-0.2668,-0.1915,-0.0907,-0.0555,-0.1764,-0.1712,-0.0906,0.0453,0.196,0.3516,0.4826,0.4812,0.4299,0.3263,0.2405,0.1353,0.03,-0.0297,-0.0689,-0.1079,-0.068,0.0335,0.1085,0.1769,0.1746,-1.0907,-1.2164,-1.145,-1.1122,-1.1232,-1.1887,-1.2698,-1.3529,-1.4018,-1.49,-1.5672,-1.4777,-1.4381,-1.396,-1.2654,-1.1568,-1.1168,-1.1715,-1.2537,-1.3452,-1.4179,-1.5064,-1.5605,-1.5553,-1.539,-1.5252,-1.4914,-1.4582,-1.437,-1.4298,-1.4298,-1.425,-1.407,-1.3925,-1.3829,-1.3346,-1.2355,-1.1668,-1.177,-1.177,-1.1521,-1.2004,-1.2475,-1.2468,-1.2382,-1.2414,-1.2297,-1.1789,-1.1073,-1.0186,-0.8264,-0.7707,-0.7905,-0.8318,-0.9041,-1.031,-1.1788,-1.3048,-1.3785,-1.4063,-1.4124,-1.38,-1.3033,-1.2452,-1.1863,-1.0935,-1.0105,-1.0002,-1.0243,-1.0779,-1.1121,-1.073,-1.0877,-1.0881,-1.0194,-0.9899,-1.0783,-1.1175,-1.1575,-1.1873,-1.0694,-0.946,-0.8517,-0.7425,-0.6481,-0.6084,-0.5837,-0.5436,-0.5033,-0.4377,-0.3822,-0.297,-0.2017,-0.1916,-0.2219,-0.1712,-0.1006,0.0402,0.196,0.3817,0.4974,0.5527,0.5127,0.3676,0.2519,0.1459,0.0452,-0.0702,-0.155,-0.2189,-0.1329,-0.0341,0.0432,0.1183,0.131,-1.0527,-1.1295,-1.0857,-1.0692,-1.0802,-1.1126,-1.1769,-1.2525,-1.3229,-1.4442,-1.538,-1.524,-1.5106,-1.4902,-1.3511,-1.2214,-1.1782,-1.2264,-1.3132,-1.3997,-1.4869,-1.5464,-1.5891,-1.5741,-1.5614,-1.5469,-1.5215,-1.4883,-1.4527,-1.4364,-1.4316,-1.4298,-1.416,-1.4112,-1.3919,-1.3329,-1.2689,-1.1955,-1.1912,-1.196,-1.1663,-1.2554,-1.2775,-1.2774,-1.2635,-1.267,-1.2689,-1.2556,-1.1699,-1.0548,-0.9092,-0.8092,-0.7604,-0.7678,-0.8517,-1.0228,-1.1661,-1.2863,-1.3824,-1.4189,-1.4286,-1.4202,-1.342,-1.3039,-1.2651,-1.1873,-1.0998,-1.0841,-1.044,-1.1028,-1.1868,-1.0583,-0.9944,-0.9944,-0.9057,-0.8958,-0.9747,-0.9797,-1.0538,-1.138,-1.0395,-0.9258,-0.8365,-0.7223,-0.5982,-0.5737,-0.5989,-0.5937,-0.5834,-0.5432,-0.4776,-0.3976,-0.3074,-0.2773,-0.2723,-0.2216,-0.1509,-0.0101,0.1458,0.3364,0.4622,0.4972,0.4574,0.3524,0.2467,0.1208,-0.0302,-0.1709,-0.2517,-0.3073,-0.2295,-0.1382,-0.0244,0.0481,0.0523,-1.0386,-1.0692,-1.0692,-1.0692,-1.0692,-1.0692,-1.1259,-1.2035,-1.2664,-1.4245,-1.6089,-1.6031,-1.6097,-1.596,-1.4626,-1.3186,-1.2436,-1.3181,-1.3997,-1.4546,-1.5405,-1.5891,-1.5891,-1.5867,-1.5783,-1.5632,-1.5469,-1.5221,-1.4739,-1.4515,-1.4377,-1.431,-1.4298,-1.4298,-1.4106,-1.3613,-1.3028,-1.2441,-1.2052,-1.1955,-1.2446,-1.2899,-1.305,-1.305,-1.2856,-1.2888,-1.2989,-1.2984,-1.2157,-1.0977,-0.9845,-0.8788,-0.7339,-0.6976,-0.822,-1.0453,-1.1566,-1.2664,-1.3885,-1.4337,-1.4538,-1.4532,-1.4058,-1.3678,-1.3152,-1.2414,-1.1731,-1.1585,-1.0886,-1.0739,-1.1477,-0.9752,-0.8814,-0.8665,-0.7822,-0.703,-0.8368,-0.9011,-0.9349,-0.9747,-0.955,-0.8958,-0.7918,-0.7027,-0.5784,-0.5837,-0.6087,-0.6039,-0.5987,-0.6039,-0.5534,-0.4883,-0.4182,-0.3629,-0.3327,-0.2973,-0.2165,-0.1107,0.0352,0.2007,0.3213,0.4067,0.3519,0.2919,0.161,0.0302,-0.1259,-0.242,-0.3024,-0.3275,-0.3073,-0.2154,-0.0545,-0.0195,-0.0386,-1.0275,-1.0692,-1.0692,-1.0692,-1.0692,-1.0747,-1.1655,-1.2886,-1.2979,-1.4667,-1.7258,-1.7151,-1.7132,-1.6772,-1.5494,-1.4153,-1.3722,-1.4046,-1.4643,-1.4922,-1.5512,-1.5885,-1.5885,-1.5885,-1.5873,-1.5765,-1.5608,-1.5203,-1.4877,-1.4727,-1.4552,-1.4413,-1.4395,-1.4328,-1.4364,-1.4128,-1.3607,-1.2985,-1.319,-1.3292,-1.3044,-1.3098,-1.3001,-1.291,-1.2861,-1.2861,-1.3001,-1.3001,-1.2306,-1.0925,-1.0034,-0.9046,-0.7958,-0.7161,-0.8382,-0.9985,-1.1231,-1.2178,-1.4308,-1.4883,-1.501,-1.5003,-1.4765,-1.4094,-1.348,-1.2759,-1.2224,-1.2273,-1.1228,-1.0828,-1.0832,-0.9205,-0.8368,-0.7822,-0.7279,-0.7129,-0.7925,-0.8024,-0.8414,-0.8761,-0.8764,-0.8117,-0.7223,-0.6431,-0.5737,-0.5937,-0.6137,-0.6037,-0.5737,-0.5536,-0.5286,-0.4433,-0.4232,-0.378,-0.3979,-0.3575,-0.3221,-0.2213,-0.1155,0.0251,0.1204,0.2056,0.2864,0.2112,0.0754,-0.0453,-0.1712,-0.2671,-0.3327,-0.3528,-0.3376,-0.2065,-0.0352,-0.0596,-0.1268,-1.0421,-1.0692,-1.0692,-1.0692,-1.0802,-1.1185,-1.1765,-1.2617,-1.3993,-1.5719,-1.7475,-1.8009,-1.7688,-1.6825,-1.5387,-1.4541,-1.4218,-1.4595,-1.503,-1.5298,-1.5672,-1.5885,-1.5885,-1.5885,-1.5885,-1.5855,-1.5759,-1.5572,-1.5215,-1.4998,-1.4847,-1.4769,-1.4745,-1.4781,-1.4598,-1.4689,-1.4414,-1.4007,-1.3825,-1.369,-1.3389,-1.3201,-1.305,-1.2953,-1.2861,-1.2861,-1.291,-1.2905,-1.2116,-1.0837,-1.0149,-0.9361,-0.8329,-0.7832,-0.8471,-1.0194,-1.0573,-1.2057,-1.4543,-1.5003,-1.5384,-1.5717,-1.552,-1.4991,-1.4196,-1.3141,-1.2705,-1.3184,-1.1126,-1.0391,-1.0288,-0.8563,-0.7971,-0.7428,-0.693,-0.7229,-0.7428,-0.7132,-0.7279,-0.7627,-0.7872,-0.7226,-0.6628,-0.6082,-0.5536,-0.5436,-0.5584,-0.5584,-0.4782,-0.3879,-0.3677,-0.3376,-0.3478,-0.3629,-0.4079,-0.4277,-0.4475,-0.3869,-0.3764,-0.2404,-0.1254,-0.0351,0.0603,0.0754,-0.0453,-0.1511,-0.2317,-0.3173,-0.3981,-0.393,-0.3731,-0.2368,-0.1158,-0.164,-0.2203,-1.1074,-1.1017,-1.0798,-1.0857,-1.1177,-1.1782,-1.2454,-1.3307,-1.5083,-1.6891,-1.8323,-1.9029,-1.8487,-1.7121,-1.6127,-1.5452,-1.4922,-1.4982,-1.5357,-1.5725,-1.5885,-1.5885,-1.5885,-1.5885,-1.5885,-1.5885,-1.5867,-1.5741,-1.5596,-1.5409,-1.5258,-1.5074,-1.4663,-1.4692,-1.4722,-1.4681,-1.4492,-1.4662,-1.4303,-1.399,-1.3616,-1.3355,-1.3159,-1.3023,-1.2861,-1.2807,-1.2807,-1.2813,-1.2024,-1.0752,-1.0408,-0.962,-0.8287,-0.8283,-0.8928,-1.0212,-1.0623,-1.2226,-1.4322,-1.5432,-1.5812,-1.6048,-1.5954,-1.5283,-1.4908,-1.3613,-1.2845,-1.3565,-1.0974,-1.0194,-0.9797,-0.8021,-0.7229,-0.703,-0.683,-0.7129,-0.7282,-0.6933,-0.6686,-0.6933,-0.698,-0.6481,-0.5984,-0.5687,-0.5336,-0.5035,-0.5035,-0.5031,-0.4078,-0.2873,-0.252,-0.247,-0.2823,-0.3176,-0.3827,-0.4377,-0.4826,-0.5622,-0.5513,-0.476,-0.3456,-0.2307,-0.1356,-0.156,-0.1662,-0.1854,-0.2195,-0.3457,-0.4583,-0.4133,-0.3681,-0.2924,-0.236,-0.2729,-0.2713,-1.2461,-1.1841,-1.1076,-1.1337,-1.22,-1.2055,-1.3647,-1.583,-1.6218,-1.8043,-2.0374,-2.0574,-1.9892,-1.8857,-1.7713,-1.6723,-1.5779,-1.6057,-1.6004,-1.5891,-1.5885,-1.5885,-1.5885,-1.5885,-1.5885,-1.5885,-1.5885,-1.5873,-1.5796,-1.5594,-1.5383,-1.5083,-1.447,-1.4066,-1.3952,-1.4054,-1.4481,-1.48,-1.4761,-1.4442,-1.4082,-1.3716,-1.3396,-1.2943,-1.284,-1.2818,-1.2813,-1.2791,-1.2186,-1.0668,-1.0609,-0.9817,-0.868,-0.8829,-0.9616,-1.0261,-1.1051,-1.2737,-1.4752,-1.5615,-1.6042,-1.6143,-1.5913,-1.548,-1.5432,-1.4184,-1.3607,-1.3318,-1.0925,-0.9509,-0.8867,-0.7776,-0.6734,-0.6584,-0.6634,-0.6684,-0.6786,-0.6637,-0.6437,-0.6437,-0.6237,-0.5887,-0.5934,-0.5787,-0.5436,-0.5135,-0.428,-0.4279,-0.3423,-0.2369,-0.1916,-0.1815,-0.2169,-0.2671,-0.3376,-0.4275,-0.5917,-0.7059,-0.7449,-0.6454,-0.5257,-0.421,-0.2757,-0.1858,-0.1606,-0.1842,-0.2174,-0.3117,-0.3826,-0.3915,-0.3629,-0.307,-0.2559,-0.2486,-0.2337,-1.3057,-1.2753,-1.2427,-1.2205,-1.2214,-1.2595,-1.4196,-1.6427,-1.764,-1.9472,-2.1869,-2.1191,-2.0261,-1.9228,-1.8146,-1.71,-1.6045,-1.6004,-1.5945,-1.5945,-1.5885,-1.5885,-1.5885,-1.5885,-1.5885,-1.5885,-1.5885,-1.5885,-1.5879,-1.5458,-1.5074,-1.4626,-1.4062,-1.3731,-1.3546,-1.3618,-1.4292,-1.5013,-1.5332,-1.5268,-1.4974,-1.4631,-1.4138,-1.3272,-1.3251,-1.3159,-1.3012,-1.298,-1.2195,-1.1482,-1.1163,-1.0122,-0.9179,-0.9624,-1.0068,-1.052,-1.1266,-1.3012,-1.4981,-1.5683,-1.6048,-1.6911,-1.6581,-1.6062,-1.5927,-1.4519,-1.3944,-1.292,-1.1033,-0.9191,-0.8977,-0.7633,-0.6437,-0.6437,-0.64,-0.6411,-0.6422,-0.639,-0.634,-0.6412,-0.6067,-0.5737,-0.5837,-0.6034,-0.5636,-0.5186,-0.428,-0.3374,-0.267,-0.1765,-0.121,-0.1059,-0.1412,-0.2168,-0.2871,-0.4916,-0.7198,-0.834,-0.9284,-0.8431,-0.7233,-0.4993,-0.3595,-0.255,-0.1545,-0.1677,-0.2007,-0.2682,-0.3231,-0.3655,-0.3639,-0.3362,-0.2898,-0.2433,-0.2238,-1.3938,-1.3727,-1.3673,-1.3403,-1.297,-1.3457,-1.5102,-1.7266,-1.8589,-2.0467,-2.2493,-2.1717,-2.0518,-1.9287,-1.8513,-1.6942,-1.5992,-1.5731,-1.5731,-1.5725,-1.5779,-1.5885,-1.5945,-1.5945,-1.5885,-1.5885,-1.5891,-1.5838,-1.5405,-1.4869,-1.4245,-1.3809,-1.3457,-1.2886,-1.2965,-1.3357,-1.4259,-1.5517,-1.6053,-1.6367,-1.6081,-1.5605,-1.5023,-1.4078,-1.3733,-1.3373,-1.3254,-1.3166,-1.2756,-1.2084,-1.1558,-1.0951,-1.0425,-1.0255,-1.0695,-1.1063,-1.1727,-1.3117,-1.4667,-1.5987,-1.6448,-1.7061,-1.6758,-1.6496,-1.5994,-1.4575,-1.3769,-1.3842,-1.118,-0.9111,-0.9234,-0.7839,-0.6686,-0.6608,-0.6605,-0.6562,-0.6554,-0.6511,-0.6446,-0.6392,-0.6088,-0.5848,-0.5929,-0.6181,-0.6303,-0.5493,-0.4076,-0.3272,-0.262,-0.1613,-0.0353,-0.0303,-0.0555,-0.1462,-0.2468,-0.5155,-0.7826,-1.004,-1.0738,-1.064,-0.9286,-0.6802,-0.4168,-0.2478,-0.1725,-0.1512,-0.1885,-0.2587,-0.3129,-0.3638,-0.3521,-0.3252,-0.3149,-0.2738,-0.2507,-1.5298,-1.46,-1.4606,-1.4702,-1.475,-1.4648,-1.6333,-1.8946,-1.9428,-2.068,-2.2493,-2.2392,-2.1148,-1.9591,-1.8975,-1.7397,-1.5399,-1.5464,-1.5565,-1.5292,-1.5458,-1.5891,-1.6057,-1.5998,-1.5885,-1.5885,-1.5838,-1.5517,-1.4767,-1.4493,-1.3624,-1.2595,-1.2155,-1.1828,-1.211,-1.2911,-1.4615,-1.6751,-1.7022,-1.7373,-1.7271,-1.6549,-1.5772,-1.4962,-1.4058,-1.3629,-1.3491,-1.3464,-1.3053,-1.2501,-1.2214,-1.1652,-1.0983,-1.1354,-1.1657,-1.1778,-1.2544,-1.3646,-1.4918,-1.6594,-1.7072,-1.6863,-1.6395,-1.6039,-1.5198,-1.4211,-1.3545,-1.3698,-1.1157,-0.9792,-0.9105,-0.8177,-0.722,-0.6741,-0.673,-0.6725,-0.6662,-0.6552,-0.6482,-0.6367,-0.6238,-0.6154,-0.6218,-0.6334,-0.6793,-0.6007,-0.4178,-0.3172,-0.2672,-0.1563,-0.0202,0.005,-0.0252,-0.141,-0.2864,-0.5738,-0.8399,-1.0807,-1.2185,-1.2136,-1.0803,-0.8227,-0.5581,-0.2851,-0.1608,-0.1206,-0.1761,-0.2442,-0.2967,-0.3402,-0.3294,-0.3172,-0.3123,-0.304,-0.2818,-1.5897,-1.5458,-1.5678,-1.5785,-1.5725,-1.4922,-1.6393,-1.9272,-2.0783,-2.192,-2.2493,-2.2603,-2.1353,-1.9797,-1.8864,-1.7496,-1.5131,-1.4708,-1.4809,-1.4809,-1.503,-1.5458,-1.5785,-1.5998,-1.5885,-1.5885,-1.5838,-1.5464,-1.46,-1.4218,-1.3246,-1.2164,-1.1778,-1.1505,-1.1764,-1.2783,-1.4919,-1.6791,-1.7955,-1.8814,-1.8558,-1.7596,-1.656,-1.5722,-1.4581,-1.3899,-1.3723,-1.3706,-1.3445,-1.3086,-1.2879,-1.2485,-1.2067,-1.2355,-1.2542,-1.2521,-1.2944,-1.3728,-1.4749,-1.5873,-1.6397,-1.619,-1.5995,-1.5584,-1.4998,-1.4407,-1.3879,-1.2968,-1.103,-0.9932,-0.9183,-0.7839,-0.6943,-0.6785,-0.6779,-0.6779,-0.6721,-0.6563,-0.64,-0.6343,-0.6218,-0.6574,-0.6752,-0.707,-0.7428,-0.7426,-0.5925,-0.4006,-0.3141,-0.1768,-0.0454,-0.005,-0.0252,-0.146,-0.3263,-0.6274,-0.9325,-1.2017,-1.3327,-1.3688,-1.1902,-0.9153,-0.5997,-0.2789,-0.174,-0.0954,-0.1688,-0.2401,-0.2795,-0.3076,-0.3075,-0.3072,-0.3093,-0.3111,-0.3038,-1.6217,-1.6105,-1.6318,-1.6424,-1.6318,-1.5517,-1.6823,-1.9428,-2.1607,-2.2603,-2.2552,-2.2182,-2.0987,-1.9531,-1.8551,-1.7015,-1.4379,-1.4493,-1.4482,-1.4482,-1.4595,-1.5298,-1.5891,-1.5998,-1.5885,-1.5885,-1.5779,-1.5458,-1.46,-1.4056,-1.3295,-1.2595,-1.2164,-1.2422,-1.2788,-1.4282,-1.5831,-1.7647,-1.9027,-1.9606,-1.9258,-1.8471,-1.7213,-1.6309,-1.5192,-1.4105,-1.3992,-1.3922,-1.3879,-1.3739,-1.3595,-1.334,-1.3117,-1.3111,-1.3277,-1.3148,-1.3372,-1.3967,-1.4561,-1.4919,-1.5321,-1.5223,-1.533,-1.5065,-1.4548,-1.3909,-1.3257,-1.2294,-1.0746,-0.9881,-0.903,-0.7594,-0.7065,-0.6907,-0.691,-0.6915,-0.6918,-0.6762,-0.6706,-0.6585,-0.6597,-0.6956,-0.7501,-0.7836,-0.8252,-0.8043,-0.7734,-0.577,-0.3791,-0.2352,-0.1173,-0.0764,-0.1021,-0.2355,-0.4289,-0.697,-1.0037,-1.3158,-1.3979,-1.4424,-1.2085,-0.9238,-0.5974,-0.3113,-0.2162,-0.1608,-0.1844,-0.2315,-0.2764,-0.2995,-0.2975,-0.3016,-0.3057,-0.3079,-0.3095,-1.6324,-1.6324,-1.663,-1.673,-1.6677,-1.6477,-1.7667,-1.9738,-2.1717,-2.2552,-2.2434,-2.1353,-2.0261,-1.9072,-1.8042,-1.6074,-1.3889,-1.4116,-1.4099,-1.4148,-1.4218,-1.5292,-1.5939,-1.6099,-1.5939,-1.5885,-1.5779,-1.5458,-1.4654,-1.4164,-1.3565,-1.3024,-1.2654,-1.3447,-1.4669,-1.5843,-1.7226,-1.8767,-1.9613,-2.0034,-1.9761,-1.8551,-1.7496,-1.6499,-1.5339,-1.4385,-1.4126,-1.4121,-1.4132,-1.4056,-1.3896,-1.3821,-1.3713,-1.362,-1.3685,-1.3814,-1.3987,-1.4137,-1.426,-1.4447,-1.441,-1.4534,-1.459,-1.4112,-1.3773,-1.3533,-1.3023,-1.2059,-1.069,-0.98,-0.8852,-0.7978,-0.7158,-0.7161,-0.7161,-0.7166,-0.7169,-0.7114,-0.7111,-0.7081,-0.7073,-0.7456,-0.8235,-0.8719,-0.9062,-0.9051,-0.8748,-0.7672,-0.5659,-0.3463,-0.2457,-0.1869,-0.2341,-0.3503,-0.5572,-0.7702,-1.036,-1.3324,-1.3984,-1.407,-1.1629,-0.9227,-0.623,-0.3843,-0.2728,-0.2345,-0.2558,-0.2663,-0.279,-0.2936,-0.2949,-0.2979,-0.3023,-0.3026,-0.2947,-1.6471,-1.6324,-1.6855,-1.706,-1.7166,-1.7793,-1.8715,-1.9834,-2.1709,-2.2232,-2.1344,-2.1038,-1.9746,-1.8042,-1.7081,-1.5263,-1.3879,-1.3029,-1.3186,-1.3398,-1.3781,-1.4809,-1.5565,-1.5992,-1.5885,-1.5885,-1.5779,-1.5458,-1.4654,-1.4164,-1.3727,-1.3181,-1.3462,-1.4846,-1.6115,-1.7292,-1.8349,-1.9354,-2.0034,-2.0138,-1.9606,-1.8342,-1.7391,-1.6234,-1.5083,-1.4299,-1.4083,-1.4137,-1.4137,-1.4099,-1.4067,-1.4083,-1.4073,-1.4019,-1.4051,-1.4067,-1.4159,-1.4186,-1.4196,-1.4196,-1.4196,-1.4196,-1.4285,-1.3964,-1.3678,-1.3403,-1.2931,-1.1661,-1.0625,-0.9687,-0.8682,-0.7811,-0.7265,-0.721,-0.721,-0.7154,-0.7154,-0.7099,-0.7154,-0.736,-0.7411,-0.7996,-0.8831,-0.9654,-0.995,-1.0019,-0.9634,-0.8686,-0.7297,-0.5014,-0.3578,-0.3019,-0.3223,-0.4242,-0.6015,-0.8073,-1.0751,-1.3148,-1.3557,-1.3314,-1.1184,-0.8743,-0.6247,-0.4425,-0.3056,-0.2885,-0.3297,-0.3238,-0.2936,-0.2922,-0.2932,-0.296,-0.2982,-0.2987,-0.2962,-1.663,-1.653,-1.712,-1.7378,-1.7536,-1.8258,-1.893,-1.9539,-2.0944,-2.1148,-2.0585,-2.0063,-1.8923,-1.7298,-1.6174,-1.4674,-1.2807,-1.2432,-1.259,-1.3398,-1.3344,-1.4648,-1.5512,-1.5945,-1.5885,-1.5885,-1.5832,-1.5672,-1.4976,-1.4331,-1.3889,-1.4428,-1.4708,-1.5494,-1.6552,-1.7252,-1.7877,-1.8982,-1.9768,-1.9968,-1.9176,-1.8073,-1.7022,-1.5867,-1.4773,-1.4132,-1.3694,-1.3802,-1.397,-1.3748,-1.3748,-1.4191,-1.4191,-1.4186,-1.418,-1.4175,-1.4186,-1.4196,-1.4196,-1.4196,-1.4196,-1.4196,-1.4191,-1.3949,-1.3574,-1.3242,-1.2358,-1.122,-1.035,-0.9464,-0.8423,-0.7543,-0.7376,-0.721,-0.7154,-0.7154,-0.7099,-0.6988,-0.7207,-0.7537,-0.7968,-0.8517,-0.9281,-1.0178,-1.0777,-1.0845,-1.0225,-0.9009,-0.7783,-0.6048,-0.4789,-0.4095,-0.4296,-0.483,-0.6611,-0.8197,-1.0236,-1.2001,-1.242,-1.1833,-1.0179,-0.8273,-0.5829,-0.4326,-0.3143,-0.3203,-0.3397,-0.3178,-0.2958,-0.2939,-0.2875,-0.2891,-0.2906,-0.2953,-0.2937,-1.6677,-1.6736,-1.7259,-1.7364,-1.7523,-1.7943,-1.8251,-1.867,-1.9502,-1.9923,-1.9717,-1.8893,-1.7825,-1.644,-1.5322,-1.3879,-1.254,-1.1891,-1.2377,-1.3614,-1.3398,-1.4374,-1.5618,-1.6051,-1.5939,-1.5885,-1.5885,-1.5779,-1.5672,-1.519,-1.503,-1.5838,-1.5143,-1.5512,-1.6617,-1.6776,-1.7298,-1.8133,-1.9079,-1.9546,-1.8648,-1.7811,-1.6922,-1.5713,-1.4654,-1.3807,-1.3083,-1.3083,-1.3532,-1.3083,-1.3192,-1.3862,-1.4191,-1.4196,-1.4196,-1.4196,-1.4196,-1.4196,-1.4196,-1.4196,-1.4196,-1.4196,-1.4191,-1.4062,-1.3771,-1.3048,-1.2099,-1.0895,-0.9896,-0.8916,-0.7873,-0.7487,-0.7265,-0.721,-0.721,-0.7043,-0.6879,-0.7043,-0.7482,-0.7922,-0.8748,-0.9354,-1.0076,-1.1008,-1.1446,-1.1555,-1.0562,-0.9182,-0.8054,-0.6606,-0.5562,-0.4794,-0.4887,-0.5235,-0.6513,-0.8046,-0.9469,-1.0673,-1.116,-1.0698,-0.9335,-0.7467,-0.5461,-0.4354,-0.342,-0.323,-0.3209,-0.3065,-0.2956,-0.2933,-0.2875,-0.283,-0.2788,-0.2658,-0.2581,-1.653,-1.6683,-1.6405,-1.6293,-1.6293,-1.6446,-1.6552,-1.6704,-1.7726,-1.8475,-1.8677,-1.8363,-1.7246,-1.5482,-1.4578,-1.329,-1.211,-1.1514,-1.21,-1.2965,-1.3344,-1.432,-1.5731,-1.5998,-1.5945,-1.5885,-1.5885,-1.5885,-1.5832,-1.5672,-1.5624,-1.5838,-1.5416,-1.5791,-1.6411,-1.6411,-1.6664,-1.7186,-1.7713,-1.7864,-1.6916,-1.6493,-1.5761,-1.4922,-1.4083,-1.3418,-1.2807,-1.2531,-1.215,-1.1546,-1.2309,-1.3192,-1.4078,-1.4191,-1.4196,-1.4196,-1.4196,-1.4196,-1.4196,-1.4191,-1.4191,-1.4191,-1.4191,-1.4137,-1.3748,-1.2916,-1.1873,-1.0617,-0.9412,-0.8367,-0.7595,-0.7376,-0.721,-0.721,-0.721,-0.6935,-0.6712,-0.7207,-0.7645,-0.8527,-0.9464,-1.0296,-1.1017,-1.1564,-1.2001,-1.1387,-1.0006,-0.8783,-0.8036,-0.6911,-0.572,-0.5019,-0.5072,-0.558,-0.6635,-0.7682,-0.8994,-0.9539,-0.9941,-0.9287,-0.8439,-0.6658,-0.4895,-0.4459,-0.3903,-0.3608,-0.3288,-0.3048,-0.2984,-0.2925,-0.2785,-0.2739,-0.2109,-0.1798,-0.1799,-1.6577,-1.6624,-1.5974,-1.5435,-1.5215,-1.5488,-1.5761,-1.608,-1.71,-1.774,-1.8003,-1.7891,-1.677,-1.484,-1.4089,-1.2911,-1.1673,-1.0966,-1.1941,-1.2861,-1.3506,-1.4535,-1.5345,-1.6057,-1.6111,-1.6051,-1.5945,-1.5885,-1.5885,-1.5885,-1.5838,-1.5891,-1.5737,-1.5737,-1.6039,-1.5826,-1.5873,-1.6033,-1.6187,-1.582,-1.5292,-1.5446,-1.5238,-1.4504,-1.3699,-1.298,-1.215,-1.171,-1.1378,-1.1492,-1.2422,-1.3359,-1.4083,-1.4191,-1.4196,-1.4196,-1.4196,-1.4196,-1.4196,-1.4191,-1.4137,-1.4083,-1.397,-1.3916,-1.3478,-1.2649,-1.1714,-1.0457,-0.9306,-0.8208,-0.7543,-0.721,-0.721,-0.721,-0.7154,-0.699,-0.6935,-0.7152,-0.7811,-0.8631,-0.9735,-1.0954,-1.1564,-1.1946,-1.2219,-1.1828,-1.028,-0.9013,-0.8204,-0.7136,-0.5957,-0.5174,-0.5162,-0.5244,-0.5767,-0.6984,-0.8359,-0.8694,-0.8943,-0.8365,-0.7672,-0.5944,-0.452,-0.4342,-0.4093,-0.3813,-0.3535,-0.3137,-0.2993,-0.2931,-0.2789,-0.2604,-0.184,-0.1033,-0.0723,-1.6677,-1.6571,-1.5601,-1.4739,-1.4245,-1.49,-1.5387,-1.5802,-1.7041,-1.7589,-1.7635,-1.7589,-1.618,-1.4942,-1.4024,-1.2521,-1.1446,-1.0962,-1.1832,-1.2698,-1.329,-1.4369,-1.5399,-1.6211,-1.6271,-1.6217,-1.6105,-1.5998,-1.5885,-1.5885,-1.5885,-1.5885,-1.5731,-1.5571,-1.5143,-1.4934,-1.4982,-1.4773,-1.4665,-1.4455,-1.4665,-1.5078,-1.4821,-1.418,-1.3315,-1.2159,-1.1332,-1.0891,-1.0945,-1.1383,-1.2372,-1.3472,-1.4083,-1.4196,-1.4196,-1.4196,-1.4196,-1.4196,-1.4196,-1.4196,-1.4024,-1.3807,-1.3748,-1.3532,-1.3152,-1.2545,-1.161,-1.0457,-0.9254,-0.8263,-0.7598,-0.7154,-0.7154,-0.7376,-0.7321,-0.7376,-0.7374,-0.7429,-0.8195,-0.9013,-1.0229,-1.1505,-1.1946,-1.2327,-1.2159,-1.1828,-1.1,-0.9786,-0.8588,-0.726,-0.6053,-0.539,-0.5165,-0.5241,-0.525,-0.6382,-0.78,-0.8296,-0.8449,-0.7828,-0.7104,-0.5972,-0.5098,-0.4483,-0.4223,-0.3893,-0.3539,-0.3142,-0.3046,-0.2861,-0.2837,-0.2515,-0.1256,-0.045,0.0273,-1.667,-1.6564,-1.4798,-1.3938,-1.383,-1.425,-1.4406,-1.4781,-1.6723,-1.7589,-1.7529,-1.7272,-1.6518,-1.5488,-1.4454,-1.3166,-1.1932,-1.1177,-1.1291,-1.2159,-1.3241,-1.4266,-1.5339,-1.6424,-1.6424,-1.6377,-1.6211,-1.6105,-1.5939,-1.5885,-1.5891,-1.5891,-1.5684,-1.5416,-1.5041,-1.4826,-1.4611,-1.4347,-1.4191,-1.4196,-1.4191,-1.4455,-1.4401,-1.3916,-1.3369,-1.2268,-1.1442,-1.1109,-1.0507,-1.0617,-1.166,-1.3197,-1.3916,-1.4196,-1.4196,-1.4196,-1.4196,-1.4196,-1.4196,-1.4196,-1.4029,-1.3748,-1.3694,-1.3532,-1.3207,-1.2881,-1.1832,-1.0511,-0.9361,-0.8263,-0.7543,-0.721,-0.7099,-0.7762,-0.8039,-0.8312,-0.8533,-0.8692,-0.9127,-1.0065,-1.1168,-1.1891,-1.2164,-1.2327,-1.2273,-1.1773,-1.1059,-0.9892,-0.8876,-0.7525,-0.6153,-0.5627,-0.5196,-0.5063,-0.5118,-0.6066,-0.7216,-0.7759,-0.8153,-0.7797,-0.7301,-0.6653,-0.5828,-0.4782,-0.4209,-0.3826,-0.3472,-0.319,-0.2764,-0.258,-0.2807,-0.2426,-0.1078,0.0,0.0638]}]]